[[{"header":{"parameterUnit":"m.s-1","parameterCategory":1,"la1":30.6,"la2":29.2853,"lo1":-89.7004,"lo2":-87.6739,"dy":0.0162,"dx":0.0183,"nx":112,"ny":82,"refTime":"2026-04-14T12:00:00:Z","depth":0,"parameterNumber":2,"parameterNumberName":"U-component_of_WINDS"},"data":[0.0,0.0,0.0,0.0,0.0,0.0,0.0,0.0,0.0,0.0,0.0,0.0,0.0,0.0,0.0,0.0,0.0,0.0,0.0,0.0,0.0,0.0,0.0,0.0,0.0,0.0,0.0,0.0,0.0,0.0,0.0,0.0,0.0,0.0,0.0,0.0,0.0,0.0,0.0,0.0,0.0,0.0,0.0,0.0,0.0,0.0,0.0,0.0,0.0,0.0,0.0,0.0,0.0,0.0,0.0,0.0,0.0,0.0,0.0,0.0,0.0,0.0,0.0,0.0,0.0,0.0,0.0,0.0,0.0,0.0,0.0,0.0,0.0,0.0,0.0,0.0,0.0,0.0,0.0,0.0,0.0,0.0,0.0,0.0,0.0,0.0,0.0,0.0,0.0,0.0,0.0,-3.0692,-3.4115,-3.5038,-3.2506,-3.0083,-2.7549,-2.486,0.0,0.0,0.0,0.0,0.0,0.0,0.0,0.0,0.0,0.0,0.0,0.0,0.0,0.0,0.0,0.0,0.0,0.0,0.0,0.0,0.0,0.0,0.0,0.0,0.0,0.0,0.0,0.0,0.0,0.0,0.0,0.0,0.0,0.0,0.0,0.0,0.0,0.0,0.0,0.0,0.0,0.0,0.0,0.0,0.0,0.0,0.0,0.0,0.0,0.0,0.0,0.0,0.0,0.0,0.0,0.0,0.0,0.0,0.0,0.0,0.0,0.0,0.0,0.0,0.0,0.0,0.0,0.0,0.0,0.0,0.0,0.0,0.0,0.0,0.0,0.0,0.0,0.0,0.0,0.0,0.0,0.0,0.0,0.0,0.0,0.0,0.0,0.0,0.0,0.0,0.0,0.0,0.0,0.0,0.0,0.0,0.0,0.0,0.0,0.0,0.0,0.0,0.0,0.0,-2.8429,-3.4115,-3.7123,-3.77,-3.5154,-3.3199,-3.0775,-2.7549,0.0,0.0,0.0,0.0,0.0,0.0,0.0,0.0,0.0,0.0,0.0,0.0,0.0,0.0,0.0,0.0,0.0,0.0,0.0,0.0,0.0,0.0,0.0,0.0,0.0,0.0,0.0,0.0,0.0,0.0,0.0,0.0,0.0,0.0,0.0,0.0,0.0,0.0,0.0,0.0,0.0,0.0,0.0,0.0,0.0,0.0,0.0,0.0,0.0,0.0,0.0,0.0,0.0,0.0,0.0,0.0,0.0,0.0,0.0,0.0,0.0,0.0,0.0,0.0,0.0,0.0,0.0,0.0,0.0,0.0,0.0,0.0,0.0,0.0,0.0,0.0,0.0,0.0,0.0,0.0,0.0,0.0,0.0,0.0,0.0,0.0,0.0,0.0,0.0,0.0,0.0,0.0,0.0,0.0,0.0,0.0,0.0,0.0,0.0,0.0,0.0,0.0,0.0,-2.7857,-3.1968,-3.5154,-3.7777,-3.8092,-3.5045,-3.3237,-3.0583,-2.6736,-2.2231,0.0,0.0,0.0,0.0,0.0,0.0,0.0,0.0,0.0,0.0,0.0,0.0,0.0,0.0,0.0,0.0,0.0,0.0,0.0,0.0,0.0,0.0,0.0,0.0,0.0,0.0,0.0,0.0,0.0,0.0,0.0,0.0,0.0,0.0,0.0,0.0,0.0,0.0,0.0,0.0,0.0,0.0,0.0,0.0,0.0,0.0,0.0,0.0,0.0,0.0,0.0,0.0,0.0,0.0,0.0,0.0,0.0,0.0,0.0,0.0,0.0,0.0,0.0,0.0,0.0,0.0,0.0,0.0,0.0,0.0,0.0,0.0,0.0,0.0,0.0,0.0,0.0,0.0,0.0,0.0,0.0,0.0,0.0,0.0,0.0,0.0,0.0,0.0,0.0,0.0,0.0,0.0,0.0,0.0,0.0,0.0,0.0,0.0,0.0,0.0,0.0,0.0,-3.2006,-3.4891,-3.5962,-3.82,-3.8284,-3.5045,-3.3045,-3.0237,-2.6154,-2.2385,0.0,0.0,0.0,0.0,0.0,0.0,0.0,0.0,0.0,0.0,0.0,0.0,0.0,0.0,0.0,0.0,0.0,0.0,0.0,0.0,0.0,0.0,0.0,0.0,0.0,0.0,0.0,0.0,0.0,0.0,0.0,0.0,0.0,0.0,0.0,0.0,0.0,0.0,0.0,0.0,0.0,0.0,0.0,0.0,0.0,0.0,0.0,0.0,0.0,0.0,0.0,0.0,0.0,0.0,0.0,0.0,0.0,0.0,0.0,0.0,0.0,0.0,0.0,0.0,0.0,0.0,0.0,0.0,0.0,0.0,0.0,0.0,0.0,0.0,0.0,0.0,0.0,0.0,0.0,0.0,0.0,0.0,0.0,0.0,0.0,0.0,0.0,0.0,0.0,0.0,0.0,0.0,0.0,0.0,0.0,0.0,0.0,0.0,0.0,0.0,0.0,0.0,-3.3269,-3.6038,-3.7661,-3.94,-3.9361,-3.6738,-3.4237,-3.1352,-2.7928,-2.3043,0.0,0.0,0.0,0.0,0.0,0.0,0.0,0.0,0.0,0.0,0.0,0.0,0.0,0.0,0.0,0.0,0.0,0.0,0.0,0.0,0.0,0.0,0.0,0.0,0.0,0.0,0.0,0.0,0.0,0.0,0.0,0.0,0.0,0.0,0.0,0.0,0.0,0.0,0.0,0.0,0.0,0.0,0.0,0.0,0.0,0.0,0.0,0.0,0.0,0.0,0.0,0.0,0.0,0.0,0.0,0.0,0.0,0.0,0.0,0.0,0.0,0.0,0.0,0.0,0.0,0.0,0.0,0.0,0.0,0.0,0.0,0.0,0.0,0.0,0.0,0.0,0.0,0.0,0.0,0.0,0.0,0.0,0.0,0.0,0.0,0.0,0.0,0.0,0.0,0.0,0.0,0.0,0.0,0.0,0.0,0.0,0.0,0.0,0.0,0.0,0.0,0.0,-3.3385,-3.6154,0.0,-3.9515,-3.9277,-3.6192,-3.4083,-3.1006,-2.6538,0.0,0.0,0.0,0.0,0.0,0.0,0.0,0.0,0.0,0.0,0.0,0.0,0.0,0.0,0.0,0.0,0.0,0.0,0.0,0.0,0.0,0.0,0.0,0.0,0.0,0.0,0.0,0.0,0.0,0.0,0.0,0.0,0.0,0.0,0.0,0.0,0.0,0.0,0.0,0.0,0.0,0.0,0.0,0.0,0.0,0.0,0.0,0.0,0.0,0.0,0.0,0.0,0.0,0.0,0.0,0.0,0.0,0.0,0.0,0.0,0.0,0.0,0.0,0.0,0.0,0.0,0.0,0.0,0.0,0.0,0.0,0.0,0.0,0.0,0.0,0.0,0.0,0.0,0.0,0.0,0.0,0.0,0.0,0.0,0.0,0.0,0.0,0.0,0.0,0.0,0.0,0.0,0.0,0.0,0.0,0.0,0.0,0.0,0.0,0.0,0.0,0.0,-2.939,-3.3423,-3.6423,0.0,-3.9515,-3.9123,-3.5808,-3.366,-3.0467,-2.5615,0.0,0.0,0.0,0.0,0.0,0.0,0.0,0.0,0.0,0.0,0.0,0.0,0.0,0.0,0.0,0.0,0.0,0.0,0.0,0.0,0.0,0.0,0.0,0.0,0.0,0.0,0.0,0.0,0.0,0.0,0.0,0.0,0.0,0.0,0.0,0.0,0.0,0.0,0.0,0.0,0.0,0.0,0.0,0.0,0.0,0.0,0.0,0.0,0.0,0.0,0.0,0.0,0.0,0.0,0.0,0.0,0.0,0.0,0.0,0.0,0.0,0.0,0.0,0.0,0.0,0.0,0.0,0.0,0.0,0.0,0.0,0.0,0.0,0.0,0.0,0.0,0.0,0.0,0.0,0.0,0.0,0.0,0.0,0.0,0.0,0.0,0.0,0.0,0.0,0.0,0.0,0.0,0.0,0.0,0.0,0.0,0.0,0.0,0.0,0.0,0.0,0.0,-2.8549,-3.3545,-3.7,-3.7892,-3.9477,-3.9123,-3.5769,-3.3154,-2.9885,0.0,0.0,0.0,0.0,0.0,0.0,0.0,0.0,0.0,0.0,0.0,0.0,0.0,0.0,0.0,0.0,0.0,0.0,0.0,0.0,0.0,0.0,0.0,0.0,0.0,0.0,0.0,0.0,0.0,0.0,0.0,0.0,0.0,0.0,0.0,0.0,0.0,0.0,0.0,0.0,0.0,0.0,0.0,0.0,0.0,0.0,0.0,0.0,0.0,0.0,0.0,0.0,0.0,0.0,0.0,0.0,0.0,0.0,0.0,0.0,0.0,0.0,0.0,0.0,0.0,0.0,0.0,0.0,0.0,0.0,0.0,0.0,0.0,0.0,0.0,0.0,0.0,0.0,0.0,0.0,0.0,0.0,0.0,0.0,0.0,0.0,0.0,0.0,0.0,0.0,0.0,0.0,0.0,0.0,0.0,0.0,0.0,0.0,0.0,0.0,0.0,0.0,0.0,-2.8549,-3.3045,-3.6154,-3.7,-3.8084,-3.7623,-3.4814,-3.2814,-2.9885,-2.5577,0.0,0.0,0.0,0.0,0.0,0.0,0.0,0.0,0.0,0.0,0.0,0.0,0.0,0.0,0.0,0.0,0.0,0.0,0.0,0.0,0.0,0.0,0.0,0.0,0.0,0.0,0.0,0.0,0.0,0.0,0.0,0.0,0.0,0.0,0.0,0.0,0.0,0.0,0.0,0.0,0.0,0.0,0.0,0.0,0.0,0.0,0.0,0.0,0.0,0.0,0.0,0.0,0.0,0.0,0.0,0.0,0.0,0.0,0.0,0.0,0.0,0.0,0.0,0.0,0.0,0.0,0.0,0.0,0.0,0.0,0.0,0.0,0.0,0.0,0.0,0.0,0.0,0.0,0.0,0.0,0.0,0.0,0.0,0.0,0.0,0.0,0.0,0.0,0.0,0.0,0.0,0.0,0.0,0.0,0.0,0.0,0.0,0.0,0.0,0.0,0.0,0.0,-2.8126,-3.2929,-3.6154,-3.6654,-3.7469,-3.6969,-3.4436,-3.266,-2.9885,-2.5577,0.0,0.0,0.0,0.0,0.0,0.0,0.0,0.0,0.0,0.0,0.0,0.0,0.0,0.0,0.0,0.0,0.0,0.0,0.0,0.0,0.0,0.0,0.0,0.0,0.0,0.0,0.0,0.0,0.0,0.0,0.0,0.0,0.0,0.0,0.0,0.0,0.0,0.0,0.0,0.0,0.0,0.0,0.0,0.0,0.0,0.0,0.0,0.0,0.0,0.0,0.0,0.0,0.0,0.0,0.0,0.0,0.0,0.0,0.0,0.0,0.0,0.0,0.0,0.0,0.0,0.0,0.0,0.0,0.0,0.0,0.0,0.0,0.0,0.0,0.0,0.0,0.0,0.0,0.0,0.0,0.0,0.0,0.0,0.0,0.0,0.0,0.0,0.0,0.0,0.0,0.0,0.0,0.0,0.0,0.0,0.0,0.0,0.0,0.0,0.0,0.0,0.0,-2.7588,-3.3045,-3.6577,-3.6577,-3.7315,-3.6776,-3.4282,-3.2622,-2.9885,-2.5692,0.0,0.0,0.0,0.0,0.0,0.0,0.0,0.0,0.0,0.0,0.0,0.0,0.0,0.0,0.0,0.0,0.0,0.0,0.0,0.0,0.0,0.0,0.0,0.0,0.0,0.0,0.0,0.0,0.0,0.0,0.0,0.0,0.0,0.0,0.0,0.0,0.0,0.0,0.0,0.0,0.0,0.0,0.0,0.0,0.0,0.0,0.0,0.0,0.0,0.0,0.0,0.0,0.0,0.0,0.0,0.0,0.0,0.0,0.0,0.0,-2.6162,0.0,0.0,0.0,0.0,0.0,0.0,0.0,0.0,0.0,0.0,0.0,0.0,0.0,0.0,0.0,0.0,0.0,0.0,0.0,0.0,0.0,0.0,0.0,0.0,0.0,0.0,0.0,0.0,0.0,0.0,0.0,0.0,0.0,0.0,0.0,0.0,0.0,0.0,0.0,0.0,0.0,-2.8396,-3.2891,-3.5769,-3.5769,-3.5923,-3.5269,-3.3353,-3.2275,-3.016,-2.6538,-2.2774,0.0,0.0,0.0,0.0,0.0,0.0,0.0,0.0,0.0,0.0,0.0,0.0,0.0,0.0,0.0,0.0,0.0,0.0,0.0,0.0,0.0,0.0,0.0,0.0,0.0,0.0,0.0,0.0,0.0,0.0,0.0,0.0,0.0,0.0,0.0,0.0,0.0,0.0,0.0,0.0,0.0,0.0,0.0,0.0,0.0,0.0,0.0,0.0,0.0,0.0,0.0,0.0,0.0,0.0,0.0,0.0,0.0,0.0,0.0,0.0,-2.8461,0.0,0.0,0.0,0.0,0.0,0.0,0.0,0.0,0.0,0.0,0.0,0.0,0.0,0.0,0.0,0.0,0.0,0.0,0.0,0.0,0.0,0.0,0.0,0.0,0.0,0.0,0.0,0.0,0.0,0.0,0.0,0.0,0.0,0.0,0.0,0.0,0.0,0.0,0.0,0.0,-2.8626,-3.2468,-3.5045,-3.5462,-3.55,-3.4962,-3.3622,-3.2391,-3.0583,-2.7967,-2.4235,0.0,0.0,0.0,0.0,0.0,0.0,0.0,0.0,0.0,0.0,0.0,0.0,0.0,0.0,0.0,0.0,0.0,0.0,0.0,0.0,0.0,0.0,0.0,0.0,0.0,0.0,0.0,0.0,0.0,0.0,0.0,0.0,0.0,0.0,0.0,0.0,0.0,0.0,0.0,0.0,0.0,0.0,0.0,0.0,0.0,0.0,0.0,0.0,0.0,0.0,0.0,0.0,0.0,-3.9375,-4.0156,-4.1016,-4.1016,-4.1406,-4.1836,-3.7537,-3.4721,-3.3116,-3.151,0.0,0.0,0.0,0.0,0.0,0.0,0.0,0.0,0.0,0.0,0.0,0.0,0.0,0.0,0.0,0.0,0.0,0.0,0.0,0.0,0.0,0.0,0.0,0.0,-3.0737,-2.9511,-2.6856,0.0,0.0,0.0,0.0,0.0,0.0,0.0,0.0,0.0,0.0,0.0,-2.905,-3.2397,-3.4699,-3.5423,-3.55,-3.5154,-3.4282,-3.2776,-3.116,-2.9434,-2.5779,-2.3163,0.0,0.0,0.0,0.0,0.0,0.0,0.0,0.0,0.0,0.0,0.0,0.0,0.0,0.0,0.0,0.0,0.0,0.0,0.0,0.0,0.0,0.0,0.0,0.0,0.0,0.0,0.0,0.0,0.0,0.0,0.0,0.0,-2.3047,-2.3945,0.0,0.0,0.0,0.0,0.0,0.0,0.0,0.0,0.0,0.0,0.0,0.0,0.0,-3.8437,-4.0156,-4.1836,-4.3125,-4.3984,-4.4101,-4.4609,-4.5469,-4.5469,-4.5508,-4.5586,-4.4883,0.0,-3.7656,-3.6679,0.0,0.0,0.0,0.0,0.0,0.0,0.0,0.0,0.0,0.0,0.0,0.0,0.0,0.0,0.0,0.0,0.0,0.0,0.0,0.0,0.0,0.0,-3.3891,-3.4654,-3.4731,-3.4731,0.0,-3.1545,-2.8203,-2.7395,-2.5736,0.0,0.0,0.0,0.0,0.0,0.0,0.0,-3.0891,-3.3692,-3.5385,-3.55,-3.55,-3.5154,-3.4282,-3.3314,-3.2006,-3.0346,-2.8352,-2.6164,-2.386,-2.1889,0.0,0.0,0.0,0.0,0.0,0.0,0.0,0.0,0.0,0.0,0.0,0.0,0.0,0.0,0.0,0.0,0.0,0.0,0.0,0.0,0.0,0.0,0.0,0.0,0.0,0.0,0.0,0.0,0.0,-2.3867,-2.6211,-2.6562,-2.7461,-2.8203,0.0,0.0,0.0,0.0,0.0,0.0,0.0,0.0,0.0,-3.7578,-4.0586,-4.3047,-4.4766,-4.6953,-4.8476,-4.9336,-4.9336,-4.9766,-5.0625,-5.0625,-5.0625,-5.0625,-5.0625,-4.8789,-4.5508,-4.1719,-3.8711,-3.6328,0.0,0.0,0.0,0.0,-3.2737,-3.3223,-3.4451,-3.4845,-3.4594,-3.3219,0.0,0.0,0.0,0.0,0.0,0.0,0.0,0.0,0.0,0.0,-3.7053,-3.693,-3.7276,-3.7584,-3.7469,-3.5661,-3.3583,0.0,-2.966,-2.7462,-2.5313,0.0,0.0,0.0,0.0,-2.7852,-3.1275,-3.3506,-3.4968,-3.5462,-3.55,-3.5346,-3.4968,-3.3699,-3.2583,-3.1852,-2.9775,-2.7857,-2.6318,-2.4125,-2.1585,0.0,0.0,0.0,0.0,0.0,0.0,0.0,0.0,0.0,0.0,0.0,0.0,0.0,0.0,0.0,0.0,0.0,0.0,0.0,0.0,0.0,0.0,0.0,0.0,0.0,0.0,0.0,0.0,-2.7109,-2.9375,-2.957,-3.1133,-3.2187,0.0,0.0,0.0,0.0,0.0,0.0,-3.6641,-3.832,-4.0078,-4.1836,-4.4766,-4.7148,-4.8906,-5.1016,-5.2383,-5.3047,-5.3047,-5.3359,-5.3984,-5.3984,-5.3984,-5.3984,-5.3984,-5.3125,-5.1367,-4.6406,-4.3281,-4.1289,-3.8906,-3.7577,-3.7064,-3.7668,-3.7986,-3.8368,-3.9781,-4.0097,-3.9641,-3.829,-3.7244,-3.5894,-3.2936,0.0,0.0,0.0,0.0,-3.4584,-3.6315,-3.8354,-3.9815,-3.9392,-3.9623,-3.9777,-3.9123,-3.8623,-3.7623,0.0,-3.316,-3.0962,-2.8621,0.0,0.0,0.0,0.0,-2.8736,-3.1929,-3.3622,-3.4776,-3.5423,-3.55,-3.55,-3.55,-3.3891,-3.2891,-3.2891,-3.0737,-2.8967,-2.7934,-2.5856,-2.3432,-2.0654,0.0,0.0,0.0,0.0,0.0,0.0,0.0,0.0,0.0,0.0,0.0,0.0,0.0,0.0,0.0,0.0,0.0,0.0,0.0,0.0,0.0,0.0,0.0,0.0,0.0,0.0,0.0,0.0,0.0,-3.3047,-3.4687,0.0,0.0,0.0,0.0,-3.8164,-3.9883,-4.1211,-4.1953,-4.3672,-4.5391,-4.7148,-4.8984,-5.0742,-5.2422,-5.3398,-5.3906,-5.3945,-5.3945,-5.3945,-5.3984,-5.3984,-5.3984,-5.3984,-5.3984,-5.3476,-5.25,-5.0586,-4.8281,-4.5781,-4.4023,-4.3281,-4.3236,-4.3216,-4.3702,-4.446,-4.5305,-4.5058,-4.4336,-4.4133,-4.1815,-3.8784,-3.693,-3.5808,0.0,0.0,-3.7046,-3.8123,-3.9823,-4.0969,-4.1893,-4.2662,-4.2239,-4.1654,-4.1615,-4.0354,-3.87,0.0,-3.5846,-3.4692,-3.2891,0.0,-2.9357,-3.1121,-3.0692,-3.1154,-3.3744,-3.4853,-3.5462,-3.55,-3.55,-3.55,-3.55,-3.3891,-3.2891,-3.2891,-3.1269,-2.9615,-2.7972,-2.6967,-2.4889,-2.1504,-1.9738,0.0,0.0,0.0,0.0,0.0,0.0,0.0,0.0,0.0,0.0,0.0,0.0,0.0,0.0,0.0,0.0,0.0,0.0,0.0,0.0,0.0,0.0,0.0,0.0,0.0,0.0,0.0,0.0,-3.7461,-3.957,0.0,-4.0976,-4.0976,-4.1445,-4.2617,-4.4844,-4.6289,-4.6562,-4.8711,-5.0234,-5.0859,-5.3125,-5.4609,-5.5195,-5.664,-5.7344,-5.7344,-5.7344,-5.7031,-5.6523,-5.6523,-5.6211,-5.5664,-5.5664,-5.5195,-5.4336,-5.3711,-5.1328,-4.7851,-4.668,-4.5859,-4.5426,-4.5922,-4.63,-4.6637,-4.7468,-4.7547,-4.7064,-4.5809,-4.3408,-4.086,-4.0215,-3.9415,-3.8892,-3.9738,-4.0192,-4.07,-4.1854,-4.2777,-4.3355,-4.3162,-4.2854,-4.247,-4.1923,-4.0893,-3.99,-3.9277,-3.8046,-3.6738,-3.5545,-3.3699,-3.2589,-3.3199,-3.2583,-3.2545,-3.4013,-3.4968,-3.55,-3.55,-3.55,-3.55,-3.55,-3.3891,-3.2891,-3.2891,-3.0814,-2.9313,-2.8703,-2.7351,-2.5769,-2.3962,-2.1735,-1.9619,0.0,0.0,0.0,0.0,0.0,0.0,0.0,0.0,0.0,0.0,0.0,0.0,0.0,0.0,0.0,0.0,0.0,0.0,0.0,0.0,0.0,0.0,0.0,0.0,0.0,0.0,-4.0195,-4.1094,-4.3437,-4.4883,-4.4609,-4.4844,-4.5273,-4.582,-4.8281,-4.9726,-4.9726,-5.1601,-5.2969,-5.3555,-5.5273,-5.6445,-5.7031,-5.8476,-5.9219,-5.9219,-5.9219,-5.875,-5.789,-5.789,-5.7422,-5.6601,-5.6601,-5.6094,-5.5312,-5.5312,-5.3437,-5.0547,-4.9961,-4.9414,-4.8944,-4.9488,-4.9523,-4.9245,-4.919,-4.9164,-4.8886,-4.733,-4.555,-4.4003,-4.372,-4.315,-4.2701,-4.3008,-4.3085,-4.3239,-4.3778,-4.4355,-4.4586,-4.4085,-4.3701,-4.3278,-4.2431,-4.1316,-4.0516,-4.0516,-3.9592,-3.8584,-3.7738,-3.6392,-3.5391,-3.5084,-3.4314,-3.4007,-3.4545,-3.5154,-3.55,-3.55,-3.55,-3.55,-3.55,-3.3891,-3.2891,-3.2891,-3.0512,-2.8973,-2.8703,-2.7351,-2.6043,-2.4928,-2.2389,-2.0269,-1.8538,0.0,0.0,0.0,0.0,0.0,0.0,0.0,0.0,0.0,0.0,0.0,0.0,0.0,0.0,0.0,0.0,0.0,0.0,0.0,0.0,0.0,0.0,0.0,-3.6016,-3.9844,-4.293,-4.3789,-4.6211,-4.7461,-4.6562,-4.7266,-4.7773,-4.7773,-5.0078,-5.1484,-5.1523,-5.2305,-5.3555,-5.5273,-5.5351,-5.6211,-5.793,-5.8789,-5.9258,-5.9258,-5.9219,-5.875,-5.789,-5.789,-5.7422,-5.6601,-5.6601,-5.6133,-5.5351,-5.5351,-5.4844,-5.4062,-5.4023,-5.3984,-5.3984,-5.3984,-5.3437,-5.2461,-5.0738,-5.0061,-4.9835,-4.895,-4.8471,-4.8139,-4.7255,-4.6976,-4.6701,-4.5864,-4.5594,-4.5556,-4.5594,-4.5594,-4.5556,-4.5594,-4.4932,-4.4085,-4.3278,-4.1739,-4.0516,-4.0516,-4.0516,-4.0246,-3.9477,-3.8623,-3.7738,-3.6923,-3.6077,0.0,-3.5538,-3.5538,-3.55,-3.55,-3.55,-3.55,-3.55,-3.3891,-3.2891,-3.2891,-3.0473,-2.8703,-2.7934,-2.7044,-2.5774,-2.4129,-2.1658,-1.9504,-1.7776,0.0,0.0,0.0,0.0,0.0,0.0,0.0,0.0,0.0,0.0,0.0,0.0,0.0,0.0,0.0,0.0,0.0,0.0,0.0,0.0,0.0,0.0,-3.8555,-3.8789,-4.3594,-4.7422,-4.832,-5.0664,-5.1914,-5.1016,-5.1172,-5.1289,-5.1289,-5.2539,-5.3555,-5.418,-5.4453,-5.5078,-5.6211,-5.6875,-5.7734,-5.8828,-5.9648,-6.0078,-6.0078,-5.9492,-5.875,-5.789,-5.789,-5.7422,-5.6601,-5.6601,-5.6445,-5.625,-5.625,-5.6094,-5.5742,-5.4492,-5.3984,-5.3984,-5.3984,-5.3437,-5.2539,-5.1444,-5.0617,-5.0014,-4.9703,-4.9106,-4.8355,-4.7417,-4.7054,-4.6797,-4.5924,-4.5197,-4.4778,-4.5441,-4.5133,-4.4816,-4.5441,-4.4932,-4.4085,-4.3278,-4.2239,-4.1277,-4.0631,-4.0516,-4.0439,-4.0208,-3.9477,-3.8854,-3.8623,-3.7315,0.0,-3.6385,-3.5846,-3.55,-3.55,-3.55,-3.55,-3.55,-3.3891,-3.2891,-3.2891,-2.9967,-2.8126,-2.7895,-2.6467,-2.5159,-2.4129,-2.2778,-2.1273,0.0,0.0,0.0,0.0,0.0,0.0,0.0,0.0,0.0,0.0,0.0,0.0,0.0,0.0,0.0,0.0,0.0,0.0,0.0,0.0,0.0,0.0,-3.9766,-4.2969,-4.4062,-4.7226,-4.9766,-5.0586,-5.2656,-5.3789,-5.3281,-5.3242,-5.3242,-5.3242,-5.4062,-5.4765,-5.5273,-5.5312,-5.5703,-5.6562,-5.7461,-5.8125,-5.8633,-5.9805,-6.0234,-5.9883,-5.9414,-5.875,-5.789,-5.789,-5.7422,-5.6601,-5.6601,-5.6601,-5.6601,-5.6601,-5.6601,0.0,0.0,0.0,0.0,0.0,-5.4219,-5.3594,-5.2382,-5.1599,-5.1126,-5.0717,-5.0165,-4.9469,-4.8181,-4.765,-4.7225,-4.5658,-4.4768,-4.4355,-4.4509,-4.4432,-4.4432,-4.4932,-4.494,-4.4624,-4.3778,-4.2931,-4.2085,-4.12,-4.0746,0.0,-4.0516,-4.0092,-3.9708,-3.9361,-3.843,-3.7546,-3.6769,-3.6308,-3.5885,-3.5538,-3.55,-3.55,-3.55,-3.4237,0.0,0.0,0.0,-2.8621,-2.7934,-2.6928,0.0,0.0,0.0,0.0,0.0,0.0,0.0,0.0,-1.9696,-2.0046,0.0,0.0,0.0,0.0,0.0,0.0,0.0,0.0,0.0,0.0,0.0,0.0,0.0,0.0,0.0,0.0,-4.3867,-4.7461,-4.9961,-5.0586,-5.1055,-5.1758,-5.3281,-5.4258,-5.4141,-5.4141,-5.4141,-5.4141,-5.4844,-5.5351,-5.543,0.0,0.0,0.0,0.0,-5.7812,-5.789,-5.9375,-5.9765,-5.9062,-5.8945,-5.8515,-5.7734,-5.7734,-5.7344,-5.6601,-5.6601,-5.6601,-5.6601,-5.6601,-5.6601,-5.6601,-5.6601,-5.6601,-5.6484,-5.5625,-5.5312,-5.5039,-5.3281,0.0,0.0,-5.1675,-5.1309,-5.0886,-4.9149,-4.8476,-4.7811,-4.5336,-4.4492,-4.4196,-4.358,-4.3888,-4.435,-4.4457,-4.5034,-4.5372,-4.4479,-4.3748,-4.297,-4.2,-4.1162,-4.0631,-4.0516,-4.0516,-4.0246,-3.9554,-3.9361,-3.8738,-3.7199,-3.6808,-3.6423,-3.5692,0.0,0.0,-3.55,-3.4699,-3.3859,-3.3083,-3.1385,-2.9654,-2.7972,-2.7895,-2.7544,-2.6774,-2.6736,-2.639,-2.5577,-2.5577,-2.5654,-2.5692,-2.4005,-2.3624,0.0,0.0,0.0,0.0,0.0,0.0,0.0,0.0,0.0,0.0,0.0,0.0,0.0,0.0,0.0,-4.2383,-4.6016,-4.9062,-5.0898,-5.2969,-5.4375,-5.4531,-5.5469,-5.582,-5.5117,-5.5039,-5.5039,-5.5039,-5.5195,-5.5625,-5.6328,-5.5664,-5.5703,-5.6562,-5.6758,-5.7187,-5.789,-5.8203,-5.832,-5.8125,0.0,0.0,-5.6836,-5.6836,-5.6758,-5.6601,-5.6601,-5.6601,-5.6601,-5.6601,-5.6601,-5.6601,-5.6601,-5.6601,-5.6484,-5.5625,-5.5312,-5.5039,-5.3281,-5.2695,-5.2578,-5.1678,-5.1397,-5.1029,-4.9235,-4.8604,0.0,-4.6174,-4.5112,-4.4643,-4.5146,-4.4914,-4.4713,-4.5372,-4.5611,-4.5417,-4.4575,-4.4226,-4.3624,-4.2085,-4.1662,-4.1316,-4.0631,-4.0516,-4.0439,-4.0285,-3.9708,-3.9169,-3.8854,-3.7584,-3.6654,-3.6462,-3.5885,-3.55,-3.55,-3.4699,-3.4129,-3.3975,-3.1737,-2.9654,-2.7972,-2.7895,-2.7818,-2.7659,-2.7659,-2.7582,-2.739,-2.739,-2.7736,-2.8319,-2.6659,-2.5967,0.0,0.0,0.0,0.0,0.0,0.0,0.0,0.0,0.0,0.0,0.0,-3.6055,-3.8203,0.0,-4.2656,-4.5234,-4.8164,-5.0742,-5.2461,-5.457,-5.5781,-5.5351,-5.6055,-5.6445,-5.5976,-5.5937,-5.5937,-5.5937,-5.5937,-5.6133,-5.6562,-5.6172,-5.6133,-5.6601,-5.7031,-5.7265,-5.7265,-5.7695,-5.7695,-5.7226,-5.6797,-5.6601,-5.6601,-5.6601,-5.6601,-5.6601,-5.6601,-5.6601,-5.6601,-5.6601,-5.6601,-5.6601,-5.6601,-5.6601,-5.6562,-5.6094,-5.5937,-5.5742,-5.4453,-5.3984,-5.3789,-5.2461,-5.2069,-5.1713,-4.9939,-4.9354,-4.8947,-4.7155,-4.6314,-4.582,-4.5387,-4.5271,-4.5298,-4.524,-4.5525,-4.5602,-4.5156,-4.4999,-4.4432,-4.2777,-4.247,-4.2047,-4.0746,-4.0516,-4.0516,-4.0516,-4.0169,-3.9746,-3.9361,-3.8161,-3.7199,-3.6731,-3.5962,-3.55,-3.55,-3.4699,-3.4205,-3.4205,-3.2583,-3.1275,-3.0429,-3.039,-3.039,-3.039,-3.039,-3.039,-3.039,-3.039,-3.0621,-3.0968,-3.0121,-2.9313,0.0,0.0,0.0,0.0,0.0,0.0,0.0,0.0,-3.3517,-3.5666,-3.8548,-4.1016,-4.2226,-4.4101,-4.6094,-4.7812,-5.0117,-5.2187,-5.3789,-5.5508,-5.6289,-5.539,-5.6055,-5.6601,-5.6601,-5.6601,-5.6601,-5.6601,-5.6601,-5.6601,-5.6601,-5.6601,-5.6601,-5.6601,-5.7265,-5.7305,-5.6601,-5.7305,-5.7305,-5.6601,-5.6601,-5.6601,-5.6601,-5.6601,-5.6601,-5.6601,-5.6601,-5.6601,-5.6601,-5.6601,-5.6601,-5.6601,-5.6601,-5.6601,-5.6601,-5.6601,-5.6601,-5.6484,-5.5586,-5.5312,-5.5,-5.3281,-5.2695,-5.2383,-5.0622,-5.0062,-4.969,-4.8108,-4.7603,-4.7213,-4.5655,-4.5768,-4.6064,-4.5196,-4.5426,-4.5803,-4.5768,-4.5696,-4.5184,-4.3681,-4.325,-4.2633,-4.1062,-4.0638,-4.0515,-4.0477,-4.0516,-4.0285,-3.9631,-3.8623,-3.7738,-3.7046,-3.6077,-3.55,-3.55,-3.4853,-3.4398,-3.4205,-3.3545,-3.3083,-3.2891,-3.2891,-3.2891,-3.2891,-3.2891,-3.2891,-3.2891,-3.2891,-3.2891,-3.2891,-3.2891,-3.2199,-2.7967,-2.936,-3.1732,-3.346,-3.3909,-3.4364,0.0,0.0,-3.7483,-4.0836,-4.2457,-4.4023,-4.6445,-4.7109,-4.7891,-4.9648,-5.1406,-5.2891,-5.3867,-5.5508,-5.6289,-5.539,-5.6055,-5.6601,-5.6601,-5.6601,-5.6601,-5.6601,-5.6601,-5.6601,-5.6601,-5.6601,-5.6601,-5.6601,-5.668,-5.6719,-5.6601,-5.6719,-5.6719,-5.6601,-5.6601,-5.6601,-5.6601,-5.6601,-5.6601,-5.6601,-5.6601,-5.6601,-5.6601,-5.6601,-5.6601,-5.6601,-5.6601,-5.6601,-5.6601,-5.6601,-5.6601,-5.6484,-5.5586,-5.5312,-5.5,-5.3281,-5.2695,-5.2383,-5.0702,-5.0149,-4.9903,-4.8917,-4.8586,-4.8332,-4.7432,-4.7276,-4.7111,-4.6176,-4.5962,-4.5968,-4.5869,-4.5815,-4.5508,-4.4626,-4.3807,-4.2949,-4.1989,-4.1177,-4.0636,-4.0539,-4.0516,-4.0477,-4.0362,-3.8969,-3.7969,-3.7853,-3.6423,-3.55,-3.55,-3.5423,-3.5007,-3.4244,-3.4129,-3.3705,-3.2929,-3.2891,-3.2891,-3.2891,-3.2891,-3.2891,-3.2891,-3.2891,-3.2891,-3.2891,-3.2891,-3.2814,-3.1725,-3.3288,0.0,0.0,-3.9054,-4.0135,-4.1391,-4.2063,-4.2973,-4.4944,-4.6481,-4.7656,-4.8242,-4.9141,-5.0039,0.0,-5.2344,-5.375,-5.4648,-5.582,-5.6289,-5.539,-5.5156,-5.5078,-5.5078,-5.5547,-5.5859,-5.5859,-5.6328,-5.6601,-5.6601,-5.6601,-5.6601,-5.6601,-5.6601,-5.6601,-5.6601,-5.6601,-5.6601,-5.6601,-5.6601,-5.6601,-5.6601,-5.6601,-5.6601,-5.6601,-5.6601,-5.6601,-5.6601,-5.6601,-5.6601,-5.6601,-5.6601,-5.6601,-5.6601,-5.6601,-5.6601,-5.6562,-5.6172,-5.6055,-5.5859,-5.4609,-5.4219,-5.3906,-5.2187,-5.1639,-5.1443,-5.0542,-5.0306,-5.0107,-4.9286,-4.9052,-4.8737,-4.7315,-4.6891,-4.6651,-4.6142,-4.592,-4.5631,-4.4821,-4.4355,-4.3689,-4.2291,-4.1747,-4.1305,-4.0749,-4.0649,-4.0602,-4.0619,-3.9557,-3.8404,-3.7353,-3.6192,-3.55,-3.55,-3.55,-3.5346,-3.4968,-3.4968,-3.4776,-3.4423,-3.4423,-3.4423,-3.4423,-3.4423,-3.4423,-3.4423,-3.4423,-3.4423,-3.4423,-3.4423,-3.4423,-3.4411,0.0,0.0,-4.0772,-4.2685,-4.4273,-4.5404,-4.6108,-4.6816,-4.7685,-4.8943,-4.9648,-4.9023,-5.0078,-5.1055,-5.1055,-5.2734,-5.4219,-5.4844,-5.5898,-5.6172,-5.5078,-5.4375,-5.3828,-5.332,-5.4297,-5.5039,-5.5273,-5.6094,-5.6601,-5.6601,-5.6601,-5.6601,-5.6601,-5.6601,-5.6601,-5.6601,-5.6601,-5.6601,-5.6601,-5.6601,-5.6601,-5.6601,-5.6601,-5.6601,-5.6601,-5.6601,-5.6601,-5.6601,-5.6601,-5.6601,-5.6601,-5.6601,-5.6601,-5.6601,-5.6601,-5.6601,-5.6601,-5.6601,-5.6601,-5.6445,-5.5586,-5.5312,-5.4961,-5.3242,-5.2695,-5.2539,-5.1641,-5.1406,-5.1211,-5.0391,-5.0195,-4.9765,-4.8004,-4.7523,-4.7188,-4.6306,-4.6034,-4.58,-4.5223,-4.4911,-4.4288,-4.2766,-4.2298,-4.187,-4.1006,-4.0814,-4.0754,-4.0718,-3.9953,-3.8722,-3.6899,-3.6192,-3.5731,-3.5538,-3.55,-3.55,-3.55,-3.55,-3.55,-3.55,-3.55,-3.55,-3.55,-3.55,-3.55,-3.55,-3.55,-3.55,-3.55,-3.55,-3.55,0.0,0.0,-3.9968,-4.18,-4.3636,-4.5418,-4.714,-4.749,-4.7724,-4.8669,-4.8906,-4.8945,-4.8906,-4.9648,-5.0234,-5.0234,-5.2344,-5.4023,-5.4023,-5.5508,-5.5976,-5.4258,-5.4023,-5.3359,0.0,-5.3047,-5.4375,-5.5234,-5.6094,-5.6601,-5.6601,-5.6601,-5.6601,-5.6601,-5.6601,-5.6601,-5.6601,-5.6601,-5.6601,-5.6601,-5.6601,-5.6601,-5.6601,-5.6601,-5.6601,-5.6601,-5.6601,-5.6601,-5.6601,-5.6601,-5.6601,-5.6601,-5.6601,-5.6601,-5.6601,-5.6601,-5.6601,-5.6601,-5.6601,-5.6601,-5.6445,-5.5586,-5.5312,-5.4961,-5.3242,-5.2695,-5.2539,-5.1641,-5.1406,-5.1211,-5.0391,-5.0195,-4.9765,-4.8006,-4.7532,-4.7248,-4.638,-4.6204,-4.6184,-4.6147,-4.5484,-4.4626,-4.3726,-4.2868,-4.201,-4.1111,-4.0991,-4.0958,-4.08,-3.9968,-3.8711,-3.6899,-3.6692,-3.6346,-3.5577,-3.55,-3.55,-3.55,-3.55,-3.55,-3.55,-3.55,-3.55,-3.55,-3.55,-3.55,-3.55,-3.55,-3.55,-3.55,-3.55,-3.55,0.0,0.0,-4.2578,-4.4423,-4.67,-4.8592,-4.9179,-4.9725,-5.0038,-4.9804,-4.9297,-4.8906,-4.8906,-4.9609,-5.0351,-5.0898,-5.3164,-5.4844,-5.4844,-5.5859,-5.6172,-5.5,-5.4336,0.0,0.0,0.0,0.0,-5.4375,-5.5234,-5.5976,-5.6562,-5.6601,-5.6601,-5.6601,-5.6601,-5.6875,-5.7461,-5.7461,-5.7734,-5.832,-5.7734,-5.7148,-5.6601,-5.6601,-5.6601,-5.6601,-5.6601,-5.6601,-5.6601,-5.6601,-5.6601,-5.6601,-5.6601,-5.6601,-5.6601,-5.6601,-5.6601,-5.6601,-5.6601,-5.6601,-5.6562,-5.625,-5.6172,-5.5859,-5.4101,-5.3555,-5.3242,-5.1797,-5.1406,-5.1328,-5.1055,-5.1016,-5.0586,-4.8867,-4.8437,-4.8045,-4.6599,-4.6284,-4.6282,-4.6282,-4.6048,-4.5384,-4.3939,-4.3431,-4.2767,-4.1322,-4.1053,-4.0984,-4.0866,-4.0038,-3.8998,-3.7751,-3.7101,-3.6419,-3.5577,-3.55,-3.55,-3.55,-3.55,-3.55,-3.55,-3.55,-3.55,-3.55,-3.55,-3.55,-3.55,-3.55,-3.55,-3.55,-3.55,-3.55,-3.8691,-4.1883,-4.4733,-4.6632,-4.8649,-5.0155,-5.0195,-5.0586,-5.0547,-4.9101,-4.8125,-4.7422,-4.7109,-4.7734,-4.8711,-4.9844,-5.2461,-5.4492,-5.4805,-5.5859,-5.6289,-5.539,-5.4805,-5.4101,0.0,0.0,0.0,-5.3945,-5.4805,-5.5664,-5.6562,-5.6601,-5.6601,-5.6601,-5.6601,-5.7031,-5.789,-5.789,-5.8164,-5.8711,-5.8164,-5.7422,-5.6601,-5.6601,-5.6601,-5.6601,-5.6601,-5.6601,-5.6601,-5.6601,-5.6601,-5.6601,-5.6601,-5.6601,-5.6601,-5.6601,-5.6601,-5.6601,-5.6601,-5.6601,-5.6601,-5.6601,-5.6601,-5.6289,-5.4531,-5.3984,-5.3633,-5.1875,-5.1406,-5.1406,-5.1406,-5.1406,-5.0976,-4.9297,-4.8906,-4.8437,-4.668,-4.6289,-4.6289,-4.6289,-4.6289,-4.5859,-4.4414,-4.3633,-4.2773,-4.1406,-4.1116,-4.0991,-4.0942,-4.0407,-3.95,-3.8278,-3.7604,-3.6774,-3.5584,-3.55,-3.55,-3.55,-3.55,-3.55,-3.55,-3.55,-3.55,-3.55,-3.55,-3.55,-3.55,-3.55,-3.55,-3.55,-3.55,-3.55,-4.1394,-4.4065,-4.6533,-4.8304,-4.9445,-5.0148,-5.0192,-5.0156,-4.9375,-4.6758,-4.5469,-4.457,-4.3789,0.0,-4.5469,-4.7305,-5.0469,-5.3008,-5.3867,-5.5508,-5.6289,0.0,0.0,0.0,0.0,0.0,0.0,-5.4062,0.0,-5.5664,-5.6562,-5.6601,-5.6601,-5.6601,-5.6601,-5.7031,-5.7969,-5.8047,-5.8047,-5.7969,-5.7969,-5.75,-5.6601,-5.6601,-5.6601,-5.6601,-5.6601,-5.6601,-5.6601,-5.6601,-5.6601,-5.6601,-5.6601,-5.6601,-5.6601,-5.6601,-5.6601,-5.6601,-5.6601,-5.6601,-5.6601,-5.6601,-5.6601,-5.6289,-5.457,-5.4062,-5.3711,-5.1953,-5.1484,-5.1445,-5.1406,-5.1406,-5.0976,-4.9336,-4.8984,-4.8476,-4.6758,-4.6367,-4.6367,-4.6328,-4.625,-4.5976,-4.5156,-4.3555,-4.2148,-4.1367,-4.1171,-4.1087,-4.1021,-4.0933,-4.0229,-3.8456,-3.8224,-3.7443,-3.5706,-3.5577,-3.5538,-3.55,-3.55,-3.55,-3.55,-3.55,-3.55,-3.55,-3.5538,-3.5577,-3.5577,-3.5615,-3.5615,-3.5615,-3.5615,-3.5615,-4.325,-4.6155,-4.88,-4.9386,-5.0215,-5.0791,-5.0259,-4.9645,-4.8476,-4.5859,-4.3633,-4.2266,-4.2656,0.0,0.0,-4.7109,-5.0469,0.0,-5.3867,-5.5508,0.0,-5.6289,0.0,-5.5937,-5.5039,-5.4961,0.0,0.0,-5.5156,-5.5664,-5.6562,-5.6601,-5.6601,-5.6601,-5.6601,-5.7344,-5.8867,-6.0117,-6.0117,-5.8867,-5.8867,-5.8086,-5.6601,-5.6601,-5.6601,-5.6601,-5.6601,-5.6601,-5.6601,-5.6601,-5.6601,-5.6601,-5.6601,-5.6601,-5.6601,-5.6601,-5.6601,-5.6601,-5.6601,-5.6601,-5.6601,-5.6601,-5.6601,-5.6406,-5.5312,-5.4961,-5.4609,-5.2851,-5.2383,-5.2226,-5.1562,-5.1406,-5.1133,-5.0117,-4.9883,-4.9375,-4.7656,-4.7266,-4.707,-4.6445,-4.5781,-4.5273,-4.5039,-4.3555,-4.2344,-4.2109,-4.1562,-4.1131,-4.1077,-4.1001,-4.0503,-3.9287,-3.916,-3.8395,-3.6553,-3.6385,-3.6154,-3.5538,-3.55,-3.55,-3.55,-3.55,-3.55,-3.55,-3.6077,-3.6385,-3.6385,-3.7046,-3.7353,-3.7353,-3.7353,-3.7353,-4.5486,-4.7782,-4.9713,-5.0183,-5.049,-5.0313,-4.9169,-4.8029,-4.6324,-4.3356,-4.1012,0.0,-4.0076,0.0,0.0,0.0,0.0,0.0,-5.2695,-5.4687,-5.6015,0.0,-5.6367,0.0,-5.5937,-5.5859,-5.5859,0.0,-5.5508,-5.5664,-5.6562,-5.6601,-5.6601,-5.6601,-5.6601,-5.7422,-5.918,-6.0859,-6.0859,-5.9219,-5.9219,-5.8281,-5.6601,-5.6601,-5.6601,-5.6601,0.0,-5.6601,-5.6601,-5.6601,-5.6601,-5.6601,-5.6601,-5.6601,-5.6601,-5.6601,-5.6601,-5.6601,-5.6601,-5.6601,-5.6601,-5.6601,-5.6601,-5.6445,-5.5547,-5.5312,-5.4922,-5.3203,-5.2695,-5.25,-5.1641,-5.1406,-5.1211,-5.0391,-5.0195,-4.9726,-4.7969,-4.7617,-4.7344,-4.6484,-4.5898,-4.5469,-4.5078,-4.3867,-4.2851,-4.2461,-4.1719,-4.1172,-4.1168,-4.1108,-4.0666,-3.9664,-3.9529,-3.8748,-3.6867,-3.6692,-3.6346,-3.5538,-3.55,-3.55,-3.55,-3.55,-3.55,-3.55,-3.6308,-3.6692,-3.6692,-3.7584,-3.8007,-3.8007,-3.8007,-3.8007,-4.7918,-4.929,-5.0262,-5.0959,-5.0569,-4.9556,-4.7611,-4.5796,-4.3486,-3.9972,0.0,-3.6501,-3.6742,-3.7492,-3.9215,-4.2772,0.0,-4.9336,-5.1016,-5.3476,-5.5156,-5.5273,-5.5976,-5.6484,-5.6601,-5.6601,-5.6601,-5.6601,-5.5898,-5.5781,-5.6562,-5.6601,-5.6601,-5.6601,-5.6836,-5.7656,-5.918,-6.0859,-6.0859,-5.9219,-5.9219,-5.8281,-5.6601,-5.6601,-5.6601,-5.6601,-5.6601,-5.6601,-5.6601,-5.6601,-5.6601,-5.6601,-5.6601,-5.6601,-5.6601,-5.6601,-5.6601,-5.6601,-5.6601,-5.6601,-5.6601,-5.6601,-5.6601,-5.6445,-5.5703,-5.5469,-5.5117,-5.3359,-5.2851,-5.2656,-5.1641,-5.1406,-5.1211,-5.0547,-5.0351,-4.9883,-4.8164,-4.7578,-4.7187,-4.6445,-4.6289,-4.6055,-4.5312,-4.4336,-4.3437,-4.2695,-4.1797,-4.1211,-4.1211,-4.1125,-4.0779,-3.988,-3.9712,-3.8999,-3.721,-3.7067,-3.6713,-3.5905,-3.586,-3.5853,-3.5846,-3.5846,-3.5846,-3.5846,-3.6615,-3.7046,-3.7046,-3.7892,-3.8315,-3.8315,-3.8315,-3.8315,-5.0144,-5.1385,-5.2454,-5.2026,-5.1308,-4.9918,-4.6846,-4.3786,0.0,0.0,0.0,-3.2283,-3.3743,-3.4701,0.0,-4.0852,0.0,0.0,0.0,0.0,-5.4492,0.0,0.0,0.0,0.0,0.0,0.0,0.0,0.0,-5.6445,-5.6601,-5.6601,-5.6601,-5.6601,-5.8008,-5.8906,-5.9219,-6.0859,-6.0859,-5.9219,-5.9219,-5.8281,-5.6601,-5.6601,-5.6601,-5.6601,-5.6601,0.0,-5.6601,-5.6601,-5.6601,-5.6601,-5.6601,-5.6601,-5.6601,-5.6601,-5.6601,-5.6601,-5.6601,-5.6601,-5.6601,-5.6601,-5.6601,-5.6562,-5.6406,-5.6367,-5.6015,-5.4258,-5.3789,-5.3398,-5.1797,-5.1406,-5.1367,-5.1211,-5.1172,-5.0742,-4.9023,-4.7539,-4.6484,-4.6328,-4.6289,-4.625,-4.6094,-4.4766,-4.3633,-4.3516,-4.2187,-4.1211,-4.1211,-4.1127,-4.0984,-4.0682,-4.0661,-4.0218,-3.9096,-3.8975,-3.8556,-3.7681,-3.7654,-3.7627,-3.7584,-3.7584,-3.7584,-3.7584,-3.8392,-3.8854,-3.8854,-3.9669,-4.0054,-4.0054,-4.0054,-4.0054,-5.0596,-5.1279,-5.1722,-5.0942,-4.9812,-4.8089,-4.5215,0.0,0.0,0.0,0.0,-3.0383,-3.1696,0.0,0.0,0.0,0.0,0.0,0.0,0.0,0.0,0.0,0.0,0.0,0.0,0.0,0.0,0.0,0.0,-5.6601,-5.6601,-5.6601,-5.6601,-5.6601,-5.7851,-5.8515,-5.8515,-5.9765,-5.9765,-5.8515,-5.8515,-5.7851,-5.6601,-5.6601,-5.6601,-5.6601,-5.6601,-5.6601,-5.6601,-5.6601,-5.6601,-5.6601,-5.6601,-5.6601,-5.6601,-5.6601,-5.6601,-5.6601,-5.6601,-5.6601,-5.6601,-5.6601,-5.6601,-5.6601,-5.6601,-5.6601,-5.625,-5.4492,-5.3984,-5.3594,-5.1836,-5.1406,-5.1406,-5.1406,-5.1094,-5.043,-4.918,-4.7891,-4.6836,-4.6406,-4.6289,-4.6289,-4.6289,-4.5234,-4.4375,-4.4375,-4.293,-4.1836,-4.1836,-4.1404,-4.1077,-4.0955,-4.0958,-4.0552,-3.9612,-3.9524,-3.9121,-3.8212,-3.8125,-3.806,-3.8015,-3.8007,-3.8007,-3.8007,-3.8854,-3.9284,-3.9284,-4.0092,-4.0516,-4.0516,-4.0516,-4.0516,-5.0702,-5.1087,-5.0981,-4.998,-4.8347,-4.6244,-4.3347,-3.9274,0.0,0.0,-3.026,-2.8726,-2.9659,0.0,0.0,0.0,0.0,0.0,0.0,0.0,0.0,0.0,0.0,0.0,0.0,0.0,0.0,0.0,0.0,0.0,-5.6601,-5.6601,-5.6601,-5.6601,-5.7461,-5.789,-5.789,-5.875,-5.875,-5.789,-5.789,-5.7422,-5.6601,-5.6601,-5.6601,-5.6601,-5.6601,0.0,-5.6601,-5.6601,-5.6601,-5.6601,-5.6601,-5.6601,-5.6601,-5.6601,-5.6601,-5.6601,-5.6601,-5.6601,-5.6601,-5.6601,-5.6601,-5.6601,-5.6601,-5.6601,-5.625,-5.4492,-5.3984,-5.3594,-5.1836,-5.1406,-5.1406,-5.1406,-5.0781,-5.0,-4.9336,-4.8359,-4.7383,-4.6719,-4.6445,-4.6289,-4.6289,-4.5586,-4.5,-4.5,-4.3516,-4.2383,-4.2383,-4.164,-4.109,-4.1033,-4.1048,-4.0705,-3.9965,-3.9883,-3.9596,-3.8825,-3.8717,-3.8627,-3.8582,-3.8561,-3.8553,-3.8546,-3.9207,-3.9554,-3.9554,-4.0208,-4.0516,-4.0516,-4.0516,-4.0516,-5.1587,-5.2356,-5.2587,-5.0981,-4.8711,-4.5834,-4.1686,0.0,0.0,-3.0001,-2.7454,-2.5967,-2.6871,-2.7776,-2.955,0.0,0.0,0.0,0.0,0.0,0.0,0.0,0.0,0.0,0.0,0.0,0.0,0.0,0.0,0.0,-5.6601,-5.6601,-5.6601,-5.6601,-5.7461,-5.789,-5.789,-5.875,-5.875,-5.789,-5.789,-5.7422,-5.6601,-5.6601,-5.6601,-5.6601,-5.6601,0.0,0.0,-5.6601,-5.6601,-5.6601,-5.6601,-5.6601,-5.6601,-5.6601,-5.6601,-5.6601,-5.6601,-5.6601,-5.6601,-5.6601,-5.6601,-5.6601,-5.6601,-5.6601,-5.625,-5.4492,-5.3984,-5.3594,-5.1836,-5.1406,-5.1406,-5.1406,-5.0781,-5.0195,-5.0117,-4.8789,-4.7578,-4.75,-4.6836,-4.6289,-4.6289,-4.5586,-4.5,-4.5,-4.3516,-4.2383,-4.2383,-4.168,-4.1172,-4.1172,-4.1121,-4.1019,-4.0874,-4.0886,-4.0804,-4.0667,-4.0592,-4.0492,-4.0356,-4.0352,-4.0315,-4.0285,-4.0362,-4.04,-4.04,-4.0477,-4.0516,-4.0516,-4.0516,-4.0516,-5.0164,-5.0664,-5.051,-4.8817,-4.6509,-4.3624,-3.9854,0.0,-3.1583,-2.955,-2.7082,-2.5553,-2.6482,-2.6975,-2.8349,-3.1792,-3.4369,-3.7156,0.0,0.0,0.0,0.0,0.0,0.0,0.0,0.0,0.0,0.0,0.0,0.0,-5.6601,-5.6601,-5.6601,-5.6601,-5.6953,-5.7109,-5.7109,-5.7461,-5.7461,-5.7109,-5.7109,-5.6953,-5.6601,-5.6601,-5.6601,-5.6601,-5.6601,0.0,0.0,-5.6601,-5.6601,-5.6601,-5.6601,-5.6601,-5.6601,-5.6601,-5.6601,-5.6601,-5.6601,-5.6601,-5.6601,-5.6601,-5.6601,-5.6601,-5.6601,-5.6601,-5.625,-5.4492,-5.3984,-5.3594,-5.1836,-5.1406,-5.1406,-5.1406,-5.1172,-5.0781,-5.0312,-4.9648,-4.8867,-4.7812,-4.7305,-4.6914,-4.6406,-4.6016,-4.5781,-4.5781,-4.4766,-4.3945,-4.3945,-4.2773,-4.1914,-4.1914,-4.1483,-4.1167,-4.1124,-4.1073,-4.1012,-4.0972,-4.091,-4.0811,-4.0649,-4.0668,-4.0598,-4.0516,-4.0516,-4.0516,-4.0516,-4.0516,-4.0516,-4.0516,-4.0516,-4.0516,-4.8279,-4.8817,-4.8625,-4.6932,-4.4393,-4.1431,0.0,0.0,-3.0429,-2.8703,-2.6736,-2.5505,-2.6111,-2.626,-2.73,-3.0501,-3.2237,-3.4574,-3.8518,0.0,0.0,0.0,0.0,0.0,0.0,0.0,0.0,0.0,0.0,0.0,-5.6601,-5.6601,-5.6601,-5.6601,-5.6601,-5.6601,-5.6601,-5.6601,-5.6601,-5.6601,-5.6601,-5.6601,-5.6601,-5.6601,-5.6601,-5.6601,-5.6601,0.0,0.0,-5.6601,-5.6601,-5.6601,-5.6601,-5.6601,-5.6601,-5.6601,-5.6601,-5.6601,-5.6601,-5.6601,-5.6601,-5.6601,-5.6601,-5.6601,-5.6601,-5.6601,-5.6289,-5.4805,-5.4023,-5.332,-5.2109,-5.1601,-5.1406,-5.1406,-5.1406,-5.125,-5.0664,-5.0351,-4.9844,-4.8594,-4.7969,-4.7422,-4.6797,-4.6484,-4.6289,-4.6289,-4.5547,-4.5,-4.5,-4.3711,-4.2773,-4.2773,-4.2031,-4.1445,-4.1211,-4.1131,-4.1084,-4.1025,-4.0983,-4.0863,-4.0759,-4.0736,-4.0694,-4.0552,-4.0576,-4.0561,-4.0515,-4.0539,-4.0523,-4.0516,-4.0516,-4.0631,-4.624,-4.7509,-4.7702,-4.6018,-4.3055,-3.9669,0.0,-3.2199,-2.8665,-2.6967,-2.5923,-2.5308,-2.5308,-2.5308,-2.6159,-2.8703,-2.9852,-3.2199,-3.7315,0.0,0.0,0.0,0.0,0.0,0.0,0.0,0.0,0.0,0.0,0.0,-5.6601,-5.6601,-5.6601,-5.6601,-5.6601,-5.6597,-5.6593,-5.6593,-5.6593,-5.6593,-5.6597,-5.6601,-5.6601,-5.6601,-5.6601,-5.6601,0.0,0.0,0.0,-5.6601,-5.6601,-5.6601,-5.6601,-5.6601,-5.6601,-5.6601,-5.6601,-5.6601,-5.6601,-5.6601,-5.6601,-5.6601,-5.6601,-5.6601,-5.6601,-5.6601,-5.6406,-5.5547,-5.4023,-5.2695,-5.2695,-5.2031,-5.1406,-5.1406,-5.1406,-5.1406,-5.1406,-5.0742,-5.0195,-5.0195,-4.8789,-4.7617,-4.7578,-4.6875,-4.6289,-4.6289,-4.5547,-4.5,-4.5,-4.4219,-4.3672,-4.3672,-4.2891,-4.207,-4.1289,-4.1132,-4.109,-4.1119,-4.1055,-4.0964,-4.0913,-4.0815,-4.0782,-4.0694,-4.0694,-4.0661,-4.0588,-4.0591,-4.0546,-4.0516,-4.0516,-4.0969,-4.2893,-4.3615,-4.3508,-4.2401,-3.9969,-3.7161,-3.4353,-3.1314,-2.8626,-2.6967,-2.5923,-2.5308,-2.5308,-2.5308,-2.5962,-2.7972,-2.8967,0.0,0.0,0.0,0.0,0.0,0.0,0.0,0.0,0.0,0.0,0.0,0.0,0.0,-5.6545,-5.6546,-5.6555,-5.6601,-5.6599,-5.6549,-5.6448,-5.6526,-5.6526,-5.6448,-5.6504,-5.6558,-5.6601,-5.6601,-5.6601,0.0,0.0,0.0,0.0,-5.6601,-5.6601,-5.6601,-5.6601,-5.6601,-5.6601,-5.6601,-5.6601,-5.6601,-5.6601,-5.6601,-5.6601,-5.6601,-5.6601,-5.6601,-5.6601,-5.6601,-5.6406,-5.5547,-5.4023,-5.2695,-5.2695,-5.2031,-5.1406,-5.1406,-5.1406,-5.1406,-5.1406,-5.1211,-5.0859,-5.0312,-4.9766,-4.8984,-4.7812,-4.7383,-4.6992,-4.6406,-4.6055,-4.5898,-4.5898,-4.5117,-4.4375,-4.375,-4.3437,-4.293,-4.2109,-4.1484,-4.1171,-4.117,-4.1124,-4.1025,-4.0983,-4.0948,-4.0863,-4.0757,-4.0791,-4.0732,-4.0655,-4.0674,-4.0605,-4.0516,-4.0516,-4.0969,0.0,-3.9161,-3.9192,-3.8361,-3.643,-3.4237,-3.1968,-2.9737,-2.7775,-2.6385,-2.5692,-2.5308,-2.5308,-2.5308,-2.5769,-2.7198,-2.8126,0.0,0.0,0.0,0.0,0.0,0.0,0.0,0.0,0.0,0.0,0.0,0.0,0.0,-5.6397,-5.64,-5.6419,-5.6454,-5.6491,-5.6475,-5.6354,-5.6386,-5.6386,-5.6354,-5.6428,-5.6497,-5.6558,-5.6559,-5.6599,0.0,0.0,0.0,0.0,-5.6601,-5.6601,-5.6601,-5.6601,-5.6601,-5.6601,-5.6601,-5.6601,-5.6601,-5.6601,-5.6601,-5.6601,-5.6601,-5.6601,-5.6601,-5.6601,-5.6601,-5.6484,-5.5937,-5.4531,-5.3203,-5.3203,-5.2305,-5.1406,-5.1406,-5.1406,-5.1406,-5.1406,-5.1406,-5.125,-5.0742,-5.0391,-4.9844,-4.8789,-4.8047,-4.7422,-4.6875,-4.6523,-4.6289,-4.6289,-4.582,-4.5156,-4.4297,-4.418,-4.3828,-4.2969,-4.2422,-4.2148,-4.2148,-4.2108,-4.2061,-4.2004,-4.2028,-4.1964,-4.1841,-4.1836,-4.1767,-4.1668,-4.1615,-4.1547,-4.1477,-4.1477,-4.1931,0.0,-3.4391,-3.5,-3.416,-3.2776,-3.116,-2.9396,-2.7775,0.0,-2.55,-2.5308,-2.5308,-2.5308,-2.5346,-2.5692,-2.6621,-2.7544,0.0,0.0,0.0,0.0,0.0,0.0,0.0,0.0,0.0,0.0,0.0,0.0,0.0,-5.6175,-5.6181,-5.6181,-5.6181,-5.6329,-5.6342,-5.6256,-5.6269,-5.6269,-5.6256,-5.6347,-5.6397,-5.648,-5.6493,-5.6504,0.0,0.0,-5.6561,-5.6523,-5.6523,-5.6523,-5.6523,-5.6523,-5.6562,-5.6601,-5.6601,-5.6601,-5.6601,-5.6601,-5.6601,-5.6601,-5.6601,-5.6601,-5.6601,-5.6601,-5.6601,-5.6601,-5.6601,-5.5351,-5.3984,-5.3984,-5.2695,-5.1406,-5.1406,-5.1406,-5.1406,-5.1406,-5.1406,-5.1406,-5.1406,-5.0781,-5.0273,-5.0195,-4.8867,-4.7734,-4.7617,-4.6914,-4.6367,-4.6328,-4.6289,-4.5937,-4.5,-4.5039,-4.4726,-4.3789,-4.3711,-4.3711,-4.3711,-4.371,-4.3707,-4.3699,-4.3695,-4.3684,-4.3624,-4.3536,-4.3424,-4.3313,-4.3149,-4.3085,-4.3085,-4.3085,-4.3547,-2.7154,0.0,-3.2385,-3.15,-3.1,-3.0269,0.0,-2.7351,-2.6346,-2.55,0.0,-2.5308,-2.5308,-2.5846,-2.6774,-2.828,-2.9813,0.0,0.0,0.0,0.0,0.0,0.0,0.0,0.0,0.0,0.0,0.0,0.0,-5.6064,-5.6114,-5.6114,-5.6114,-5.6114,-5.6085,-5.6071,-5.6008,-5.6039,-5.6039,-5.6008,-5.6123,-5.6208,-5.629,-5.6328,-5.6371,0.0,0.0,-5.6166,-5.5625,-5.5625,-5.5625,-5.5625,-5.5625,-5.6015,-5.6601,-5.6601,-5.6601,-5.6601,-5.6601,-5.6601,-5.6601,-5.6601,-5.6601,-5.6601,-5.6601,-5.6601,-5.6601,-5.6601,-5.5351,-5.3984,-5.3984,-5.2695,-5.1406,-5.1406,-5.1406,-5.1406,-5.1406,-5.1406,-5.1406,-5.1406,-5.125,-5.0937,-5.0312,-4.9844,-4.9141,-4.7812,-4.7422,-4.7031,-4.6406,-4.6289,-4.5703,-4.418,-4.5195,-4.5351,-4.3828,-4.3711,-4.3711,-4.3711,-4.3711,-4.3711,-4.371,-4.371,-4.3709,-4.3669,-4.3515,-4.3393,-4.328,-4.3173,-4.3085,-4.3085,-4.3085,-4.3547,-2.5787,-2.7572,-2.9159,-2.8269,-2.8346,-2.8308,-2.7005,-2.6346,0.0,0.0,0.0,-2.5423,-2.5808,-2.6621,0.0,-2.9429,-3.1468,0.0,0.0,0.0,0.0,0.0,0.0,0.0,0.0,0.0,0.0,0.0,0.0,-5.5865,-5.5921,-5.5921,-5.5921,-5.5921,-5.5865,-5.5884,-5.5896,-5.5956,-5.5956,-5.5896,-5.6009,-5.6093,-5.6149,-5.6214,-5.6281,0.0,-5.6419,-5.5986,-5.5267,-5.5308,-5.531,-5.5311,-5.5312,-5.582,-5.6601,-5.6601,-5.6601,-5.6601,-5.6601,-5.6601,-5.6601,-5.6601,-5.6601,-5.6601,-5.6601,-5.6601,-5.6601,-5.6601,-5.5351,-5.3984,-5.3984,-5.2695,-5.1406,-5.1406,-5.1406,-5.1406,-5.1406,-5.1406,-5.1406,-5.1406,-5.1406,-5.125,-5.082,-5.043,-4.9883,-4.8945,-4.8125,-4.7422,-4.6953,-4.6562,-4.5625,-4.3906,-4.5273,-4.5586,-4.3867,-4.4414,-4.4883,-4.4883,-4.4883,-4.4883,-4.4883,-4.4883,-4.4882,-4.4879,-4.4735,-4.4621,-4.4555,-4.439,-4.4298,-4.4273,-4.4256,-4.447,-2.6294,-2.6787,-2.6774,-2.5923,-2.6423,-2.6923,-2.5923,0.0,0.0,0.0,0.0,0.0,0.0,0.0,0.0,0.0,0.0,0.0,0.0,0.0,0.0,0.0,0.0,0.0,0.0,0.0,0.0,0.0,0.0,-5.5703,-5.5703,-5.5703,-5.5703,-5.5703,-5.5703,-5.5738,-5.5865,-5.5856,-5.5856,-5.5865,-5.595,-5.5973,-5.6048,-5.5976,-5.5993,-5.6046,0.0,0.0,-5.4757,-5.4849,-5.494,-5.5067,-5.5074,-5.5702,-5.6601,-5.6601,-5.6601,-5.6601,-5.6601,-5.6601,-5.6601,-5.6601,-5.6601,-5.6601,-5.6601,-5.6601,-5.6601,-5.6601,-5.5351,-5.3984,-5.3984,-5.2695,-5.1406,-5.1406,-5.1406,-5.1406,-5.1406,-5.1406,-5.1406,-5.1406,-5.1406,-5.1406,-5.1406,-5.082,-5.0351,-5.0234,-4.8828,-4.7734,-4.7617,-4.6836,-4.5664,-4.4062,-4.5351,-4.5664,-4.4023,-4.5351,-4.6289,-4.6289,-4.6289,-4.6289,-4.6289,-4.6289,-4.6288,-4.6315,-4.6189,-4.6076,-4.6017,-4.5827,-4.5727,-4.5717,-4.562,-4.5594,-2.6194,-2.7533,-2.8511,-2.7698,-2.8659,-2.9423,-2.7852,0.0,0.0,0.0,0.0,0.0,0.0,0.0,0.0,0.0,0.0,0.0,0.0,0.0,0.0,0.0,0.0,0.0,0.0,0.0,0.0,0.0,0.0,-5.5703,-5.5703,-5.5703,-5.5703,-5.5703,-5.5703,-5.5714,-5.5745,-5.5735,-5.5735,-5.5745,-5.5756,-5.5766,-5.5748,-5.5123,-5.486,-5.4915,0.0,-5.348,-5.2736,-5.2894,-5.3367,-5.4027,-5.4084,-5.5113,-5.6601,-5.6601,-5.6601,-5.6601,-5.6601,-5.6601,-5.6601,-5.6601,-5.6601,-5.6601,-5.6601,-5.6601,-5.6601,-5.6601,-5.5351,-5.3984,-5.3984,-5.2695,-5.1406,-5.1406,-5.1406,-5.1406,-5.1406,-5.1406,-5.1406,-5.1406,-5.1406,-5.1406,-5.1406,-5.1289,-5.0976,-5.0312,-4.9336,-4.8437,-4.7695,-4.6836,-4.5898,-4.4922,-4.5703,-4.5898,-4.4883,-4.5703,-4.6289,-4.6289,-4.6289,-4.6289,-4.6289,-4.6289,-4.6288,-4.6281,-4.6179,-4.6092,-4.6095,-4.5896,-4.5761,-4.5688,-4.5607,-4.5594,-2.6098,-2.7655,-2.9081,-2.9214,-3.0494,-3.1545,-3.0775,-3.0583,0.0,0.0,0.0,0.0,0.0,0.0,0.0,0.0,0.0,0.0,0.0,0.0,0.0,0.0,0.0,0.0,0.0,0.0,0.0,0.0,0.0,0.0,-5.5703,-5.5703,-5.5703,-5.5703,-5.5703,-5.5703,-5.5703,-5.5703,-5.5703,-5.5703,-5.5703,-5.5703,-5.5675,-5.4911,-5.4591,-5.4589,0.0,-5.3028,-5.229,-5.2391,-5.297,-5.3813,-5.3855,-5.502,-5.6599,-5.6601,-5.6601,-5.6601,-5.6601,-5.6601,-5.6601,-5.6601,-5.6601,-5.6601,-5.6601,-5.6601,-5.6601,-5.6601,-5.5664,-5.4687,-5.4687,-5.3398,-5.2109,-5.2109,-5.1758,-5.1406,-5.1406,-5.1406,-5.1406,-5.1406,-5.1406,-5.1406,-5.1406,-5.1406,-5.1289,-5.0898,-5.0156,-4.9453,-4.9062,-4.8242,-4.7383,-4.6484,-4.6758,-4.6641,-4.5781,-4.6055,-4.6289,-4.6289,-4.6289,-4.6289,-4.6289,-4.6289,-4.6289,-4.6286,-4.6195,-4.6167,-4.6154,-4.5998,-4.5852,-4.5822,-4.5749,-4.5727,-2.596,-2.744,-2.8976,-3.0324,-3.1783,-3.2968,-3.316,-3.3353,0.0,0.0,0.0,0.0,0.0,0.0,0.0,0.0,0.0,0.0,0.0,0.0,0.0,0.0,0.0,0.0,0.0,0.0,0.0,0.0,0.0,0.0,-5.5126,-5.5126,-5.5126,-5.5126,-5.5126,-5.5203,-5.5434,-5.5434,-5.5511,-5.5703,-5.5703,-5.5703,-5.5665,-5.487,-5.4545,-5.4544,-5.3778,-5.3094,-5.2539,-5.2574,-5.3177,-5.4012,-5.4091,-5.5143,-5.6592,-5.6601,-5.6601,-5.6601,-5.6601,-5.6601,-5.6601,-5.6601,-5.6601,-5.6601,-5.6601,-5.6601,-5.6601,-5.6601,-5.6133,-5.5547,-5.5351,-5.4023,-5.2695,-5.2695,-5.2031,-5.1406,-5.1406,-5.1406,-5.1406,-5.1406,-5.1406,-5.1406,-5.1406,-5.1406,-5.1406,-5.1406,-5.0703,-5.0195,-5.0195,-4.9453,-4.8633,-4.7969,-4.7891,-4.7539,-4.668,-4.6406,-4.6289,-4.6289,-4.6289,-4.6289,-4.6289,-4.6289,-4.6289,-4.6288,-4.6245,-4.6233,-4.6206,-4.6098,-4.5987,-4.5934,-4.5846,-4.5815,-2.5747,-2.684,-2.8313,-3.0803,-3.2186,-3.3122,-3.3936,-3.4737,0.0,-3.6192,0.0,0.0,0.0,0.0,0.0,0.0,0.0,0.0,0.0,0.0,0.0,0.0,0.0,0.0,0.0,0.0,0.0,0.0,0.0,0.0,-5.3395,-5.3395,-5.3395,-5.3395,-5.3395,-5.378,-5.4587,-5.4587,-5.4972,-5.5703,-5.5703,-5.5703,-5.5665,-5.4867,-5.4483,-5.4454,-5.3608,-5.3195,-5.3128,-5.3224,-5.3782,-5.466,-5.4795,-5.5506,-5.6507,-5.6561,-5.6601,-5.6601,-5.6601,-5.6601,-5.6601,-5.6601,-5.6601,-5.6601,-5.6601,-5.6601,-5.6601,-5.6601,-5.6562,-5.6328,-5.5508,-5.4023,-5.2695,-5.2695,-5.2031,-5.1406,-5.1406,-5.1406,-5.1406,-5.1406,-5.1406,-5.1406,-5.1406,-5.1406,-5.1406,-5.1406,-5.0703,-5.0195,-5.0195,-4.9453,-4.8867,-4.8828,-4.8828,-4.8437,-4.7578,-4.6758,-4.6289,-4.6289,-4.6289,-4.6289,-4.6289,-4.6289,-4.6289,-4.6289,-4.6289,-4.6288,-4.628,-4.6177,-4.6106,-4.6076,-4.5935,-4.5877,-2.5107,-2.6036,-2.7345,-2.943,-3.1418,0.0,0.0,-3.7623,-3.8854,-3.9692,-4.07,0.0,0.0,0.0,0.0,0.0,0.0,0.0,0.0,0.0,0.0,0.0,0.0,0.0,0.0,0.0,0.0,0.0,0.0,0.0,-5.3203,-5.3203,-5.3203,-5.3203,-5.3203,-5.3626,-5.4472,-5.4511,-5.4895,-5.5703,-5.5703,-5.5703,-5.5665,-5.4857,-5.4511,-5.4434,-5.3587,-5.3203,-5.3203,-5.3282,-5.3849,-5.4722,-5.5468,-5.6035,-5.6464,-5.6501,-5.6549,-5.6549,-5.6549,-5.6551,-5.6555,-5.6597,-5.6599,-5.6601,-5.6601,-5.6601,-5.6601,-5.6601,-5.6601,-5.6523,-5.6172,-5.5234,-5.4336,-5.4336,-5.3242,-5.2226,-5.2226,-5.1797,-5.1406,-5.1406,-5.1406,-5.1406,-5.1406,-5.1406,-5.1406,-5.1406,-5.1133,-5.0937,-5.0937,-5.0664,-5.0469,-5.0469,-5.0,-4.9375,-4.8476,-4.8125,-4.793,-4.793,-4.6914,-4.6289,-4.6289,-4.6289,-4.6289,-4.6289,-4.6289,-4.6289,-4.6286,-4.6195,-4.614,-4.6165,-4.6092,-4.6056,-2.5416,-2.5953,-2.6842,-2.8887,0.0,0.0,-3.7161,-3.97,-4.1623,-4.2777,-4.3893,0.0,0.0,0.0,0.0,0.0,0.0,0.0,0.0,0.0,0.0,0.0,0.0,0.0,0.0,0.0,0.0,0.0,0.0,0.0,0.0,-5.2395,-5.2395,-5.2395,-5.2395,-5.2933,-5.4087,-5.4087,-5.4626,-5.5703,-5.5703,-5.5703,-5.5665,-5.5126,-5.4895,-5.4857,-5.4241,-5.3972,-5.3972,-5.4051,-5.4439,-5.5109,-5.5877,-5.623,-5.6324,-5.639,-5.641,-5.641,-5.641,-5.6422,-5.6443,-5.6538,-5.655,-5.6558,-5.6601,-5.6601,-5.6601,-5.6601,-5.6601,-5.6601,-5.6601,-5.5937,-5.5312,-5.5312,-5.3984,-5.2695,-5.2695,-5.2031,-5.1406,-5.1406,-5.1406,-5.1406,-5.1406,-5.1406,-5.1406,-5.1406,-5.1406,-5.1406,-5.1406,-5.1406,-5.1406,-5.1406,-5.0664,-4.9961,-4.9375,-4.9062,-4.8906,-4.8906,-4.7773,-4.6992,-4.6719,-4.6719,-4.6562,-4.6328,-4.6289,-4.6289,-4.6288,-4.6245,-4.6241,-4.6237,-4.6227,-4.621,-2.6906,-2.6773,-2.695,0.0,0.0,0.0,-3.7084,-4.0662,-4.3585,-4.5287,0.0,0.0,0.0,0.0,0.0,0.0,0.0,0.0,0.0,0.0,0.0,0.0,0.0,0.0,0.0,0.0,0.0,0.0,0.0,0.0,0.0,-5.0712,-5.0712,-5.0712,-5.0712,-5.151,-5.3164,-5.3203,-5.4049,-5.5703,-5.5703,-5.5703,-5.5703,-5.5703,-5.5703,-5.5703,-5.5703,-5.5703,-5.5703,-5.5703,-5.5776,-5.5885,-5.5904,-5.5971,-5.6096,-5.6158,-5.6191,-5.6191,-5.6191,-5.6227,-5.632,-5.6374,-5.6445,-5.6507,-5.6562,-5.6601,-5.6601,-5.6601,-5.6601,-5.6601,-5.6601,-5.5976,-5.5312,-5.5312,-5.3984,-5.2734,-5.2734,-5.2031,-5.1406,-5.1406,-5.1406,-5.1406,-5.1406,-5.1406,-5.1406,-5.1406,-5.1406,-5.1406,-5.1406,-5.1406,-5.1406,-5.1406,-5.0703,-5.0195,-5.0195,-4.9414,-4.8906,-4.8906,-4.8906,-4.8516,-4.7656,-4.7617,-4.7187,-4.6328,-4.6289,-4.6289,-4.6289,-4.6289,-4.6289,-4.6289,-4.6289,-4.6288,-2.6242,-2.7138,0.0,0.0,0.0,0.0,0.0,-4.2338,0.0,0.0,0.0,0.0,0.0,0.0,0.0,0.0,0.0,0.0,0.0,0.0,0.0,0.0,0.0,0.0,0.0,0.0,0.0,0.0,0.0,0.0,0.0,-5.0712,-5.0712,-5.0712,-5.0712,-5.151,-5.3164,-5.3203,-5.4049,-5.5703,-5.5703,-5.5703,-5.5703,-5.5703,-5.5703,-5.5703,-5.5703,-5.5703,-5.5703,-5.5703,-5.5756,-5.5827,-5.5902,-5.5935,-5.604,-5.61,-5.6128,-5.6128,-5.6128,-5.6181,-5.6247,-5.629,-5.6383,-5.6422,-5.6497,-5.6549,-5.6554,-5.6597,-5.6599,-5.6601,-5.6601,-5.6406,-5.6211,-5.6211,-5.5351,-5.4531,-5.4531,-5.3828,-5.3242,-5.3242,-5.2734,-5.2305,-5.2305,-5.1797,-5.1406,-5.1406,-5.1406,-5.1406,-5.1406,-5.1406,-5.1406,-5.1406,-5.1172,-5.1055,-5.1055,-5.082,-5.0664,-5.0664,-5.0664,-5.0,-4.8555,-4.793,-4.7461,-4.7226,-4.6601,-4.6289,-4.6289,-4.6289,-4.6289,-4.6289,-4.6289,-4.664,-2.7018,-2.8207,0.0,0.0,0.0,0.0,0.0,0.0,0.0,0.0,0.0,0.0,0.0,0.0,0.0,0.0,0.0,0.0,0.0,0.0,0.0,0.0,0.0,0.0,0.0,0.0,0.0,0.0,0.0,0.0,0.0,-5.0712,-5.0712,-5.0712,-5.0712,-5.1356,-5.2654,-5.2692,-5.3356,-5.4703,-5.4703,-5.4703,-5.4741,-5.5395,-5.5703,-5.5703,-5.5703,-5.5703,-5.5703,-5.5703,-5.5724,-5.5766,-5.5788,-5.5866,-5.5904,-5.5929,-5.5947,-5.5947,-5.5947,-5.6007,-5.6102,-5.6136,-5.6208,-5.6271,-5.6379,-5.6413,-5.6436,-5.6495,-5.6549,-5.6558,-5.6601,-5.6601,-5.6601,-5.6601,-5.5937,-5.5312,-5.5312,-5.4609,-5.3984,-5.3984,-5.3281,-5.2695,-5.2695,-5.1992,-5.1406,-5.1406,-5.1406,-5.1406,-5.1406,-5.1406,-5.1406,-5.1406,-5.1406,-5.1406,-5.1406,-5.1406,-5.1406,-5.1406,-5.1406,-5.0937,-4.9922,-4.9062,-4.8476,-4.8125,-4.7617,-4.7344,-4.7344,-4.7344,-4.7344,-4.7344,-4.7344,-4.7617,-2.8484,0.0,0.0,0.0,0.0,0.0,0.0,0.0,0.0,0.0,0.0,0.0,0.0,0.0,0.0,0.0,0.0,0.0,0.0,0.0,0.0,0.0,0.0,0.0,0.0,0.0,0.0,0.0,0.0,0.0,0.0,-5.0712,-5.0712,-5.0712,-5.0712,-5.1087,-5.1885,-5.1885,-5.2346,-5.3203,-5.3203,-5.3203,-5.3241,-5.478,-5.5472,-5.5472,-5.5472,-5.5472,-5.5472,-5.5549,-5.5588,-5.5588,-5.5665,-5.5703,-5.5703,-5.5703,-5.5703,-5.5703,-5.5703,-5.5776,-5.5885,-5.5904,-5.6002,-5.6089,-5.6185,-5.6256,-5.6312,-5.6368,-5.6441,-5.6506,-5.6561,-5.6601,-5.6601,-5.6601,-5.5976,-5.543,-5.543,-5.4805,-5.4258,-5.4258,-5.3516,-5.293,-5.293,-5.2148,-5.1484,-5.1406,-5.1406,-5.1406,-5.1406,-5.1406,-5.1406,-5.1406,-5.1406,-5.1406,-5.1406,-5.1406,-5.1406,-5.1406,-5.1406,-5.1406,-5.1406,-5.0625,-4.9844,-4.9023,-4.8945,-4.8906,-4.8906,-4.8906,-4.8906,-4.8906,-4.8906,-4.8945,0.0,-2.9854,0.0,0.0,0.0,0.0,0.0,0.0,0.0,0.0,0.0,0.0,0.0,0.0,0.0,0.0,0.0,0.0,0.0,0.0,0.0,0.0,0.0,0.0,0.0,0.0,0.0,0.0,0.0,0.0,-5.0712,-5.0712,-5.0712,-5.0712,-5.0712,-5.1087,-5.1885,-5.1885,-5.2346,-5.3203,-5.3203,-5.3203,-5.3203,-5.3587,-5.3741,-5.3741,-5.3741,-5.3741,-5.378,-5.4472,-5.4741,-5.4818,-5.5434,-5.5703,-5.5703,-5.5703,-5.5703,-5.5703,-5.5703,-5.5756,-5.5827,-5.5893,-5.5965,-5.6032,-5.6085,-5.6162,-5.6236,-5.6285,-5.6375,-5.6455,-5.6495,-5.6507,-5.6512,-5.6595,-5.6444,-5.6328,-5.6328,-5.6172,-5.6055,-5.6055,-5.5351,-5.4726,-5.4726,-5.3437,-5.2187,-5.1484,-5.1406,-5.1406,-5.1406,-5.1406,-5.1406,-5.1406,-5.1406,-5.1406,-5.1406,-5.1406,-5.1406,-5.1406,-5.1406,-5.1406,-5.1406,-5.0625,-5.0117,-4.9922,-4.9258,-4.8906,-4.8906,-4.8906,-4.8906,-4.8906,-4.8906,-4.9258,0.0,0.0,0.0,0.0,0.0,0.0,0.0,0.0,0.0,0.0,0.0,0.0,0.0,0.0,0.0,0.0,0.0,0.0,0.0,0.0,0.0,0.0,0.0,0.0,0.0,0.0,0.0,0.0,0.0,-5.0712,-5.0712,-5.0712,-5.0712,-5.0712,-5.0712,-5.0894,-5.1318,-5.1318,-5.1548,-5.201,-5.201,-5.201,-5.201,-5.2818,-5.3203,-5.3203,-5.3203,-5.3203,-5.328,-5.4126,-5.4511,-5.4587,-5.5395,-5.5703,-5.5703,-5.5703,-5.5703,-5.5703,-5.5703,-5.5724,-5.5756,-5.5778,-5.5847,-5.5847,-5.5893,-5.5982,-5.6079,-5.6116,-5.6191,-5.6256,-5.6328,-5.6365,-5.643,-5.6493,-5.6554,-5.6601,-5.6601,-5.6601,-5.6601,-5.6601,-5.5898,-5.5312,-5.5312,-5.3867,-5.2383,-5.1523,-5.1406,-5.1406,-5.1406,-5.1406,-5.1406,-5.1406,-5.1406,-5.1406,-5.1406,-5.1406,-5.1406,-5.1406,-5.1406,-5.1406,-5.1406,-5.1016,-5.0781,-5.0781,-5.0312,-5.0117,-5.0117,-5.0117,-5.0117,-5.0117,-5.0117,-5.0351,0.0,0.0,0.0,0.0,0.0,0.0,0.0,0.0,0.0,0.0,0.0,0.0,0.0,0.0,0.0,0.0,0.0,0.0,0.0,0.0,0.0,0.0,0.0,0.0,0.0,0.0,0.0,0.0,0.0,-5.0712,-5.0712,-5.0712,-5.0712,-5.0712,-5.0712,-5.0712,-5.0712,-5.0712,-5.0712,-5.0712,-5.0712,-5.0712,-5.075,-5.2125,-5.2779,-5.2779,-5.2779,-5.2779,-5.2856,-5.3703,-5.4049,-5.4164,-5.5126,-5.5472,-5.5511,-5.5665,-5.5703,-5.5703,-5.5703,-5.5703,-5.5703,-5.5703,-5.5703,-5.5703,-5.5703,-5.5776,-5.5885,-5.5904,-5.5994,-5.6114,-5.6179,-5.6246,-5.6303,-5.6361,-5.6493,-5.6558,-5.6601,-5.6601,-5.6601,-5.6601,-5.6015,-5.5469,-5.5312,-5.4101,-5.2851,-5.1992,-5.1836,-5.1836,-5.1836,-5.1836,-5.1836,-5.1836,-5.1836,-5.1836,-5.1836,-5.1836,-5.1797,-5.1641,-5.1601,-5.1562,-5.1406,-5.1406,-5.1406,-5.1406,-5.1406,-5.1406,-5.1406,-5.1406,-5.1406,-5.1406,-5.1406,-5.1406,0.0,0.0,0.0,0.0,0.0,0.0,0.0,0.0,0.0,0.0,0.0,0.0,0.0,0.0,0.0,0.0,0.0,0.0,0.0,0.0,0.0,0.0,0.0,0.0,0.0,0.0,0.0,0.0,-5.0712,-5.0712,-5.0712,-5.0712,-5.0712,-5.0712,-5.0712,-5.0712,-5.0712,-5.0712,-5.0712,-5.0712,-5.0712,-5.0712,-5.0712,-5.0943,-5.102,-5.102,-5.102,-5.102,-5.1087,-5.1895,-5.2231,-5.2423,-5.4049,-5.4664,-5.4741,-5.5434,-5.5703,-5.5703,-5.5703,-5.5703,-5.5703,-5.5703,-5.5703,-5.5703,-5.5703,-5.5756,-5.5827,-5.5884,-5.5956,-5.6015,-5.6109,-5.6149,-5.623,-5.6315,-5.6383,-5.6443,-5.6561,-5.6601,-5.6601,-5.6601,-5.6523,-5.6172,-5.543,-5.5117,-5.4648,-5.3789,-5.3633,-5.3633,-5.3633,-5.3633,-5.3633,-5.3633,-5.3633,-5.3633,-5.3633,-5.3633,-5.332,-5.2578,-5.2539,-5.2187,-5.1445,-5.1406,-5.1406,-5.1406,-5.1406,-5.1406,-5.1406,-5.1406,-5.1406,-5.1406,-5.1406,-5.1406,0.0,0.0,0.0,0.0,0.0,0.0,0.0,0.0,0.0,0.0,0.0,0.0,0.0,0.0,0.0,0.0,0.0,0.0,0.0,0.0,0.0,0.0,0.0,0.0,0.0,0.0,0.0,0.0,-5.0712,-5.0712,-5.0712,-5.0712,-5.0712,-5.0712,-5.0712,-5.0712,-5.0712,-5.0712,-5.0712,-5.0712,-5.0712,-5.0712,-5.0712,-5.0712,-5.0712,-5.0712,-5.0712,-5.0712,-5.075,-5.1587,-5.1885,-5.2077,-5.3818,-5.4511,-5.4587,-5.5395,-5.5703,-5.5703,-5.5703,-5.5703,-5.5703,-5.5703,-5.5703,-5.5703,-5.5703,-5.5724,-5.5756,-5.5797,-5.5827,-5.5856,-5.5865,-5.5947,-5.6056,-5.605,-5.6169,-5.6316,-5.6454,-5.6557,-5.6601,-5.6601,-5.6601,-5.6328,-5.5469,-5.5312,-5.5,-5.4141,-5.3984,-5.3984,-5.3984,-5.3984,-5.3984,-5.3984,-5.3984,-5.3984,-5.3984,-5.3984,-5.3633,-5.2773,-5.2695,-5.2305,-5.1445,-5.1406,-5.1406,-5.1406,-5.1406,-5.1406,-5.1406,-5.1406,-5.1406,-5.1406,-5.1406,-5.1406,0.0,0.0,0.0,0.0,0.0,0.0,0.0,0.0,0.0,0.0,0.0,0.0,0.0,0.0,0.0,0.0,0.0,0.0,0.0,0.0,0.0,0.0,0.0,0.0,0.0,0.0,0.0,0.0,-5.0712,-5.0712,-5.0712,-5.0712,-5.0712,-5.0712,-5.0712,-5.0712,-5.0712,-5.0712,-5.0712,-5.0712,-5.0712,-5.0712,-5.0712,-5.0712,-5.0712,-5.0712,-5.0712,-5.0712,-5.075,-5.1356,-5.1587,-5.1741,-5.3241,-5.3857,-5.3972,-5.5011,-5.5395,-5.5434,-5.5626,-5.5703,-5.5703,-5.5703,-5.5703,-5.5703,-5.5703,-5.5703,-5.5703,-5.5703,-5.5703,-5.5703,-5.5703,-5.5787,-5.5885,-5.5896,-5.6047,-5.6214,-5.6377,-5.651,-5.6601,-5.6601,-5.6601,-5.6406,-5.5742,-5.5625,-5.539,-5.4765,-5.4648,-5.4648,-5.4648,-5.4648,-5.4648,-5.4648,-5.4648,-5.4648,-5.4648,-5.4648,-5.4297,-5.3437,-5.3359,-5.2969,-5.2109,-5.207,-5.1953,-5.1719,-5.1719,-5.1601,-5.1406,-5.1406,-5.1406,-5.1406,-5.1406,-5.1406,0.0,0.0,0.0,0.0,0.0,0.0,0.0,0.0,0.0,0.0,0.0,0.0,0.0,0.0,0.0,0.0,0.0,0.0,0.0,0.0,0.0,0.0,0.0,0.0,0.0,0.0,0.0,0.0,-5.0712,-5.0712,-5.0712,-5.0712,-5.0712,-5.0712,-5.0712,-5.0712,-5.0712,-5.0712,-5.0712,-5.0712,-5.0712,-5.0712,-5.0712,-5.0712,-5.0712,-5.0712,-5.0712,-5.0712,-5.0712,-5.075,-5.075,-5.0866,-5.1702,-5.2038,-5.2231,-5.3933,-5.4549,-5.4664,-5.5434,-5.5703,-5.5703,-5.5703,-5.5703,-5.5703,-5.5703,-5.5703,-5.5703,-5.5703,-5.5703,-5.5703,-5.5703,-5.5756,-5.5827,-5.5884,-5.6015,-5.6181,-5.6436,-5.6558,-5.6601,-5.6601,-5.6601,-5.6601,-5.6523,-5.6523,-5.6523,-5.6484,-5.6445,-5.6445,-5.6445,-5.6445,-5.6445,-5.6445,-5.6445,-5.6445,-5.6445,-5.6445,-5.6094,-5.5234,-5.5156,-5.4765,-5.3906,-5.3867,-5.3476,-5.2656,-5.2617,-5.2226,-5.1406,-5.1406,-5.1406,-5.1406,-5.1406,-5.1406,0.0,0.0,0.0,0.0,0.0,0.0,0.0,0.0,0.0,0.0,0.0,0.0,0.0,0.0,0.0,0.0,0.0,0.0,0.0,0.0,0.0,0.0,0.0,0.0,0.0,0.0,0.0,0.0,0.0,-4.9048,-4.9048,-4.9048,-4.9279,-4.9856,-4.9856,-5.0125,-5.0712,-5.0712,-5.0712,-5.0712,-5.0712,-5.0712,-5.0712,-5.0712,-5.0712,-5.0712,-5.0712,-5.0712,-5.0712,-5.0712,-5.0712,-5.0789,-5.1587,-5.1885,-5.2115,-5.3857,-5.4511,-5.4626,-5.5434,-5.5703,-5.5703,-5.5703,-5.5703,-5.5703,-5.5703,-5.5703,-5.5703,-5.5703,-5.5703,-5.5703,-5.5703,-5.5724,-5.5766,-5.5876,-5.5926,-5.6015,-5.6266,-5.648,-5.6599,-5.66,-5.6601,-5.6601,-5.6601,-5.6601,-5.6601,-5.6601,-5.6601,-5.6601,-5.6601,-5.6601,-5.6601,-5.6601,-5.6601,-5.6601,-5.6601,-5.6601,-5.6211,-5.5351,-5.5312,-5.4922,-5.4023,-5.3984,-5.3594,-5.2734,-5.2695,-5.2266,-5.1406,-5.1406,-5.1406,-5.1406,-5.1406,-5.1406,-2.3015,0.0,0.0,0.0,0.0,0.0,0.0,0.0,0.0,0.0,0.0,0.0,0.0,0.0,0.0,0.0,0.0,0.0,0.0,0.0,0.0,0.0,0.0,0.0,0.0,0.0,0.0,0.0,0.0,0.0,-4.8086,-4.8086,-4.8509,-4.9356,-4.9663,-5.0087,-5.0712,-5.0712,-5.0712,-5.0712,-5.0712,-5.0712,-5.0712,-5.0712,-5.0712,-5.0712,-5.0712,-5.0712,-5.0712,-5.0712,-5.0712,-5.075,-5.1279,-5.151,-5.1702,-5.3433,-5.4049,-5.4203,-5.5318,-5.5703,-5.5703,-5.5703,-5.5703,-5.5703,-5.5703,-5.5703,-5.5703,-5.5703,-5.5703,-5.5703,-5.5703,-5.5703,-5.5735,-5.5827,-5.5864,-5.5954,-5.6149,-5.6371,-5.6546,-5.6555,-5.6561,-5.6601,-5.6601,-5.6601,-5.6601,-5.6601,-5.6601,-5.6601,-5.6601,-5.6601,-5.6601,-5.6601,-5.6601,-5.6601,-5.6601,-5.6601,-5.6367,-5.5781,-5.5742,-5.5469,-5.4883,-5.4883,-5.4453,-5.3594,-5.3555,-5.3008,-5.1836,-5.1523,-5.1406,-5.1406,-5.1406,-5.1406,0.0,0.0,0.0,0.0,0.0,0.0,0.0,0.0,0.0,0.0,0.0,0.0,0.0,0.0,0.0,0.0,0.0,0.0,0.0,0.0,0.0,0.0,0.0,0.0,0.0,0.0,0.0,0.0,-4.8048,-4.8048,-4.8048,-4.8048,-4.8471,-4.9317,-5.0173,-5.0635,-5.0673,-5.0673,-5.0673,-5.0712,-5.0712,-5.0712,-5.0712,-5.0712,-5.0712,-5.0712,-5.0712,-5.0712,-5.0712,-5.0712,-5.0712,-5.0712,-5.0712,-5.0712,-5.0904,-5.2587,-5.3203,-5.3433,-5.5126,-5.5703,-5.5703,-5.5703,-5.5703,-5.5703,-5.5703,-5.5703,-5.5703,-5.5703,-5.5703,-5.5703,-5.5703,-5.5703,-5.5724,-5.5776,-5.5866,-5.5929,-5.6064,-5.6251,-5.6394,-5.6499,-5.6558,-5.6601,-5.6601,-5.6601,-5.6601,-5.6601,-5.6601,-5.6601,-5.6601,-5.6601,-5.6601,-5.6601,-5.6601,-5.6601,-5.6601,-5.6601,-5.6601,-5.6601,-5.6601,-5.6601,-5.6601,-5.6601,-5.6172,-5.5312,-5.5312,-5.4453,-5.2695,-5.1836,-5.1445,-5.1406,-5.1406,-5.1406,-2.1739,0.0,0.0,0.0,0.0,0.0,0.0,0.0,0.0,0.0,0.0,0.0,0.0,0.0,0.0,0.0,0.0,0.0,0.0,0.0,0.0,0.0,0.0,0.0,0.0,0.0,0.0,0.0,-4.6278,-4.6278,-4.6278,-4.6894,-4.7355,-4.7586,-4.8394,-4.9125,-4.974,-4.974,-5.0087,-5.0712,-5.0712,-5.0712,-5.0712,-5.0712,-5.0712,-5.0712,-5.0712,-5.0712,-5.0712,-5.0712,-5.0712,-5.0712,-5.0712,-5.0712,-5.0904,-5.2587,-5.3203,-5.3433,-5.5126,-5.5703,-5.5703,-5.5703,-5.5703,-5.5703,-5.5703,-5.5703,-5.5703,-5.5703,-5.5703,-5.5703,-5.5703,-5.5703,-5.5714,-5.5724,-5.5756,-5.5807,-5.5932,-5.5994,-5.6113,-5.6365,-5.6501,-5.6598,-5.66,-5.6601,-5.6601,-5.6601,-5.6601,-5.6601,-5.6601,-5.6601,-5.6601,-5.6601,-5.6601,-5.6601,-5.6601,-5.6601,-5.6601,-5.6601,-5.6601,-5.6601,-5.6601,-5.6601,-5.6172,-5.5312,-5.5312,-5.4453,-5.2695,-5.2461,-5.2031,-5.1406,-5.1406,-5.1406,-2.1812,0.0,0.0,0.0,0.0,0.0,0.0,-2.9329,0.0,0.0,0.0,0.0,0.0,0.0,0.0,0.0,0.0,0.0,0.0,0.0,0.0,0.0,0.0,0.0,0.0,-4.5371,-4.5457,-4.5586,-4.5594,-4.5594,-4.5594,-4.6432,-4.6885,-4.6885,-4.7702,-4.8355,-4.8856,-4.9202,-4.9663,-5.0164,-5.0519,-5.0712,-5.0712,-5.0712,-5.0712,-5.0712,-5.0712,-5.0712,-5.0712,-5.0712,-5.0712,-5.0712,-5.0712,-5.0712,-5.0866,-5.2164,-5.2654,-5.2895,-5.4626,-5.5203,-5.5241,-5.5588,-5.5703,-5.5703,-5.5703,-5.5703,-5.5703,-5.5703,-5.5703,-5.5703,-5.5703,-5.5703,-5.5703,-5.5703,-5.5703,-5.5735,-5.5827,-5.5902,-5.5963,-5.6266,-5.6419,-5.6543,-5.6554,-5.6561,-5.6601,-5.6601,-5.6601,-5.6601,-5.6601,-5.6601,-5.6601,-5.6601,-5.6601,-5.6601,-5.6601,-5.6601,-5.6601,-5.6601,-5.6601,-5.6601,-5.6601,-5.6601,-5.6367,-5.5859,-5.5859,-5.4961,-5.3242,-5.2891,-5.2266,-5.1406,-5.1406,-5.1406,-2.2326,-2.2216,0.0,0.0,0.0,0.0,-2.497,-2.753,0.0,0.0,0.0,0.0,0.0,0.0,0.0,0.0,0.0,0.0,0.0,0.0,0.0,0.0,0.0,0.0,-4.4756,-4.5,-4.5208,-4.5396,-4.553,-4.5577,-4.5586,-4.6317,-4.6778,-4.6778,-4.7471,-4.7855,-4.7971,-4.874,-4.9202,-4.9394,-5.0212,-5.0596,-5.0712,-5.0712,-5.0712,-5.0712,-5.0712,-5.0712,-5.0712,-5.0712,-5.0712,-5.0712,-5.0712,-5.0712,-5.0789,-5.1587,-5.1885,-5.2154,-5.3895,-5.4511,-5.4626,-5.5434,-5.5703,-5.5703,-5.5703,-5.5703,-5.5703,-5.5703,-5.5703,-5.5703,-5.5703,-5.5703,-5.5703,-5.5703,-5.5703,-5.5724,-5.5776,-5.5856,-5.5956,-5.611,-5.6294,-5.6428,-5.6493,-5.6556,-5.6601,-5.6601,-5.6601,-5.6601,-5.6601,-5.6601,-5.6601,-5.6601,-5.6601,-5.6601,-5.6601,-5.6601,-5.6601,-5.6601,-5.6601,-5.6601,-5.6601,-5.6601,-5.6601,-5.6601,-5.6406,-5.5547,-5.3984,-5.3047,-5.2148,-5.1406,-5.1406,-5.1406,-2.5658,-2.4704,-2.3712,-2.3712,0.0,0.0,-2.341,-2.5474,0.0,0.0,0.0,0.0,0.0,0.0,0.0,0.0,0.0,0.0,0.0,0.0,0.0,0.0,0.0,0.0,-4.2818,-4.3551,-4.4102,-4.4306,-4.5007,-4.5457,-4.5532,-4.5722,-4.5855,-4.5855,-4.6018,-4.6432,-4.7115,-4.7317,-4.8048,-4.9394,-4.9586,-5.001,-5.0712,-5.0712,-5.0712,-5.0712,-5.0712,-5.0712,-5.0712,-5.0712,-5.0712,-5.0712,-5.0712,-5.0712,-5.0789,-5.1587,-5.1885,-5.2154,-5.3895,-5.4511,-5.4626,-5.5434,-5.5703,-5.5703,-5.5703,-5.5703,-5.5703,-5.5703,-5.5703,-5.5703,-5.5703,-5.5703,-5.5703,-5.5703,-5.5703,-5.5714,-5.5724,-5.5735,-5.5758,-5.595,-5.6136,-5.6355,-5.6397,-5.648,-5.6502,-5.651,-5.6554,-5.6597,-5.66,-5.6601,-5.6601,-5.6601,-5.6601,-5.6601,-5.6601,-5.6601,-5.6601,-5.6601,-5.6601,-5.6601,-5.6601,-5.6601,-5.6601,-5.6601,-5.5234,-5.4336,-5.3984,-5.2422,-5.1562,-5.1406,-5.1406,-5.1406,-2.7813,-2.6906,-2.5805,-2.5007,0.0,0.0,0.0,0.0,-2.6109,0.0,0.0,0.0,0.0,0.0,0.0,0.0,0.0,0.0,0.0,0.0,0.0,0.0,0.0,0.0,-4.1918,-4.2486,-4.3085,-4.3743,-4.4722,-4.5283,-4.54,-4.5541,-4.5594,-4.5594,-4.5594,-4.5825,-4.624,-4.6701,-4.7317,-4.8163,-4.9009,-4.9625,-5.0048,-5.0519,-5.0712,-5.0712,-5.0712,-5.0712,-5.0712,-5.0712,-5.0712,-5.0712,-5.0712,-5.0712,-5.075,-5.1164,-5.1318,-5.1548,-5.328,-5.3857,-5.4049,-5.528,-5.5703,-5.5703,-5.5703,-5.5703,-5.5703,-5.5703,-5.5703,-5.5703,-5.5703,-5.5703,-5.5703,-5.5703,-5.5703,-5.5703,-5.5703,-5.5703,-5.5735,-5.5817,-5.6007,-5.6116,-5.622,-5.6299,-5.6351,-5.6416,-5.6443,-5.6502,-5.6553,-5.6561,-5.6601,-5.6601,-5.6601,-5.6601,-5.6601,-5.6601,-5.6601,-5.6601,-5.6601,-5.6601,-5.6601,-5.6601,-5.6601,-5.6601,-5.5312,-5.4648,-5.4648,-5.2891,-5.1836,-5.1406,-5.1406,-5.1406,0.0,0.0,0.0,0.0,0.0,-2.5007,0.0,0.0,0.0,-2.5154,0.0,0.0,0.0,0.0,0.0,0.0,0.0,0.0,0.0,0.0,0.0,0.0,0.0,0.0,0.0,-4.1207,-4.1857,-4.2972,-4.3867,-4.4505,-4.4954,-4.5189,-4.5349,-4.555,-4.5559,-4.5568,-4.5577,-4.6278,-4.674,-4.6923,-4.8432,-4.924,-4.9433,-5.0289,-5.0712,-5.0712,-5.0712,-5.0712,-5.0712,-5.0712,-5.0712,-5.0712,-5.0712,-5.0712,-5.0712,-5.0712,-5.0712,-5.0943,-5.2626,-5.3203,-5.3472,-5.5164,-5.5703,-5.5703,-5.5703,-5.5703,-5.5703,-5.5703,-5.5703,-5.5703,-5.5703,-5.5703,-5.5703,-5.5703,-5.5703,-5.5703,-5.5703,-5.5703,-5.5724,-5.5766,-5.5798,-5.5921,-5.6056,-5.6136,-5.622,-5.6276,-5.634,-5.6386,-5.6452,-5.6556,-5.6601,-5.6601,-5.6601,-5.6601,-5.6601,-5.6601,-5.6601,-5.6601,-5.6601,-5.6601,-5.6601,-5.6601,-5.6601,-5.6601,-5.5742,-5.5312,-5.5312,-5.3555,-5.2344,-5.1641,-5.1484,-5.1406,0.0,0.0,0.0,0.0,-2.6476,0.0,0.0,0.0,-2.4337,-2.4337,0.0,0.0,0.0,0.0,0.0,0.0,0.0,0.0,0.0,0.0,0.0,0.0,0.0,0.0,0.0,-3.9069,-4.0014,-4.1055,-4.1399,-4.2231,-4.3813,-4.4052,-4.4546,-4.539,-4.5438,-4.5448,-4.5532,-4.5683,-4.6124,-4.6923,-4.7817,-4.8663,-4.9433,-5.0289,-5.0712,-5.0712,-5.0712,-5.0712,-5.0712,-5.0712,-5.0712,-5.0712,-5.0712,-5.0712,-5.0712,-5.0712,-5.0712,-5.0943,-5.2626,-5.3203,-5.3472,-5.5164,-5.5703,-5.5703,-5.5703,-5.5703,-5.5703,-5.5703,-5.5703,-5.5703,-5.5703,-5.5703,-5.5703,-5.5703,-5.5703,-5.5703,-5.5703,-5.5703,-5.5714,-5.5714,-5.5724,-5.5768,-5.5965,-5.6071,-5.6114,-5.6188,-5.628,-5.6351,-5.6407,-5.6538,-5.6596,-5.6599,-5.6601,-5.6601,-5.6601,-5.6601,-5.6601,-5.6601,-5.6601,-5.6601,-5.6601,-5.6601,-5.6601,-5.6601,-5.5742,-5.5312,-5.5312,-5.3555,-5.2656,-5.2539,-5.1758,-5.1406,0.0,0.0,0.0,0.0,0.0,0.0,-2.4483,0.0,-2.4897,0.0,0.0,0.0,0.0,0.0,0.0,0.0,0.0,0.0,0.0,0.0,0.0,0.0,0.0,0.0,0.0,0.0,0.0,0.0,-3.8927,-4.0302,-4.2549,-4.3261,-4.4034,-4.5026,-4.5159,-4.5263,-4.539,-4.5541,-4.5787,-4.6163,-4.7471,-4.8279,-4.8702,-5.0048,-5.0712,-5.0712,-5.0712,-5.0712,-5.0712,-5.0712,-5.0712,-5.0712,-5.0712,-5.0712,-5.0712,-5.0712,-5.0712,-5.0943,-5.2626,-5.3203,-5.3472,-5.5164,-5.5703,-5.5703,-5.5703,-5.5703,-5.5703,-5.5703,-5.5703,-5.5703,-5.5703,-5.5703,-5.5703,-5.5703,-5.5703,-5.5703,-5.5703,-5.5703,-5.5703,-5.5703,-5.5703,-5.5735,-5.5827,-5.5837,-5.5902,-5.5999,-5.6039,-5.6116,-5.6261,-5.641,-5.6499,-5.6551,-5.6561,-5.6601,-5.6601,-5.6601,-5.6601,-5.6601,-5.6601,-5.6601,-5.6601,-5.6601,-5.6601,-5.6601,-5.625,-5.6055,-5.6055,-5.4805,-5.4219,-5.4141,-5.2266,-5.1406,-3.5114,0.0,0.0,0.0,0.0,0.0,0.0,0.0,0.0,0.0,0.0,0.0,0.0,0.0,0.0,0.0,0.0,0.0,0.0,0.0,0.0,0.0,0.0,0.0,0.0,0.0,0.0,0.0,0.0,-3.7816,-4.0648,-4.1906,-4.3102,-4.431,-4.477,-4.5071,-4.5229,-4.5438,-4.5523,-4.5571,-4.7002,-4.7857,-4.8145,-4.9663,-5.0481,-5.0712,-5.0712,-5.0712,-5.0712,-5.0712,-5.0712,-5.0712,-5.0712,-5.0712,-5.0712,-5.0712,-5.0712,-5.0943,-5.2626,-5.351,-5.4087,-5.528,-5.5703,-5.5703,-5.5703,-5.5703,-5.5703,-5.5703,-5.5703,-5.5703,-5.5703,-5.5703,-5.5703,-5.5703,-5.5703,-5.5703,-5.5703,-5.5703,-5.5703,-5.5703,-5.5703,-5.5703,-5.5703,-5.5703,-5.5745,-5.5875,-5.5882,-5.5978,-5.6168,-5.629,-5.6416,-5.6484,-5.6511,-5.656,-5.6561,-5.6601,-5.6601,-5.6601,-5.6601,-5.6601,-5.6601,-5.6601,-5.6601,-5.6601,-5.6601,-5.6601,-5.6601,-5.5742,-5.5312,-5.5234,-5.2851,-5.1758,0.0,0.0,0.0,-2.961,0.0,0.0,0.0,0.0,-2.5411,0.0,0.0,0.0,0.0,0.0,0.0,0.0,0.0,0.0,0.0,0.0,0.0,0.0,0.0,0.0,0.0,0.0,0.0,0.0,-3.2994,0.0,-3.7849,-3.9733,-4.1461,-4.3222,-4.4196,-4.4814,-4.5022,-4.5203,-4.5319,-4.5418,-4.6301,-4.7232,-4.8135,-4.9029,-4.9894,-5.0712,-5.0712,-5.0712,-5.0712,-5.0712,-5.0712,-5.0712,-5.0712,-5.0712,-5.0712,-5.0712,-5.0712,-5.0943,-5.2626,-5.4241,-5.5626,-5.5665,-5.5703,-5.5703,-5.5703,-5.5703,-5.5703,-5.5703,-5.5703,-5.5703,-5.5703,-5.5703,-5.5703,-5.5703,-5.5703,-5.5703,-5.5703,-5.5703,-5.5703,-5.5703,-5.5703,-5.5703,-5.5703,-5.5703,-5.5724,-5.5787,-5.5837,-5.5956,-5.6087,-5.623,-5.6333,-5.6414,-5.6467,-5.6495,-5.6504,-5.655,-5.6597,-5.6601,-5.6601,-5.6601,-5.6601,-5.6601,-5.6601,-5.6601,-5.6601,-5.6601,-5.6601,-5.5742,-5.5312,-5.5273,-5.3476,-5.2656,0.0,0.0,-3.3757,-3.1849,0.0,0.0,0.0,0.0,0.0,0.0,0.0,0.0,0.0,0.0,0.0,0.0,0.0,0.0,0.0,0.0,0.0,0.0,0.0,0.0,0.0,0.0,0.0,0.0,-3.0293,0.0,-3.5772,-3.7599,-3.9585,-4.1883,-4.2898,-4.3792,-4.453,-4.4752,-4.4898,-4.5004,-4.5988,-4.6679,-4.7154,-4.8693,-4.9548,-4.9856,-5.0442,-5.0712,-5.0712,-5.0712,-5.0712,-5.0712,-5.0712,-5.0712,-5.0712,-5.0712,-5.0712,-5.0943,-5.2626,-5.4318,-5.5703,-5.5703,-5.5703,-5.5703,-5.5703,-5.5703,-5.5703,-5.5703,-5.5703,-5.5703,-5.5703,-5.5703,-5.5703,-5.5703,-5.5703,-5.5703,-5.5703,-5.5703,-5.5703,-5.5703,-5.5703,-5.5703,-5.5703,-5.5703,-5.5714,-5.5735,-5.5766,-5.5837,-5.5959,-5.5994,-5.6071,-5.6179,-5.6266,-5.6324,-5.6358,-5.6487,-5.6555,-5.6601,-5.6601,-5.6601,-5.6601,-5.6601,-5.6601,-5.6601,-5.6601,-5.6601,-5.6601,-5.6289,-5.6172,-5.6133,-5.4375,-5.3242,-3.9276,-3.7771,0.0,-3.4321,-3.3073,0.0,-2.9182,0.0,0.0,0.0,0.0,0.0,0.0,0.0,0.0,0.0,0.0,0.0,0.0,0.0,0.0,0.0,0.0,0.0,0.0,0.0,-2.6722,-2.8033,-2.8143,0.0,0.0,0.0,-3.7919,-4.0745,-4.2084,-4.3215,-4.4192,-4.4355,-4.4519,-4.4663,-4.5392,-4.6165,-4.6948,-4.8255,-4.9181,-4.9805,-5.0374,-5.0624,-5.0682,-5.0702,-5.0712,-5.0712,-5.0712,-5.0712,-5.0712,-5.0712,-5.1097,-5.1741,-5.2818,-5.4318,-5.5703,-5.5703,-5.5703,-5.5703,-5.5703,-5.5703,-5.5703,-5.5703,-5.5703,-5.5703,-5.5703,-5.5703,-5.5703,-5.5703,-5.5703,-5.5703,-5.5703,-5.5703,-5.5703,-5.5703,-5.5703,-5.5703,-5.5703,-5.5703,-5.5703,-5.5703,-5.5703,-5.5745,-5.5837,-5.5873,-5.5938,-5.6048,-5.611,-5.6203,-5.629,-5.641,-5.6495,-5.6557,-5.6558,-5.6558,-5.6558,-5.6558,-5.6558,-5.6558,-5.6558,-5.6558,-5.6558,-5.6558,-5.6558,-5.6519,-5.4802,-5.3709]},{"header":{"parameterUnit":"m.s-1","parameterCategory":1,"la1":30.6,"la2":29.2853,"lo1":-89.7004,"lo2":-87.6739,"dy":0.0162,"dx":0.0183,"nx":112,"ny":82,"refTime":"2026-04-14T12:00:00:Z","depth":0,"parameterNumber":3,"parameterNumberName":"V-component_of_WINDS"},"data":[0.0,0.0,0.0,0.0,0.0,0.0,0.0,0.0,0.0,0.0,0.0,0.0,0.0,0.0,0.0,0.0,0.0,0.0,0.0,0.0,0.0,0.0,0.0,0.0,0.0,0.0,0.0,0.0,0.0,0.0,0.0,0.0,0.0,0.0,0.0,0.0,0.0,0.0,0.0,0.0,0.0,0.0,0.0,0.0,0.0,0.0,0.0,0.0,0.0,0.0,0.0,0.0,0.0,0.0,0.0,0.0,0.0,0.0,0.0,0.0,0.0,0.0,0.0,0.0,0.0,0.0,0.0,0.0,0.0,0.0,0.0,0.0,0.0,0.0,0.0,0.0,0.0,0.0,0.0,0.0,0.0,0.0,0.0,0.0,0.0,0.0,0.0,0.0,0.0,0.0,0.0,-0.5446,-0.6054,-0.6218,-0.5732,-0.5304,-0.4827,-0.4328,0.0,0.0,0.0,0.0,0.0,0.0,0.0,0.0,0.0,0.0,0.0,0.0,0.0,0.0,0.0,0.0,0.0,0.0,0.0,0.0,0.0,0.0,0.0,0.0,0.0,0.0,0.0,0.0,0.0,0.0,0.0,0.0,0.0,0.0,0.0,0.0,0.0,0.0,0.0,0.0,0.0,0.0,0.0,0.0,0.0,0.0,0.0,0.0,0.0,0.0,0.0,0.0,0.0,0.0,0.0,0.0,0.0,0.0,0.0,0.0,0.0,0.0,0.0,0.0,0.0,0.0,0.0,0.0,0.0,0.0,0.0,0.0,0.0,0.0,0.0,0.0,0.0,0.0,0.0,0.0,0.0,0.0,0.0,0.0,0.0,0.0,0.0,0.0,0.0,0.0,0.0,0.0,0.0,0.0,0.0,0.0,0.0,0.0,0.0,0.0,0.0,0.0,0.0,0.0,-0.5013,-0.6054,-0.6546,-0.6647,-0.6238,-0.5854,-0.5426,-0.4827,0.0,0.0,0.0,0.0,0.0,0.0,0.0,0.0,0.0,0.0,0.0,0.0,0.0,0.0,0.0,0.0,0.0,0.0,0.0,0.0,0.0,0.0,0.0,0.0,0.0,0.0,0.0,0.0,0.0,0.0,0.0,0.0,0.0,0.0,0.0,0.0,0.0,0.0,0.0,0.0,0.0,0.0,0.0,0.0,0.0,0.0,0.0,0.0,0.0,0.0,0.0,0.0,0.0,0.0,0.0,0.0,0.0,0.0,0.0,0.0,0.0,0.0,0.0,0.0,0.0,0.0,0.0,0.0,0.0,0.0,0.0,0.0,0.0,0.0,0.0,0.0,0.0,0.0,0.0,0.0,0.0,0.0,0.0,0.0,0.0,0.0,0.0,0.0,0.0,0.0,0.0,0.0,0.0,0.0,0.0,0.0,0.0,0.0,0.0,0.0,0.0,0.0,0.0,-0.4881,-0.5637,-0.6238,-0.6661,-0.6674,-0.6179,-0.5861,-0.5393,-0.4714,-0.3945,0.0,0.0,0.0,0.0,0.0,0.0,0.0,0.0,0.0,0.0,0.0,0.0,0.0,0.0,0.0,0.0,0.0,0.0,0.0,0.0,0.0,0.0,0.0,0.0,0.0,0.0,0.0,0.0,0.0,0.0,0.0,0.0,0.0,0.0,0.0,0.0,0.0,0.0,0.0,0.0,0.0,0.0,0.0,0.0,0.0,0.0,0.0,0.0,0.0,0.0,0.0,0.0,0.0,0.0,0.0,0.0,0.0,0.0,0.0,0.0,0.0,0.0,0.0,0.0,0.0,0.0,0.0,0.0,0.0,0.0,0.0,0.0,0.0,0.0,0.0,0.0,0.0,0.0,0.0,0.0,0.0,0.0,0.0,0.0,0.0,0.0,0.0,0.0,0.0,0.0,0.0,0.0,0.0,0.0,0.0,0.0,0.0,0.0,0.0,0.0,0.0,0.0,-0.5644,-0.6152,-0.6381,-0.6736,-0.6707,-0.6179,-0.5827,-0.5332,-0.4641,-0.3972,0.0,0.0,0.0,0.0,0.0,0.0,0.0,0.0,0.0,0.0,0.0,0.0,0.0,0.0,0.0,0.0,0.0,0.0,0.0,0.0,0.0,0.0,0.0,0.0,0.0,0.0,0.0,0.0,0.0,0.0,0.0,0.0,0.0,0.0,0.0,0.0,0.0,0.0,0.0,0.0,0.0,0.0,0.0,0.0,0.0,0.0,0.0,0.0,0.0,0.0,0.0,0.0,0.0,0.0,0.0,0.0,0.0,0.0,0.0,0.0,0.0,0.0,0.0,0.0,0.0,0.0,0.0,0.0,0.0,0.0,0.0,0.0,0.0,0.0,0.0,0.0,0.0,0.0,0.0,0.0,0.0,0.0,0.0,0.0,0.0,0.0,0.0,0.0,0.0,0.0,0.0,0.0,0.0,0.0,0.0,0.0,0.0,0.0,0.0,0.0,0.0,0.0,-0.5904,-0.6395,-0.6641,-0.6903,-0.6896,-0.6478,-0.6037,-0.5528,-0.4925,-0.4063,0.0,0.0,0.0,0.0,0.0,0.0,0.0,0.0,0.0,0.0,0.0,0.0,0.0,0.0,0.0,0.0,0.0,0.0,0.0,0.0,0.0,0.0,0.0,0.0,0.0,0.0,0.0,0.0,0.0,0.0,0.0,0.0,0.0,0.0,0.0,0.0,0.0,0.0,0.0,0.0,0.0,0.0,0.0,0.0,0.0,0.0,0.0,0.0,0.0,0.0,0.0,0.0,0.0,0.0,0.0,0.0,0.0,0.0,0.0,0.0,0.0,0.0,0.0,0.0,0.0,0.0,0.0,0.0,0.0,0.0,0.0,0.0,0.0,0.0,0.0,0.0,0.0,0.0,0.0,0.0,0.0,0.0,0.0,0.0,0.0,0.0,0.0,0.0,0.0,0.0,0.0,0.0,0.0,0.0,0.0,0.0,0.0,0.0,0.0,0.0,0.0,0.0,-0.5924,-0.6416,0.0,-0.6923,-0.6926,-0.6422,-0.601,-0.5467,-0.4709,0.0,0.0,0.0,0.0,0.0,0.0,0.0,0.0,0.0,0.0,0.0,0.0,0.0,0.0,0.0,0.0,0.0,0.0,0.0,0.0,0.0,0.0,0.0,0.0,0.0,0.0,0.0,0.0,0.0,0.0,0.0,0.0,0.0,0.0,0.0,0.0,0.0,0.0,0.0,0.0,0.0,0.0,0.0,0.0,0.0,0.0,0.0,0.0,0.0,0.0,0.0,0.0,0.0,0.0,0.0,0.0,0.0,0.0,0.0,0.0,0.0,0.0,0.0,0.0,0.0,0.0,0.0,0.0,0.0,0.0,0.0,0.0,0.0,0.0,0.0,0.0,0.0,0.0,0.0,0.0,0.0,0.0,0.0,0.0,0.0,0.0,0.0,0.0,0.0,0.0,0.0,0.0,0.0,0.0,0.0,0.0,0.0,0.0,0.0,0.0,0.0,0.0,-0.5182,-0.5931,-0.6463,0.0,-0.6923,-0.6898,-0.6354,-0.5935,-0.5372,-0.4545,0.0,0.0,0.0,0.0,0.0,0.0,0.0,0.0,0.0,0.0,0.0,0.0,0.0,0.0,0.0,0.0,0.0,0.0,0.0,0.0,0.0,0.0,0.0,0.0,0.0,0.0,0.0,0.0,0.0,0.0,0.0,0.0,0.0,0.0,0.0,0.0,0.0,0.0,0.0,0.0,0.0,0.0,0.0,0.0,0.0,0.0,0.0,0.0,0.0,0.0,0.0,0.0,0.0,0.0,0.0,0.0,0.0,0.0,0.0,0.0,0.0,0.0,0.0,0.0,0.0,0.0,0.0,0.0,0.0,0.0,0.0,0.0,0.0,0.0,0.0,0.0,0.0,0.0,0.0,0.0,0.0,0.0,0.0,0.0,0.0,0.0,0.0,0.0,0.0,0.0,0.0,0.0,0.0,0.0,0.0,0.0,0.0,0.0,0.0,0.0,0.0,0.0,-0.5002,-0.5915,-0.6566,-0.6681,-0.6916,-0.6898,-0.6347,-0.5883,-0.5303,0.0,0.0,0.0,0.0,0.0,0.0,0.0,0.0,0.0,0.0,0.0,0.0,0.0,0.0,0.0,0.0,0.0,0.0,0.0,0.0,0.0,0.0,0.0,0.0,0.0,0.0,0.0,0.0,0.0,0.0,0.0,0.0,0.0,0.0,0.0,0.0,0.0,0.0,0.0,0.0,0.0,0.0,0.0,0.0,0.0,0.0,0.0,0.0,0.0,0.0,0.0,0.0,0.0,0.0,0.0,0.0,0.0,0.0,0.0,0.0,0.0,0.0,0.0,0.0,0.0,0.0,0.0,0.0,0.0,0.0,0.0,0.0,0.0,0.0,0.0,0.0,0.0,0.0,0.0,0.0,0.0,0.0,0.0,0.0,0.0,0.0,0.0,0.0,0.0,0.0,0.0,0.0,0.0,0.0,0.0,0.0,0.0,0.0,0.0,0.0,0.0,0.0,0.0,-0.5002,-0.5827,-0.6416,-0.6566,-0.6715,-0.6634,-0.6139,-0.5786,-0.5303,-0.4539,0.0,0.0,0.0,0.0,0.0,0.0,0.0,0.0,0.0,0.0,0.0,0.0,0.0,0.0,0.0,0.0,0.0,0.0,0.0,0.0,0.0,0.0,0.0,0.0,0.0,0.0,0.0,0.0,0.0,0.0,0.0,0.0,0.0,0.0,0.0,0.0,0.0,0.0,0.0,0.0,0.0,0.0,0.0,0.0,0.0,0.0,0.0,0.0,0.0,0.0,0.0,0.0,0.0,0.0,0.0,0.0,0.0,0.0,0.0,0.0,0.0,0.0,0.0,0.0,0.0,0.0,0.0,0.0,0.0,0.0,0.0,0.0,0.0,0.0,0.0,0.0,0.0,0.0,0.0,0.0,0.0,0.0,0.0,0.0,0.0,0.0,0.0,0.0,0.0,0.0,0.0,0.0,0.0,0.0,0.0,0.0,0.0,0.0,0.0,0.0,0.0,0.0,-0.4928,-0.5806,-0.6416,-0.6504,-0.6607,-0.6519,-0.6033,-0.5759,-0.5303,-0.4539,0.0,0.0,0.0,0.0,0.0,0.0,0.0,0.0,0.0,0.0,0.0,0.0,0.0,0.0,0.0,0.0,0.0,0.0,0.0,0.0,0.0,0.0,0.0,0.0,0.0,0.0,0.0,0.0,0.0,0.0,0.0,0.0,0.0,0.0,0.0,0.0,0.0,0.0,0.0,0.0,0.0,0.0,0.0,0.0,0.0,0.0,0.0,0.0,0.0,0.0,0.0,0.0,0.0,0.0,0.0,0.0,0.0,0.0,0.0,0.0,0.0,0.0,0.0,0.0,0.0,0.0,0.0,0.0,0.0,0.0,0.0,0.0,0.0,0.0,0.0,0.0,0.0,0.0,0.0,0.0,0.0,0.0,0.0,0.0,0.0,0.0,0.0,0.0,0.0,0.0,0.0,0.0,0.0,0.0,0.0,0.0,0.0,0.0,0.0,0.0,0.0,0.0,-0.4833,-0.5827,-0.6491,-0.6491,-0.658,-0.6485,-0.6006,-0.5752,-0.5303,-0.4559,0.0,0.0,0.0,0.0,0.0,0.0,0.0,0.0,0.0,0.0,0.0,0.0,0.0,0.0,0.0,0.0,0.0,0.0,0.0,0.0,0.0,0.0,0.0,0.0,0.0,0.0,0.0,0.0,0.0,0.0,0.0,0.0,0.0,0.0,0.0,0.0,0.0,0.0,0.0,0.0,0.0,0.0,0.0,0.0,0.0,0.0,0.0,0.0,0.0,0.0,0.0,0.0,0.0,0.0,0.0,0.0,0.0,0.0,0.0,0.0,-0.0714,0.0,0.0,0.0,0.0,0.0,0.0,0.0,0.0,0.0,0.0,0.0,0.0,0.0,0.0,0.0,0.0,0.0,0.0,0.0,0.0,0.0,0.0,0.0,0.0,0.0,0.0,0.0,0.0,0.0,0.0,0.0,0.0,0.0,0.0,0.0,0.0,0.0,0.0,0.0,0.0,0.0,-0.4975,-0.58,-0.6347,-0.6347,-0.6375,-0.6259,-0.5881,-0.5691,-0.5318,-0.4709,-0.4016,0.0,0.0,0.0,0.0,0.0,0.0,0.0,0.0,0.0,0.0,0.0,0.0,0.0,0.0,0.0,0.0,0.0,0.0,0.0,0.0,0.0,0.0,0.0,0.0,0.0,0.0,0.0,0.0,0.0,0.0,0.0,0.0,0.0,0.0,0.0,0.0,0.0,0.0,0.0,0.0,0.0,0.0,0.0,0.0,0.0,0.0,0.0,0.0,0.0,0.0,0.0,0.0,0.0,0.0,0.0,0.0,0.0,0.0,0.0,0.0,-0.0932,0.0,0.0,0.0,0.0,0.0,0.0,0.0,0.0,0.0,0.0,0.0,0.0,0.0,0.0,0.0,0.0,0.0,0.0,0.0,0.0,0.0,0.0,0.0,0.0,0.0,0.0,0.0,0.0,0.0,0.0,0.0,0.0,0.0,0.0,0.0,0.0,0.0,0.0,0.0,0.0,-0.5015,-0.5725,-0.6179,-0.6293,-0.63,-0.6204,-0.5928,-0.5711,-0.5393,-0.4931,-0.4273,0.0,0.0,0.0,0.0,0.0,0.0,0.0,0.0,0.0,0.0,0.0,0.0,0.0,0.0,0.0,0.0,0.0,0.0,0.0,0.0,0.0,0.0,0.0,0.0,0.0,0.0,0.0,0.0,0.0,0.0,0.0,0.0,0.0,0.0,0.0,0.0,0.0,0.0,0.0,0.0,0.0,0.0,0.0,0.0,0.0,0.0,0.0,0.0,0.0,0.0,0.0,0.0,0.0,0.0,0.0,0.0,0.0,0.0,0.0,-0.0409,-0.0644,-0.0759,-0.0928,0.0,0.0,0.0,0.0,0.0,0.0,0.0,0.0,0.0,0.0,0.0,0.0,0.0,0.0,0.0,0.0,0.0,0.0,0.0,0.0,0.0,0.0,0.0,0.0,-0.542,-0.517,-0.4705,0.0,0.0,0.0,0.0,0.0,0.0,0.0,0.0,0.0,0.0,0.0,-0.509,-0.5676,-0.6118,-0.6286,-0.63,-0.6238,-0.6006,-0.5779,-0.5494,-0.5157,-0.4517,-0.4058,0.0,0.0,0.0,0.0,0.0,0.0,0.0,0.0,0.0,0.0,0.0,0.0,0.0,0.0,0.0,0.0,0.0,0.0,0.0,0.0,0.0,0.0,0.0,0.0,0.0,0.0,0.0,0.0,0.0,0.0,0.0,0.0,0.0,0.0,0.0,0.0,0.0,0.0,0.0,0.0,0.0,0.0,0.0,0.0,0.0,0.0,0.0,0.0,0.0,0.0,0.0,0.0,0.0,0.0,0.0,0.0,0.0,0.0,-0.0049,0.0,-0.0123,-0.016,0.0,0.0,0.0,0.0,0.0,0.0,0.0,0.0,0.0,0.0,0.0,0.0,0.0,0.0,0.0,0.0,0.0,0.0,0.0,0.0,0.0,0.0,-0.5976,-0.6149,-0.6163,-0.6163,0.0,-0.5562,-0.4941,-0.48,-0.4538,0.0,0.0,0.0,0.0,0.0,0.0,0.0,-0.5447,-0.5979,-0.6279,-0.63,-0.63,-0.6238,-0.6006,-0.5874,-0.5644,-0.5385,-0.4999,-0.4584,-0.4153,-0.386,0.0,0.0,0.0,0.0,0.0,0.0,0.0,0.0,0.0,0.0,0.0,0.0,0.0,0.0,0.0,0.0,0.0,0.0,0.0,0.0,0.0,0.0,0.0,0.0,0.0,0.0,0.0,0.0,0.0,0.0,0.0,0.0,0.0,0.0,0.0,0.0,0.0,0.0,0.0,0.0,0.0,0.0,0.0,0.0,0.0,0.0,0.0,0.0,0.0,0.0,0.0,0.0,0.0,0.0,0.0,0.0,0.0,0.0,0.0,0.0,0.0,0.0,0.0,0.0,0.0,0.0,-0.2217,-0.3016,-0.4039,-0.4665,-0.5054,-0.5261,0.0,0.0,0.0,0.0,0.0,0.0,0.0,0.0,0.0,0.0,-0.6492,-0.6512,-0.6573,-0.6627,-0.6607,-0.6288,-0.5922,0.0,-0.523,-0.4873,-0.4463,0.0,0.0,0.0,0.0,-0.4911,-0.5515,-0.5908,-0.6166,-0.6293,-0.63,-0.6272,-0.6166,-0.5942,-0.5745,-0.5616,-0.525,-0.4881,-0.4611,-0.4227,-0.3782,0.0,0.0,0.0,0.0,0.0,0.0,0.0,0.0,0.0,0.0,0.0,0.0,0.0,0.0,0.0,0.0,0.0,0.0,0.0,0.0,0.0,0.0,0.0,0.0,0.0,0.0,0.0,0.0,0.0,0.0,0.0,0.0,0.0,0.0,0.0,0.0,0.0,0.0,0.0,0.0,0.0,0.0,0.0,0.0,0.0,0.0,0.0,0.0,0.0,0.0,0.0,0.0,0.0,0.0,0.0,0.0,0.0,0.0,0.0,0.0,0.0,0.0,-0.0246,-0.0687,-0.1439,-0.2157,-0.2893,-0.3787,-0.4524,-0.5043,-0.5424,-0.5816,-0.6087,-0.577,0.0,0.0,0.0,0.0,-0.6098,-0.6403,-0.6763,-0.7021,-0.6946,-0.6987,-0.7014,-0.6898,-0.681,-0.6634,0.0,-0.5847,-0.5494,-0.5047,0.0,0.0,0.0,0.0,-0.5067,-0.563,-0.5928,-0.6132,-0.6286,-0.63,-0.63,-0.63,-0.5976,-0.58,-0.58,-0.542,-0.5108,-0.4894,-0.453,-0.4105,-0.3665,0.0,0.0,0.0,0.0,0.0,0.0,0.0,0.0,0.0,0.0,0.0,0.0,0.0,0.0,0.0,0.0,0.0,0.0,0.0,0.0,0.0,0.0,0.0,0.0,0.0,0.0,0.0,0.0,0.0,0.0,0.0,0.0,0.0,0.0,0.0,0.0,0.0,0.0,0.0,0.0,0.0,0.0,0.0,0.0,0.0,0.0,0.0,0.0,0.0,0.0,0.0,0.0,0.0,0.0,0.0,0.0,0.0,0.0,0.0,0.0,0.0,-0.0236,-0.0708,-0.1509,-0.2051,-0.2525,-0.3367,-0.3992,-0.4562,-0.5321,-0.6156,-0.6795,-0.6512,-0.6354,0.0,0.0,-0.6532,-0.6722,-0.6977,-0.7224,-0.7387,-0.7522,-0.7448,-0.7392,-0.7385,-0.7115,-0.6824,0.0,-0.6361,-0.6156,-0.58,0.0,-0.5143,-0.5488,-0.5446,-0.5528,-0.5912,-0.6146,-0.6293,-0.63,-0.63,-0.63,-0.63,-0.5976,-0.58,-0.58,-0.5549,-0.5255,-0.4901,-0.4755,-0.4389,-0.3792,-0.3458,0.0,0.0,0.0,0.0,0.0,0.0,0.0,0.0,0.0,0.0,0.0,0.0,0.0,0.0,0.0,0.0,0.0,0.0,0.0,0.0,0.0,0.0,0.0,0.0,0.0,0.0,0.0,0.0,0.0,0.0,0.0,0.0,0.0,0.0,0.0,0.0,0.0,0.0,0.0,0.0,0.0,0.0,0.0,0.0,0.0,0.0,0.0,0.0,0.0,0.0,0.0,0.0,0.0,0.0,0.0,0.0,0.0,0.0,0.0,0.0,-0.02,-0.0545,-0.1203,-0.1617,-0.1985,-0.2592,-0.3221,-0.3911,-0.5118,-0.6052,-0.67,-0.6775,-0.6817,-0.6858,-0.7007,-0.7132,-0.7177,-0.738,-0.7543,-0.7645,-0.7611,-0.7556,-0.7489,-0.7439,-0.721,-0.6991,-0.6926,-0.6709,-0.6478,-0.6268,-0.5942,-0.571,-0.5854,-0.5745,-0.5739,-0.5959,-0.6166,-0.63,-0.63,-0.63,-0.63,-0.63,-0.5976,-0.58,-0.58,-0.5433,-0.5169,-0.5029,-0.4823,-0.4573,-0.4252,-0.3832,-0.3459,0.0,0.0,0.0,0.0,0.0,0.0,0.0,0.0,0.0,0.0,0.0,0.0,0.0,0.0,0.0,0.0,0.0,0.0,0.0,0.0,0.0,0.0,0.0,0.0,0.0,0.0,0.0,0.0,0.0,0.0,0.0,0.0,0.0,0.0,0.0,0.0,0.0,0.0,0.0,0.0,0.0,0.0,0.0,0.0,0.0,0.0,0.0,0.0,0.0,0.0,0.0,0.0,0.0,0.0,0.0,0.0,0.0,0.0,0.0,-0.0108,-0.032,-0.0648,-0.0918,-0.1128,-0.1664,-0.2308,-0.3097,-0.4453,-0.5643,-0.6576,-0.6876,-0.7221,-0.7529,-0.7584,-0.7597,-0.7624,-0.7719,-0.7821,-0.7862,-0.7773,-0.7706,-0.7631,-0.7482,-0.7285,-0.7098,-0.7098,-0.6937,-0.6803,-0.6654,-0.6417,-0.624,-0.6186,-0.6051,-0.5996,-0.6091,-0.6238,-0.63,-0.63,-0.63,-0.63,-0.63,-0.5976,-0.58,-0.58,-0.5346,-0.5076,-0.5029,-0.4823,-0.4592,-0.4395,-0.3948,-0.3597,-0.329,0.0,0.0,0.0,0.0,0.0,0.0,0.0,0.0,0.0,0.0,0.0,0.0,0.0,0.0,0.0,0.0,0.0,0.0,0.0,0.0,0.0,0.0,0.0,0.0,0.0,0.0,0.0,0.0,0.0,0.0,0.0,0.0,0.0,0.0,0.0,0.0,0.0,0.0,0.0,0.0,0.0,0.0,0.0,0.0,0.0,0.0,0.0,0.0,0.0,0.0,0.0,0.0,0.0,0.0,0.0,0.0,0.0,0.0,0.0,0.0,0.0,0.0,-0.0057,-0.0609,-0.1311,-0.2176,-0.3316,-0.4827,-0.6338,-0.6746,-0.7545,-0.8235,-0.8035,-0.7988,-0.7982,-0.7988,-0.7988,-0.7982,-0.7988,-0.7923,-0.7773,-0.7631,-0.736,-0.7098,-0.7098,-0.7098,-0.7051,-0.6916,-0.681,-0.6654,-0.6552,-0.6402,0.0,-0.6306,-0.6306,-0.63,-0.63,-0.63,-0.63,-0.63,-0.5976,-0.58,-0.58,-0.5339,-0.5029,-0.4894,-0.4769,-0.4545,-0.42,-0.3819,-0.3439,-0.3114,0.0,0.0,0.0,0.0,0.0,0.0,0.0,0.0,0.0,0.0,0.0,0.0,0.0,0.0,0.0,0.0,0.0,0.0,0.0,0.0,0.0,0.0,0.0,0.0,0.0,0.0,0.0,0.0,0.0,0.0,0.0,0.0,0.0,0.0,0.0,0.0,0.0,0.0,0.0,0.0,0.0,0.0,0.0,0.0,0.0,0.0,0.0,0.0,0.0,0.0,0.0,0.0,0.0,0.0,0.0,0.0,0.0,0.0,0.0,0.0,0.0,0.0,-0.0057,-0.0393,-0.0884,-0.1583,-0.2496,-0.3865,-0.5189,-0.5822,-0.677,-0.7674,-0.7685,-0.7766,-0.7896,-0.7961,-0.7907,-0.7902,-0.7961,-0.7923,-0.7773,-0.7631,-0.7448,-0.7278,-0.7119,-0.7098,-0.7085,-0.7045,-0.6916,-0.6851,-0.681,-0.658,0.0,-0.6457,-0.6361,-0.63,-0.63,-0.63,-0.63,-0.63,-0.5976,-0.58,-0.58,-0.5284,-0.4928,-0.4887,-0.4667,-0.4436,-0.42,-0.3991,-0.3751,0.0,0.0,0.0,0.0,0.0,0.0,0.0,0.0,0.0,0.0,0.0,0.0,0.0,0.0,0.0,0.0,0.0,0.0,0.0,0.0,0.0,0.0,0.0,0.0,0.0,0.0,0.0,0.0,0.0,0.0,0.0,0.0,0.0,0.0,0.0,0.0,0.0,0.0,0.0,0.0,0.0,0.0,0.0,0.0,0.0,0.0,0.0,0.0,0.0,0.0,0.0,0.0,0.0,0.0,0.0,0.0,0.0,0.0,0.0,0.0,0.0,0.0,0.0,0.0,-0.0171,-0.045,-0.0837,-0.1605,-0.2629,-0.373,-0.4586,-0.5851,-0.6953,-0.7129,-0.7492,-0.7821,-0.7848,-0.7834,-0.7834,-0.7923,-0.7874,-0.7868,-0.7719,-0.757,-0.7421,-0.7265,-0.7139,0.0,-0.7098,-0.7024,-0.6957,-0.6896,-0.6776,-0.662,-0.6525,-0.6443,-0.6368,-0.6306,-0.63,-0.63,-0.63,-0.6037,0.0,0.0,0.0,-0.5047,-0.4894,-0.4748,0.0,0.0,0.0,0.0,0.0,0.0,0.0,0.0,-0.3473,-0.3512,0.0,0.0,0.0,0.0,0.0,0.0,0.0,0.0,0.0,0.0,0.0,0.0,0.0,0.0,0.0,0.0,0.0,0.0,0.0,0.0,0.0,0.0,0.0,0.0,0.0,0.0,0.0,0.0,0.0,0.0,0.0,0.0,0.0,0.0,0.0,0.0,0.0,0.0,0.0,0.0,0.0,0.0,0.0,0.0,0.0,0.0,0.0,0.0,0.0,0.0,0.0,0.0,0.0,0.0,0.0,0.0,0.0,0.0,0.0,0.0,0.0,-0.0676,-0.14,-0.2277,-0.3275,-0.4774,-0.6135,-0.6372,-0.6997,-0.7594,-0.7488,-0.7541,-0.7621,-0.7689,-0.7789,-0.7898,-0.7793,-0.7665,-0.7577,-0.7453,-0.7258,-0.7119,-0.7098,-0.7098,-0.7051,-0.693,-0.6896,-0.6831,-0.6559,-0.6532,-0.6463,-0.6334,0.0,0.0,-0.63,-0.6118,-0.5932,-0.5833,-0.5569,-0.5262,-0.4901,-0.4887,-0.4857,-0.4721,-0.4714,-0.4653,-0.4539,-0.4539,-0.4552,-0.4559,-0.4233,-0.4139,0.0,0.0,0.0,0.0,0.0,0.0,0.0,0.0,0.0,0.0,0.0,0.0,0.0,0.0,0.0,0.0,0.0,0.0,0.0,0.0,0.0,0.0,0.0,0.0,0.0,0.0,0.0,0.0,0.0,0.0,0.0,0.0,0.0,0.0,0.0,0.0,0.0,0.0,0.0,0.0,0.0,0.0,0.0,0.0,0.0,0.0,0.0,0.0,0.0,0.0,0.0,0.0,0.0,0.0,0.0,0.0,0.0,0.0,0.0,0.0,-0.0057,-0.0395,-0.0953,-0.1615,-0.2473,-0.3772,0.0,-0.5363,-0.5989,-0.6523,-0.6596,-0.6562,-0.6583,-0.6933,-0.7173,-0.7397,-0.7459,-0.7649,-0.7692,-0.7421,-0.7346,-0.7285,-0.7119,-0.7098,-0.7085,-0.7058,-0.6957,-0.6862,-0.6851,-0.6627,-0.6504,-0.647,-0.6368,-0.63,-0.63,-0.6118,-0.5979,-0.5952,-0.5596,-0.5262,-0.4901,-0.4887,-0.4874,-0.4877,-0.4877,-0.4863,-0.483,-0.483,-0.4891,-0.4961,-0.4701,-0.4579,0.0,0.0,0.0,0.0,0.0,0.0,0.0,0.0,0.0,0.0,0.0,0.0,0.0,0.0,0.0,0.0,0.0,0.0,0.0,0.0,0.0,0.0,0.0,0.0,0.0,0.0,0.0,0.0,0.0,0.0,0.0,0.0,0.0,0.0,0.0,0.0,0.0,0.0,0.0,0.0,0.0,0.0,0.0,0.0,0.0,0.0,0.0,0.0,0.0,0.0,0.0,0.0,0.0,0.0,0.0,0.0,0.0,0.0,0.0,0.0,0.0,-0.0172,-0.0398,-0.079,-0.1471,-0.2425,-0.3369,-0.3763,-0.4409,-0.5018,-0.5021,-0.5008,-0.5111,-0.5605,-0.6145,-0.6714,-0.7051,-0.753,-0.7834,-0.7543,-0.7489,-0.7414,-0.7139,-0.7098,-0.7098,-0.7098,-0.7038,-0.6964,-0.6896,-0.6729,-0.6559,-0.6518,-0.6381,-0.63,-0.63,-0.6118,-0.5993,-0.5993,-0.5745,-0.5515,-0.5365,-0.5359,-0.5359,-0.5359,-0.5359,-0.5359,-0.5359,-0.5359,-0.5399,-0.546,-0.5311,-0.5169,0.0,0.0,0.0,0.0,0.0,0.0,0.0,0.0,0.227,0.1635,0.0715,0.0,0.0,0.0,0.0,0.0,0.0,0.0,0.0,0.0,0.0,0.0,0.0,0.0,0.0,0.0,0.0,0.0,0.0,0.0,0.0,0.0,0.0,0.0,0.0,0.0,0.0,0.0,0.0,0.0,0.0,0.0,0.0,0.0,0.0,0.0,0.0,0.0,0.0,0.0,0.0,0.0,0.0,0.0,0.0,0.0,0.0,0.0,0.0,0.0,0.0,0.0,0.0,-0.0114,-0.0552,-0.1256,-0.1898,-0.2311,-0.2964,-0.3509,-0.3393,-0.3451,-0.3676,-0.4203,-0.5025,-0.5827,-0.6381,-0.7135,-0.7612,-0.7359,-0.7335,-0.723,-0.6917,-0.6846,-0.6871,-0.7092,-0.7098,-0.7058,-0.6943,-0.681,-0.6654,-0.6532,-0.6402,-0.63,-0.63,-0.6146,-0.6027,-0.5993,-0.5915,-0.5833,-0.58,-0.58,-0.58,-0.58,-0.58,-0.58,-0.58,-0.58,-0.58,-0.58,-0.58,-0.5677,0.4931,0.4126,0.3405,0.3406,0.3228,0.2969,0.0,0.0,0.2046,0.1381,0.0602,0.0,0.0,0.0,0.0,0.0,0.0,0.0,0.0,0.0,0.0,0.0,0.0,0.0,0.0,0.0,0.0,0.0,0.0,0.0,0.0,0.0,0.0,0.0,0.0,0.0,0.0,0.0,0.0,0.0,0.0,0.0,0.0,0.0,0.0,0.0,0.0,0.0,0.0,0.0,0.0,0.0,0.0,0.0,0.0,0.0,0.0,0.0,0.0,0.0,0.0,0.0,0.0,-0.0057,-0.0332,-0.0821,-0.1361,-0.1655,-0.2121,-0.2533,-0.2538,-0.2529,-0.2675,-0.3229,-0.3971,-0.473,-0.5277,-0.6032,-0.6548,-0.6371,-0.6303,-0.6227,-0.6041,-0.5925,-0.6118,-0.6966,-0.7098,-0.7092,-0.7071,-0.6871,-0.6695,-0.6675,-0.6463,-0.63,-0.63,-0.6286,-0.6173,-0.6,-0.5979,-0.5905,-0.5806,-0.58,-0.58,-0.58,-0.58,-0.58,-0.58,-0.58,-0.58,-0.58,-0.58,-0.5786,0.4954,0.3903,0.0,0.0,0.2603,0.2191,0.2124,0.1974,0.1735,0.1226,0.0558,0.0,0.0,0.0,0.0,0.0,0.0,0.0,0.0,0.0,0.0,0.0,0.0,0.0,0.0,0.0,0.0,0.0,0.0,0.0,0.0,0.0,0.0,0.0,0.0,0.0,0.0,0.0,0.0,0.0,0.0,0.0,0.0,0.0,0.0,0.0,0.0,0.0,0.0,0.0,0.0,0.0,0.0,0.0,0.0,0.0,0.0,0.0,0.0,0.0,0.0,0.0,0.0,0.0,-0.0114,-0.0338,-0.0505,-0.0662,-0.0823,-0.0984,-0.1022,-0.1017,-0.1117,-0.1652,-0.2406,-0.316,-0.3682,-0.4422,-0.4947,-0.481,-0.476,-0.4737,-0.4585,-0.4526,-0.4615,-0.5003,-0.5758,-0.634,-0.6479,-0.6442,-0.647,-0.6586,-0.6422,-0.63,-0.63,-0.63,-0.6272,-0.6166,-0.6166,-0.6132,-0.6108,-0.6108,-0.6108,-0.6108,-0.6108,-0.6108,-0.6108,-0.6108,-0.6108,-0.6108,-0.6108,-0.6108,0.4951,0.0,0.0,0.2672,0.205,0.1449,0.1536,0.1509,0.1379,0.0988,0.0427,0.0,0.0,0.0,0.0,0.0,0.0,0.0,0.0,0.0,0.0,0.0,0.0,0.0,0.0,0.0,0.0,0.0,0.0,0.0,0.0,0.0,0.0,0.0,0.0,0.0,0.0,0.0,0.0,0.0,0.0,0.0,0.0,0.0,0.0,0.0,0.0,0.0,0.0,0.0,0.0,0.0,0.0,0.0,0.0,0.0,0.0,0.0,0.0,0.0,0.0,0.0,0.0,0.0,0.0,0.0,0.0,0.0,0.0,0.0,0.0,0.0,-0.0109,-0.0576,-0.1244,-0.1906,-0.2376,-0.3017,-0.3554,-0.341,-0.3387,-0.334,-0.3272,-0.3236,-0.3203,-0.3227,-0.4065,-0.4959,-0.5542,-0.5927,-0.622,-0.6465,-0.6422,-0.634,-0.6306,-0.63,-0.63,-0.63,-0.63,-0.63,-0.63,-0.63,-0.63,-0.63,-0.63,-0.63,-0.63,-0.63,-0.63,-0.63,-0.63,-0.63,0.0,0.0,0.297,0.2511,0.1762,0.1041,0.0874,0.0984,0.0989,0.0531,0.0213,0.0,0.0,0.0,0.0,0.0,0.0,0.0,0.0,0.0,0.0,0.0,0.0,0.0,0.0,0.0,0.0,0.0,0.0,0.0,0.0,0.0,0.0,0.0,0.0,0.0,0.0,0.0,0.0,0.0,0.0,0.0,0.0,0.0,0.0,0.0,0.0,0.0,0.0,0.0,0.0,0.0,0.0,0.0,0.0,0.0,0.0,0.0,0.0,0.0,0.0,0.0,0.0,0.0,0.0,0.0,0.0,0.0,0.0,0.0,0.0,0.0,-0.0054,-0.0367,-0.083,-0.1289,-0.1569,-0.2068,-0.2471,-0.2418,-0.2384,-0.2339,-0.2339,-0.2294,-0.2248,-0.2244,-0.2283,-0.2819,-0.4198,-0.5262,-0.6045,-0.6465,-0.6511,-0.645,-0.6313,-0.63,-0.63,-0.63,-0.63,-0.63,-0.63,-0.63,-0.63,-0.63,-0.63,-0.63,-0.63,-0.63,-0.63,-0.63,-0.63,-0.63,0.0,0.0,0.3164,0.2474,0.1325,0.0371,0.0268,0.0325,0.0328,0.0163,0.0054,0.0,0.0,0.0,0.0,0.0,0.0,0.0,0.0,0.0,0.0,0.0,0.0,0.0,0.0,0.0,0.0,0.0,0.0,0.0,0.0,0.0,0.0,0.0,0.0,0.0,0.0,0.0,0.0,0.0,0.0,0.0,0.0,0.0,0.0,0.0,0.0,0.0,0.0,0.0,0.0,0.0,0.0,0.0,0.0,0.0,0.0,0.0,0.0,0.0,0.0,0.0,0.0,0.0,0.0,0.0,0.0,0.0,0.0,0.0,0.0,0.0,0.0,-0.0107,-0.0264,-0.0419,-0.0508,-0.0656,-0.0808,-0.0808,-0.0804,-0.0792,-0.0767,-0.0758,-0.0746,-0.0721,-0.1837,-0.3001,-0.3935,-0.4695,-0.5437,-0.6106,-0.6209,-0.6258,-0.6313,-0.63,-0.63,-0.63,-0.63,-0.63,-0.63,-0.63,-0.63,-0.63,-0.63,-0.63,-0.63,-0.63,-0.63,-0.63,-0.63,-0.63,0.5653,0.4726,0.3668,0.2852,0.1486,0.0274,0.0164,0.0055,0.0,0.0,0.0,0.0,0.0,0.0,0.0,0.0,0.0,0.0,0.0,0.0,0.0,0.0,0.0,0.0,0.0,0.0,0.0,0.0,0.0,0.0,0.0,0.0,0.0,0.0,0.0,0.0,0.0,0.0,0.0,0.0,0.0,0.0,0.0,0.0,0.0,0.0,0.0,0.0,0.0,0.0,0.0,0.0,0.0,0.0,0.0,0.0,0.0,0.0,0.0,0.0,0.0,0.0,0.0,0.0,0.0,0.0,0.0,0.0,0.0,0.0,0.0,0.0,0.0,0.0,0.0,0.0,0.0,0.0,0.0,0.0,0.0,0.0,0.0,0.0,0.0,0.0,-0.1166,-0.2283,-0.3042,-0.3802,-0.4588,-0.5507,-0.5788,-0.603,-0.6274,-0.63,-0.63,-0.63,-0.63,-0.63,-0.63,-0.63,-0.63,-0.63,-0.63,-0.63,-0.63,-0.63,-0.63,-0.63,-0.63,-0.63,0.6325,0.5557,0.4583,0.359,0.2159,0.0875,0.0548,0.0219,0.0,0.0,0.0,0.0,0.0,0.0,0.0,0.0,0.0,0.0,0.0,0.0,0.0,0.0,0.0,0.0,0.0,0.0,0.0,0.0,0.0,0.0,0.0,0.0,0.0,0.0,0.0,0.0,0.0,0.0,0.0,0.0,0.0,0.0,0.0,0.0,0.0,0.0,0.0,0.0,0.0,0.0,0.0,0.0,0.0,0.0,0.0,0.0,0.0,0.0,0.0,0.0,0.0,0.0,0.0,0.0,0.0,0.0,0.0,0.0,0.0,0.0,0.0,0.0,0.0,0.0,0.0,0.0,0.0,0.0,0.0,0.0,0.0,0.0,0.0,0.0,0.0,0.0,-0.0225,-0.0717,-0.1657,-0.2593,-0.3608,-0.4764,-0.533,-0.5805,-0.6256,-0.6313,-0.6306,-0.63,-0.63,-0.63,-0.63,-0.63,-0.63,-0.63,-0.6306,-0.6313,-0.6313,-0.632,-0.632,-0.632,-0.632,-0.632,0.685,0.6435,0.5776,0.4701,0.3126,0.1718,0.1206,0.0542,0.0,0.0,0.0,0.0,0.0,0.0,0.0,0.0,0.0,0.0,0.0,0.0,0.0,0.0,0.0,0.0,0.0,0.0,0.0,0.0,0.0,0.0,0.0,0.0,0.0,0.0,0.0,0.0,0.0,0.0,0.0,0.0,0.0,0.0,0.0,0.0,0.0,0.0,0.0,0.0,0.0,0.0,0.0,0.0,0.0,0.0,0.0,0.0,0.0,0.0,0.0,0.0,0.0,0.0,0.0,0.0,0.0,0.0,0.0,0.0,0.0,0.0,0.0,0.0,0.0,0.0,0.0,0.0,0.0,0.0,0.0,0.0,0.0,0.0,0.0,0.0,0.0,0.0,-0.0045,-0.0404,-0.1165,-0.2104,-0.3143,-0.4389,-0.5112,-0.5781,-0.6404,-0.6457,-0.6416,-0.6306,-0.63,-0.63,-0.63,-0.63,-0.63,-0.63,-0.6402,-0.6457,-0.6457,-0.6532,-0.6586,-0.6586,-0.6586,-0.6586,0.7459,0.7194,0.6655,0.5718,0.4195,0.2802,0.2201,0.131,0.0606,0.0568,0.0537,0.0,0.0393,0.0,0.0,0.0,0.0,0.0,0.0,0.0,0.0,0.0,0.0,0.0,0.0,0.0,0.0,0.0,0.0,0.0,0.0,0.0,0.0,0.0,0.0,0.0,0.0,0.0,0.0,0.0,0.0,0.0,0.0,0.0,0.0,0.0,0.0,0.0,0.0,0.0,0.0,0.0,0.0,0.0,0.0,0.0,0.0,0.0,0.0,0.0,0.0,0.0,0.0,0.0,0.0,0.0,0.0,0.0,0.0,0.0,0.0,0.0,0.0,0.0,0.0,0.0,0.0,0.0,0.0,0.0,0.0,0.0,0.0,0.0,0.0,0.0,0.0,-0.0135,-0.0584,-0.1436,-0.2487,-0.3776,-0.4679,-0.5532,-0.6418,-0.6511,-0.645,-0.6306,-0.63,-0.63,-0.63,-0.63,-0.63,-0.63,-0.6443,-0.6511,-0.6511,-0.6627,-0.6702,-0.6702,-0.6702,-0.6702,0.8073,0.7917,0.7512,0.6765,0.5427,0.4118,0.3434,0.24,0.1614,0.1483,0.0,0.1275,0.1082,0.0777,0.0513,0.0373,0.0,0.0,0.0,0.0,0.0,0.0,0.0,0.0,0.0,0.0,0.0,0.0,0.0,0.0,0.0,0.0,0.0,0.0,0.0,0.0,0.0,0.0,0.0,0.0,0.0,0.0,0.0,0.0,0.0,0.0,0.0,0.0,0.0,0.0,0.0,0.0,0.0,0.0,0.0,0.0,0.0,0.0,0.0,0.0,0.0,0.0,0.0,0.0,0.0,0.0,0.0,0.0,0.0,0.0,0.0,0.0,0.0,0.0,0.0,0.0,0.0,0.0,0.0,0.0,0.0,0.0,0.0,0.0,0.0,0.0,0.0,0.0,0.0,-0.0808,-0.1825,-0.3095,-0.4086,-0.5134,-0.6269,-0.6411,-0.6391,-0.625,-0.6283,-0.6322,-0.6361,-0.6361,-0.6361,-0.6361,-0.6497,-0.6532,-0.6532,-0.6681,-0.6756,-0.6756,-0.6756,-0.6756,0.8729,0.8887,0.8895,0.8124,0.7097,0.5963,0.4975,0.3735,0.0,0.0,0.0,0.1975,0.1768,0.1326,0.0,0.0758,0.0,0.0,0.0,0.0,0.0,0.0,0.0,0.0,0.0,0.0,0.0,0.0,0.0,0.0,0.0,0.0,0.0,0.0,0.0,0.0,0.0,0.0,0.0,0.0,0.0,0.0,0.0,0.0,0.0,0.0,0.0,0.0,0.0,0.0,0.0,0.0,0.0,0.0,0.0,0.0,0.0,0.0,0.0,0.0,0.0,0.0,0.0,0.0,0.0,0.0,0.0,0.0,0.0,0.0,0.0,0.0,0.0,0.0,0.0,0.0,0.0,0.0,0.0,0.0,0.0,0.0,0.0,0.0,0.0,0.0,0.0,0.0,0.0,-0.0673,-0.161,-0.2845,-0.3602,-0.4493,-0.5582,-0.5868,-0.602,-0.6052,-0.6217,-0.6381,-0.6627,-0.6627,-0.6627,-0.6627,-0.677,-0.6851,-0.6851,-0.695,-0.7018,-0.7018,-0.7018,-0.7018,0.8865,0.9042,0.9004,0.8468,0.7611,0.6705,0.5802,0.0,0.0,0.0,0.0,0.2758,0.2529,0.0,0.0,0.0,0.0,0.0,0.0,0.0,0.0,0.0,0.0,0.0,0.0,0.0,0.0,0.0,0.0,0.0,0.0,0.0,0.0,0.0,0.0,0.0,0.0,0.0,0.0,0.0,0.0,0.0,0.0,0.0,0.0,0.0,0.0,0.0,0.0,0.0,0.0,0.0,0.0,0.0,0.0,0.0,0.0,0.0,0.0,0.0,0.0,0.0,0.0,0.0,0.0,0.0,0.0,0.0,0.0,0.0,0.0,0.0,0.0,0.0,0.0,0.0,0.0,0.0,0.0,0.0,0.0,0.0,0.0,0.0,0.0,0.0,0.0,0.0,0.0,-0.0452,-0.1165,-0.2236,-0.2819,-0.3503,-0.4294,-0.4722,-0.5107,-0.5413,-0.574,-0.6156,-0.666,-0.6702,-0.6702,-0.6702,-0.6851,-0.6883,-0.6883,-0.7024,-0.7098,-0.7098,-0.7098,-0.7098,0.894,0.9008,0.8932,0.8532,0.7874,0.7169,0.6478,0.5432,0.0,0.0,0.3883,0.3559,0.3314,0.0,0.0,0.0,0.0,0.0,0.0,0.0,0.0,0.0,0.0,0.0,0.0,0.0,0.0,0.0,0.0,0.0,0.0,0.0,0.0,0.0,0.0,0.0,0.0,0.0,0.0,0.0,0.0,0.0,0.0,0.0,0.0,0.0,0.0,0.0,0.0,0.0,0.0,0.0,0.0,0.0,0.0,0.0,0.0,0.0,0.0,0.0,0.0,0.0,0.0,0.0,0.0,0.0,0.0,0.0,0.0,0.0,0.0,0.0,0.0,0.0,0.0,0.0,0.0,0.0,0.0,0.0,0.0,0.0,0.0,0.0,0.0,0.0,0.0,0.0,0.0,-0.0182,-0.0583,-0.1343,-0.1927,-0.249,-0.3014,-0.3533,-0.4074,-0.4638,-0.5183,-0.5816,-0.6586,-0.6713,-0.6755,-0.6797,-0.6869,-0.693,-0.693,-0.7045,-0.7098,-0.7098,-0.7098,-0.7098,0.9096,0.9232,0.9273,0.8932,0.8534,0.7979,0.721,0.0,0.0,0.5088,0.4687,0.4345,0.4136,0.3595,0.3236,0.0,0.0,0.0,0.0,0.0,0.0,0.0,0.0,0.0,0.0,0.0,0.0,0.0,0.0,0.0,0.0,0.0,0.0,0.0,0.0,0.0,0.0,0.0,0.0,0.0,0.0,0.0,0.0,0.0,0.0,0.0,0.0,0.0,0.0,0.0,0.0,0.0,0.0,0.0,0.0,0.0,0.0,0.0,0.0,0.0,0.0,0.0,0.0,0.0,0.0,0.0,0.0,0.0,0.0,0.0,0.0,0.0,0.0,0.0,0.0,0.0,0.0,0.0,0.0,0.0,0.0,0.0,0.0,0.0,0.0,0.0,0.0,0.0,0.0,0.0,-0.009,-0.0135,-0.0987,-0.1701,-0.2276,-0.2725,-0.3301,-0.3961,-0.467,-0.5466,-0.6392,-0.6662,-0.6882,-0.7058,-0.7071,-0.7078,-0.7078,-0.7092,-0.7098,-0.7098,-0.7098,-0.7098,0.8845,0.8933,0.8906,0.8608,0.8201,0.7692,0.7027,0.0,0.5569,0.5177,0.4775,0.4448,0.4343,0.3971,0.3732,0.3904,0.3726,0.3741,0.0,0.0,0.0,0.0,0.0,0.0,0.0,0.0,0.0,0.0,0.0,0.0,0.0,0.0,0.0,0.0,0.0,0.0,0.0,0.0,0.0,0.0,0.0,0.0,0.0,0.0,0.0,0.0,0.0,0.0,0.0,0.0,0.0,0.0,0.0,0.0,0.0,0.0,0.0,0.0,0.0,0.0,0.0,0.0,0.0,0.0,0.0,0.0,0.0,0.0,0.0,0.0,0.0,0.0,0.0,0.0,0.0,0.0,0.0,0.0,0.0,0.0,0.0,0.0,0.0,0.0,0.0,0.0,0.0,0.0,0.0,0.0,0.0,0.0,-0.0317,-0.0629,-0.0852,-0.13,-0.188,-0.2596,-0.3444,-0.4469,-0.5758,-0.6169,-0.6612,-0.7098,-0.7098,-0.7098,-0.7098,-0.7098,-0.7098,-0.7098,-0.7098,-0.7098,0.8513,0.8608,0.8574,0.8275,0.7828,0.7305,0.0,0.0,0.5365,0.5029,0.4714,0.4497,0.4428,0.4247,0.4171,0.4422,0.4423,0.4629,0.5199,0.0,0.0,0.0,0.0,0.0,0.0,0.0,0.0,0.0,0.0,0.0,0.0,0.0,0.0,0.0,0.0123,0.0185,0.0309,0.0309,0.0309,0.0309,0.0185,0.0123,0.0,0.0,0.0,0.0,0.0,0.0,0.0,0.0,0.0,0.0,0.0,0.0,0.0,0.0,0.0,0.0,0.0,0.0,0.0,0.0,0.0,0.0,0.0,0.0,0.0,0.0,0.0,0.0,0.0,0.0,0.0,0.0,0.0,0.0,0.0,0.0,0.0,0.0,0.0,0.0,0.0,0.0,0.0,0.0,0.0,0.0,0.0,0.0,0.0,0.0,0.0,0.0,0.0,-0.0359,-0.0896,-0.1567,-0.2417,-0.353,-0.4914,-0.5408,-0.5991,-0.665,-0.6745,-0.6833,-0.6871,-0.6966,-0.7054,-0.7098,-0.7098,-0.7119,0.8153,0.8377,0.8411,0.8062,0.7543,0.695,0.0,0.5677,0.5022,0.4755,0.46,0.4491,0.4491,0.4491,0.4613,0.5029,0.5264,0.5677,0.658,0.0,0.0,0.0,0.0,0.0,0.0,0.0,0.0,0.0,0.0,0.0,0.0062,0.0,0.0,0.0,0.0309,0.0679,0.0988,0.0988,0.0988,0.0988,0.0679,0.0309,0.0,0.0,0.0,0.0,0.0,0.0,0.0,0.0,0.0,0.0,0.0,0.0,0.0,0.0,0.0,0.0,0.0,0.0,0.0,0.0,0.0,0.0,0.0,0.0,0.0,0.0,0.0,0.0,0.0,0.0,0.0,0.0,0.0,0.0,0.0,0.0,0.0,0.0,0.0,0.0,0.0,0.0,0.0,0.0,0.0,0.0,0.0,0.0,0.0,0.0,0.0,0.0,0.0,-0.0269,-0.0583,-0.1077,-0.1792,-0.273,-0.3849,-0.4425,-0.5053,-0.5719,-0.5991,-0.6213,-0.6428,-0.6656,-0.6922,-0.7098,-0.7098,-0.7224,0.7563,0.774,0.7672,0.7429,0.7048,0.6552,0.6057,0.5521,0.5015,0.4755,0.46,0.4491,0.4491,0.4491,0.4607,0.4901,0.5108,0.0,0.0,0.0,0.0,0.0,0.0,0.0,0.0,0.0,0.0,0.0,0.0,0.0,0.1419,0.1357,0.0925,0.0,0.0556,0.1234,0.2033,0.2036,0.2036,0.2033,0.148,0.074,0.0,0.0,0.0,0.0,0.0,0.0,0.0,0.0,0.0,0.0,0.0,0.0,0.0,0.0,0.0,0.0,0.0,0.0,0.0,0.0,0.0,0.0,0.0,0.0,0.0,0.0,0.0,0.0,0.0,0.0,0.0,0.0,0.0,0.0,0.0,0.0,0.0,0.0,0.0,0.0,0.0,0.0,0.0,0.0,0.0,0.0,0.0,0.0,0.0,0.0,0.0,0.0,0.0,-0.0091,-0.018,-0.0359,-0.0852,-0.1567,-0.2417,-0.2953,-0.353,-0.4239,-0.4648,-0.5137,-0.5714,-0.6124,-0.6567,-0.7098,-0.7098,-0.7224,0.0,0.6905,0.6955,0.6721,0.6424,0.6037,0.5637,0.5243,0.4897,0.4682,0.4559,0.4491,0.4491,0.4491,0.4573,0.4796,0.4928,0.0,0.0,0.0,0.0,0.0,0.0,0.0,0.0,0.0,0.0,0.0,0.0,0.0,0.3141,0.3079,0.271,0.1848,0.1911,0.2342,0.32,0.3325,0.3325,0.32,0.2525,0.1726,0.074,0.0617,0.0494,0.0,0.0,0.0,0.0,0.0,0.0,0.0,0.0,0.0,0.0,0.0,0.0,0.0,0.0,0.0,0.0,0.0,0.0,0.0,0.0,0.0,0.0,0.0,0.0,0.0,0.0,0.0,0.0,0.0,0.0,0.0,0.0,0.0,0.0,0.0,0.0,0.0,0.0,0.0,0.0,0.0,0.0,0.0,0.0,0.0,0.0,0.0,0.0,0.0,0.0,0.0,0.0,0.0,-0.0367,-0.0872,-0.1513,-0.1881,-0.2383,-0.3063,-0.3614,-0.4344,-0.5208,-0.6173,-0.6859,-0.7267,-0.7267,-0.7394,0.0,0.6064,0.6211,0.6023,0.5779,0.5494,0.515,0.4897,0.0,0.4525,0.4491,0.4491,0.4491,0.4498,0.4559,0.4694,0.4857,0.0,0.0,0.0,0.0,0.0,0.0,0.0,0.0,0.0,0.0,0.0,0.0,0.0,0.51,0.5039,0.5039,0.5039,0.4186,0.4002,0.4613,0.4923,0.4923,0.4613,0.394,0.3141,0.2219,0.1849,0.148,0.0,0.0,0.037,0.0,0.0,0.0,0.0,0.0,0.0,0.0,0.0,0.0,0.0,0.0,0.0,0.0,0.0,0.0,0.0,0.0,0.0,0.0,0.0,0.0,0.0,0.0,0.0,0.0,0.0,0.0,0.0,0.0,0.0,0.0,0.0,0.0,0.0,0.0,0.0,0.0,0.0,0.0,0.0,0.0,0.0,0.0,0.0,0.0,0.0,0.0,0.0,0.0,0.0,-0.0238,-0.0572,-0.1001,-0.1192,-0.1525,-0.2048,-0.2901,-0.3847,-0.4935,-0.6738,-0.7597,-0.7597,-0.7597,-0.7678,0.4819,0.0,0.5747,0.559,0.5501,0.5371,0.0,0.4823,0.4675,0.4525,0.0,0.4491,0.4491,0.4586,0.4721,0.4955,0.5257,0.0,0.0,0.0,0.0,0.0,0.0,0.0,0.0,0.0,0.0,0.0,0.0,0.7194,0.6455,0.6455,0.6455,0.6455,0.67,0.6823,0.6691,0.6757,0.6757,0.6691,0.6023,0.5165,0.4183,0.363,0.2893,0.0,0.0,0.0797,0.0,0.0,0.0,0.0,0.0,0.0,0.0,0.0,0.0,0.0,0.0,0.0,0.0,0.0,0.0,0.0,0.0,0.0,0.0,0.0,0.0,0.0,0.0,0.0,0.0,0.0,0.0,0.0,0.0,0.0,0.0,0.0,0.0,0.0,0.0,0.0,0.0,0.0,0.0,0.0,0.0,0.0,0.0,0.0,0.0,0.0,0.0,0.0,0.0,0.0,-0.0048,-0.0143,-0.0238,-0.0286,-0.0381,-0.0524,-0.2614,-0.4178,-0.5218,-0.6838,-0.7597,-0.7597,-0.7597,-0.7678,0.4692,0.4924,0.5142,0.5016,0.503,0.5023,0.4762,0.4675,0.0,0.0,0.0,0.4511,0.458,0.4694,0.0,0.5189,0.5549,0.0,0.0,0.0,0.0,0.0,0.0,0.0,0.0,0.0,0.0,0.0,0.0,0.8599,0.8233,0.8233,0.8233,0.8233,0.8599,0.8477,0.7856,0.7989,0.7989,0.7856,0.7312,0.6639,0.5778,0.5104,0.4306,0.0,0.271,0.1833,0.0844,0.0724,0.0543,0.0422,0.0241,0.0122,0.0,0.0,0.0,0.0,0.0,0.0,0.0,0.0,0.0,0.0,0.0,0.0,0.0,0.0,0.0,0.0,0.0,0.0,0.0,0.0,0.0,0.0,0.0,0.0,0.0,0.0,0.0,0.0,0.0,0.0,0.0,0.0,0.0,0.0,0.0,0.0,0.0,0.0,0.0,0.0,0.0,0.0,0.0,0.0,0.0,0.0,0.0,0.0,-0.0196,-0.0539,-0.2491,-0.4051,-0.5076,-0.6634,-0.7463,-0.7607,-0.7704,-0.7841,0.4962,0.4874,0.4721,0.46,0.4689,0.4778,0.46,0.0,0.0,0.0,0.0,0.0,0.0,0.0,0.0,0.0,0.0,0.0,0.0,0.0,0.0,0.0,0.0,0.0,0.0,0.0,0.0,0.0,0.0,0.9822,0.9822,0.9822,0.9822,0.9822,0.9822,0.939,0.8599,0.8909,0.8909,0.8599,0.8299,0.7867,0.7317,0.6625,0.5762,0.478,0.0,0.0,0.2271,0.1915,0.1499,0.1081,0.0661,0.0304,0.0,0.0,0.0,0.0,0.0,0.0,0.0,0.0,0.0,0.0,0.0,0.0,0.0,0.0,0.0,0.0,0.0,0.0,0.0,0.0,0.0,0.0,0.0,0.0,0.0,0.0,0.0,0.0,0.0,0.0,0.0,0.0,0.0,0.0,0.0,0.0,0.0,0.0,0.0,0.0,0.0,0.0,0.0,0.0,0.0,0.0,0.0,0.0,-0.0353,-0.1112,-0.237,-0.3525,-0.4634,-0.6237,-0.7191,-0.7497,-0.7839,-0.7988,0.527,0.5134,0.4995,0.4884,0.5053,0.5221,0.4911,0.0,0.0,0.0,0.0,0.0,0.0,0.0,0.0,0.0,0.0,0.0,0.0,0.0,0.0,0.0,0.0,0.0,0.0,0.0,0.0,0.0,0.0,0.9822,0.9822,0.9822,0.9822,0.9822,0.9822,0.9761,0.9579,0.964,0.964,0.9579,0.9518,0.9457,0.9329,0.8546,0.7649,0.6621,0.0,0.4973,0.4035,0.3467,0.2738,0.1946,0.1357,0.0661,0.0,0.0,0.0,0.0,0.0,0.0,0.0,0.0,0.0,0.0,0.0,0.0,0.0,0.0,0.0,0.0,0.0,0.0,0.0,0.0,0.0,0.0,0.0,0.0,0.0,0.0,0.0,0.0,0.0,0.0,0.0,0.0,0.0,0.0,0.0,0.0,0.0,0.0,0.0,0.0,0.0,0.0,0.0,0.0,0.0,0.0,0.0,0.0,-0.0252,-0.0858,-0.1713,-0.2718,-0.378,-0.5381,-0.6431,-0.693,-0.7683,-0.7988,0.5726,0.5532,0.5357,0.5283,0.5446,0.5562,0.5426,0.5393,0.0,0.0,0.0,0.0,0.0,0.0,0.0,0.0,0.0,0.0,0.0,0.0,0.0,0.0,0.0,0.0,0.0,0.0,0.0,0.0,0.0,0.0,0.9822,0.9822,0.9822,0.9822,0.9822,0.9822,0.9822,0.9822,0.9822,0.9822,0.9822,0.9822,0.9754,0.9127,0.8402,0.7611,0.0,0.6276,0.5496,0.4872,0.4053,0.3173,0.2351,0.1441,0.0494,0.0123,0.0,0.0,0.0,0.0,0.0,0.0,0.0,0.0,0.0,0.0,0.0,0.0,0.0,0.0,0.0,0.0,0.0,0.0,0.0,0.0,0.0,0.0,0.0,0.0,0.0,0.0,0.0,0.0,0.0,0.0,0.0,0.0,0.0,0.0,0.0,0.0,0.0,0.0,0.0,0.0,0.0,0.0,0.0,0.0,0.0,0.0,-0.0202,-0.0555,-0.121,-0.2016,-0.2975,-0.4429,-0.5427,-0.5982,-0.6786,-0.7191,0.6322,0.5989,0.5698,0.5723,0.5783,0.5813,0.5847,0.5881,0.0,0.0,0.0,0.0,0.0,0.0,0.0,0.0,0.0,0.0,0.0,0.0,0.0,0.0,0.0,0.0,0.0,0.0,0.0,0.0,0.0,0.0,0.972,0.972,0.972,0.972,0.972,0.9734,0.9774,0.9774,0.9788,0.9822,0.9822,0.9822,0.9815,0.9367,0.8944,0.8456,0.8037,0.758,0.7034,0.6455,0.5648,0.4725,0.3723,0.2408,0.105,0.0247,0.0,0.0,0.0,0.0,0.0,0.0,0.0,0.0,0.0,0.0,0.0,0.0,0.0,0.0,0.0,0.0,0.0,0.0,0.0,0.0,0.0,0.0,0.0,0.0,0.0,0.0,0.0,0.0,0.0,0.0,0.0,0.0,0.0,0.0,0.0,0.0,0.0,0.0,0.0,0.0,0.0,0.0,0.0,0.0,0.0,0.0,-0.0101,-0.0303,-0.0706,-0.1261,-0.2017,-0.3224,-0.4124,-0.4676,-0.5477,-0.6032,0.714,0.6506,0.6018,0.6127,0.5965,0.584,0.5946,0.6125,0.0,0.6422,0.0,0.0,0.0,0.0,0.0,0.0,0.0,0.0,0.0,0.0,0.0,0.0,0.0,0.0,0.0,0.0,0.0,0.0,0.0,0.0,0.9415,0.9415,0.9415,0.9415,0.9415,0.9483,0.9625,0.9625,0.9693,0.9822,0.9822,0.9822,0.9815,0.9613,0.9545,0.9479,0.9332,0.92,0.9129,0.8549,0.7738,0.6772,0.5578,0.3638,0.1356,0.037,0.0,0.0,0.0,0.0,0.0,0.0,0.0,0.0,0.0,0.0,0.0,0.0,0.0,0.0,0.0,0.0,0.0,0.0,0.0,0.0,0.0,0.0,0.0,0.0,0.0,0.0,0.0,0.0,0.0,0.0,0.0,0.0,0.0,0.0,0.0,0.0,0.0,0.0,0.0,0.0,0.0,0.0,0.0,0.0,0.0,0.0,0.0,-0.005,-0.005,-0.0353,-0.0909,-0.1764,-0.2467,-0.297,-0.3817,-0.4468,0.6963,0.6341,0.5875,0.5821,0.5823,0.0,0.0,0.6634,0.6851,0.7043,0.7177,0.0,0.0,0.0,0.0,0.0,0.0,0.0,0.0,0.0,0.0,0.0,0.0,0.0,0.0,0.0,0.0,0.0,0.0,0.0,0.9381,0.9381,0.9381,0.9381,0.9381,0.9456,0.9605,0.9612,0.968,0.9822,0.9822,0.9822,0.9815,0.9673,0.9612,0.9598,0.9449,0.9381,0.9381,0.8916,0.8348,0.7508,0.5524,0.3918,0.2589,0.1603,0.1234,0.1234,0.1234,0.1111,0.0925,0.0679,0.0494,0.0247,0.0062,0.0,0.0,0.0,0.0,0.0,0.0,0.0,0.0,0.0,0.0,0.0,0.0,0.0,0.0,0.0,0.0,0.0,0.0,0.0,0.0,0.0,0.0,0.0,0.0,0.0,0.0,0.0,0.0,0.0,0.0,0.0,0.0,0.0,0.0,0.0,0.0,0.0,0.0,0.0,0.0,-0.0202,-0.0555,-0.121,-0.1712,-0.2066,-0.2718,-0.3271,0.7019,0.6351,0.5797,0.5746,0.0,0.0,0.6552,0.7,0.7339,0.7543,0.774,0.0,0.0,0.0,0.0,0.0,0.0,0.0,0.0,0.0,0.0,0.0,0.0,0.0,0.0,0.0,0.0,0.0,0.0,0.0,0.0,0.9239,0.9239,0.9239,0.9239,0.9334,0.9537,0.9537,0.9632,0.9822,0.9822,0.9822,0.9815,0.972,0.968,0.9673,0.9564,0.9517,0.9517,0.9288,0.8866,0.8113,0.6119,0.492,0.4247,0.3264,0.2895,0.2895,0.2895,0.2648,0.2156,0.1666,0.1172,0.074,0.0185,0.0,0.0,0.0,0.0,0.0,0.0,0.0,0.0,0.0,0.0,0.0,0.0,0.0,0.0,0.0,0.0,0.0,0.0,0.0,0.0,0.0,0.0,0.0,0.0,0.0,0.0,0.0,0.0,0.0,0.0,0.0,0.0,0.0,0.0,0.0,0.0,0.0,0.0,0.0,0.0,-0.0101,-0.0252,-0.0656,-0.0908,-0.111,-0.1463,-0.1917,0.7493,0.6613,0.5851,0.0,0.0,0.0,0.6539,0.717,0.7685,0.7934,0.0,0.0,0.0,0.0,0.0,0.0,0.0,0.0,0.0,0.0,0.0,0.0,0.0,0.0,0.0,0.0,0.0,0.0,0.0,0.0,0.0,0.8885,0.8885,0.8885,0.8885,0.9083,0.9374,0.9381,0.953,0.9822,0.9822,0.9822,0.9822,0.9822,0.9822,0.9822,0.9822,0.9822,0.9822,0.9822,0.9396,0.8726,0.7795,0.6996,0.6267,0.5284,0.4916,0.4916,0.4916,0.4487,0.3753,0.2831,0.2094,0.1356,0.0308,0.0,0.0,0.0,0.0,0.0,0.0,0.0,0.0,0.0,0.0,0.0,0.0,0.0,0.0,0.0,0.0,0.0,0.0,0.0,0.0,0.0,0.0,0.0,0.0,0.0,0.0,0.0,0.0,0.0,0.0,0.0,0.0,0.0,0.0,0.0,0.0,0.0,0.0,0.0,0.0,0.0,0.0,0.0,0.0,0.0,0.0,-0.0303,0.7401,0.6924,0.0,0.0,0.0,0.0,0.0,0.7561,0.0,0.0,0.0,0.0,0.0,0.0,0.0,0.0,0.0,0.0,0.0,0.0,0.0,0.0,0.0,0.0,0.0,0.0,0.0,0.0,0.0,0.0,0.0,0.8885,0.8885,0.8885,0.8885,0.9083,0.9374,0.9381,0.953,0.9822,0.9822,0.9822,0.9822,0.9822,0.9822,0.9822,0.9822,0.9822,0.9822,0.9822,0.9518,0.9092,0.8355,0.7861,0.7378,0.6578,0.6333,0.6333,0.6333,0.5843,0.5168,0.4183,0.3387,0.2648,0.1726,0.1234,0.0987,0.0741,0.0556,0.0309,0.0062,0.0,0.0,0.0,0.0,0.0,0.0,0.0,0.0,0.0,0.0,0.0,0.0,0.0,0.0,0.0,0.0,0.0,0.0,0.0,0.0,0.0,0.0,0.0,0.0,0.0,0.0,0.0,0.0,0.0,0.0,0.0,0.0,0.0,0.0,0.0,0.0,0.0,0.0,0.0,0.0,-0.0204,0.7811,0.7624,0.0,0.0,0.0,0.0,0.0,0.0,0.0,0.0,0.0,0.0,0.0,0.0,0.0,0.0,0.0,0.0,0.0,0.0,0.0,0.0,0.0,0.0,0.0,0.0,0.0,0.0,0.0,0.0,0.0,0.8885,0.8885,0.8885,0.8885,0.9055,0.9344,0.935,0.9408,0.9646,0.9646,0.9646,0.9652,0.9768,0.9822,0.9822,0.9822,0.9822,0.9822,0.9822,0.97,0.9457,0.9086,0.8848,0.8604,0.8172,0.805,0.805,0.805,0.7622,0.6888,0.59,0.5165,0.4429,0.3448,0.2833,0.2341,0.1788,0.1234,0.074,0.0185,0.0,0.0,0.0,0.0,0.0,0.0,0.0,0.0,0.0,0.0,0.0,0.0,0.0,0.0,0.0,0.0,0.0,0.0,0.0,0.0,0.0,0.0,0.0,0.0,0.0,0.0,0.0,0.0,0.0,0.0,0.0,0.0,0.0,0.0,0.0,0.0,0.0,0.0,0.0,0.0,-0.0104,0.8505,0.0,0.0,0.0,0.0,0.0,0.0,0.0,0.0,0.0,0.0,0.0,0.0,0.0,0.0,0.0,0.0,0.0,0.0,0.0,0.0,0.0,0.0,0.0,0.0,0.0,0.0,0.0,0.0,0.0,0.0,0.8885,0.8885,0.8885,0.8885,0.9008,0.9207,0.9207,0.9289,0.9381,0.9381,0.9381,0.9388,0.9659,0.9781,0.9781,0.9781,0.9781,0.9781,0.9795,0.9802,0.9802,0.9815,0.9822,0.9822,0.9822,0.9822,0.9822,0.9822,0.9396,0.8726,0.7795,0.7062,0.6329,0.541,0.4613,0.3876,0.2954,0.2218,0.1418,0.0432,0.0185,0.0123,0.0123,0.0061,0.0,0.0,0.0,0.0,0.0,0.0,0.0,0.0,0.0,0.0,0.0,0.0,0.0,0.0,0.0,0.0,0.0,0.0,0.0,0.0,0.0,0.0,0.0,0.0,0.0,0.0,0.0,0.0,0.0,0.0,0.0,0.0,0.0,0.0,0.0,0.0,0.0,0.0,0.9234,0.0,0.0,0.0,0.0,0.0,0.0,0.0,0.0,0.0,0.0,0.0,0.0,0.0,0.0,0.0,0.0,0.0,0.0,0.0,0.0,0.0,0.0,0.0,0.0,0.0,0.0,0.0,0.0,0.8885,0.8885,0.8885,0.8885,0.8885,0.9008,0.9207,0.9207,0.9289,0.9381,0.9381,0.9381,0.9381,0.9449,0.9476,0.9476,0.9476,0.9476,0.9483,0.9605,0.9652,0.9666,0.9774,0.9822,0.9822,0.9822,0.9822,0.9822,0.9822,0.9518,0.9092,0.8416,0.7928,0.7439,0.67,0.6027,0.5291,0.4244,0.351,0.2773,0.1788,0.1356,0.111,0.0864,0.0369,0.0,0.0,0.0,0.0,0.0,0.0,0.0,0.0,0.0,0.0,0.0,0.0,0.0,0.0,0.0,0.0,0.0,0.0,0.0,0.0,0.0,0.0,0.0,0.0,0.0,0.0,0.0,0.0,0.0,0.0,0.0,0.0,0.0,0.0,0.0,0.0,0.0,0.0,0.0,0.0,0.0,0.0,0.0,0.0,0.0,0.0,0.0,0.0,0.0,0.0,0.0,0.0,0.0,0.0,0.0,0.0,0.0,0.0,0.0,0.0,0.0,0.0,0.0,0.0,0.0,0.0,0.8885,0.8885,0.8885,0.8885,0.8885,0.8885,0.8974,0.9049,0.9049,0.9089,0.9171,0.9171,0.9171,0.9171,0.9313,0.9381,0.9381,0.9381,0.9381,0.9395,0.9544,0.9612,0.9625,0.9768,0.9822,0.9822,0.9822,0.9822,0.9822,0.9822,0.97,0.9518,0.9147,0.897,0.872,0.8416,0.7805,0.7072,0.6084,0.5349,0.4613,0.363,0.3016,0.2464,0.1849,0.0987,0.0185,0.0062,0.0,0.0,0.0,0.0,0.0,0.0,0.0,0.0,0.0,0.0,0.0,0.0,0.0,0.0,0.0,0.0,0.0,0.0,0.0,0.0,0.0,0.0,0.0,0.0,0.0,0.0,0.0,0.0,0.0,0.0,0.0,0.0,0.0,0.0,0.0,0.0,0.0,0.0,0.0,0.0,0.0,0.0,0.0,0.0,0.0,0.0,0.0,0.0,0.0,0.0,0.0,0.0,0.0,0.0,0.0,0.0,0.0,0.0,0.0,0.0,0.0,0.0,0.0,0.0,0.8885,0.8885,0.8885,0.8885,0.8885,0.8885,0.8885,0.8885,0.8885,0.8885,0.8885,0.8885,0.8885,0.8892,0.9191,0.9306,0.9306,0.9306,0.9306,0.932,0.9469,0.953,0.9551,0.972,0.9781,0.9788,0.9815,0.9822,0.9822,0.9822,0.9822,0.9822,0.9822,0.9822,0.9822,0.9822,0.9396,0.8726,0.7795,0.7123,0.6455,0.5471,0.4735,0.3999,0.3077,0.1849,0.074,0.0123,0.0,0.0,0.0,0.0,0.0,0.0,0.0,0.0,0.0,0.0,0.0,0.0,0.0,0.0,0.0,0.0,0.0,0.0,0.0,0.0,0.0,0.0,0.0,0.0,0.0,0.0,0.0,0.0,0.0,0.0,0.0,0.0,0.0,0.0,0.0,0.0,0.0,0.0,0.0,0.0,0.0,0.0,0.0,0.0,0.0,0.0,0.0,0.0,0.0,0.0,0.0,0.0,0.0,0.0,0.0,0.0,0.0,0.0,0.0,0.0,0.0,0.0,0.0,0.8885,0.8885,0.8885,0.8885,0.8885,0.8885,0.8885,0.8885,0.8885,0.8885,0.8885,0.8885,0.8885,0.8885,0.8885,0.8925,0.8939,0.8939,0.8939,0.8939,0.9008,0.915,0.9268,0.9303,0.953,0.9639,0.9652,0.9774,0.9822,0.9822,0.9822,0.9822,0.9822,0.9822,0.9822,0.9822,0.9822,0.9518,0.9092,0.8477,0.7989,0.7561,0.6827,0.6149,0.5352,0.437,0.3387,0.2156,0.037,0.0,0.0,0.0,0.0,0.0,0.0,0.0,0.0,0.0,0.0,0.0,0.0,0.0,0.0,0.0,0.0,0.0,0.0,0.0,0.0,0.0,0.0,0.0,0.0,0.0,0.0,0.0,0.0,0.0,0.0,0.0,0.0,0.0,0.0,0.0,0.0,0.0,0.0,0.0,0.0,0.0,0.0,0.0,0.0,0.0,0.0,0.0,0.0,0.0,0.0,0.0,0.0,0.0,0.0,0.0,0.0,0.0,0.0,0.0,0.0,0.0,0.0,0.0,0.8885,0.8885,0.8885,0.8885,0.8885,0.8885,0.8885,0.8885,0.8885,0.8885,0.8885,0.8885,0.8885,0.8885,0.8885,0.8885,0.8885,0.8885,0.8885,0.8885,0.8892,0.9096,0.9207,0.9241,0.949,0.9612,0.9625,0.9768,0.9822,0.9822,0.9822,0.9822,0.9822,0.9822,0.9822,0.9822,0.9822,0.97,0.9518,0.9275,0.9092,0.8909,0.8599,0.805,0.7255,0.6324,0.5161,0.3815,0.1848,0.0802,0.0247,0.0062,0.0,0.0,0.0,0.0,0.0,0.0,0.0,0.0,0.0,0.0,0.0,0.0,0.0,0.0,0.0,0.0,0.0,0.0,0.0,0.0,0.0,0.0,0.0,0.0,0.0,0.0,0.0,0.0,0.0,0.0,0.0,0.0,0.0,0.0,0.0,0.0,0.0,0.0,0.0,0.0,0.0,0.0,0.0,0.0,0.0,0.0,0.0,0.0,0.0,0.0,0.0,0.0,0.0,0.0,0.0,0.0,0.0,0.0,0.0,0.0,0.8885,0.8885,0.8885,0.8885,0.8885,0.8885,0.8885,0.8885,0.8885,0.8885,0.8885,0.8885,0.8885,0.8885,0.8885,0.8885,0.8885,0.8885,0.8885,0.8885,0.8892,0.9055,0.9096,0.9123,0.9388,0.9496,0.9517,0.97,0.9768,0.9774,0.9808,0.9822,0.9822,0.9822,0.9822,0.9822,0.9822,0.9822,0.9822,0.9822,0.9822,0.9822,0.9822,0.9335,0.8726,0.7856,0.6696,0.5104,0.277,0.1233,0.0309,0.0062,0.0,0.0,0.0,0.0,0.0,0.0,0.0,0.0,0.0,0.0,0.0,0.0,0.0,0.0,0.0,0.0,0.0,0.0,0.0,0.0,0.0,0.0,0.0,0.0,0.0,0.0,0.0,0.0,0.0,0.0,0.0,0.0,0.0,0.0,0.0,0.0,0.0,0.0,0.0,0.0,0.0,0.0,0.0,0.0,0.0,0.0,0.0,0.0,0.0,0.0,0.0,0.0,0.0,0.0,0.0,0.0,0.0,0.0,0.0,0.0,0.8885,0.8885,0.8885,0.8885,0.8885,0.8885,0.8885,0.8885,0.8885,0.8885,0.8885,0.8885,0.8885,0.8885,0.8885,0.8885,0.8885,0.8885,0.8885,0.8885,0.8885,0.8892,0.8892,0.8912,0.9117,0.9234,0.9268,0.951,0.9618,0.9639,0.9774,0.9822,0.9822,0.9822,0.9822,0.9822,0.9822,0.9822,0.9822,0.9822,0.9822,0.9822,0.9822,0.9518,0.9092,0.8477,0.7561,0.5843,0.2341,0.074,0.0,0.0,0.0,0.0,0.0,0.0,0.0,0.0,0.0,0.0,0.0,0.0,0.0,0.0,0.0,0.0,0.0,0.0,0.0,0.0,0.0,0.0,0.0,0.0,0.0,0.0,0.0,0.0,0.0,0.0,0.0,0.0,0.0,0.0,0.0,0.0,0.0,0.0,0.0,0.0,0.0,0.0,0.0,0.0,0.0,0.0,0.0,0.0,0.0,0.0,0.0,0.0,0.0,0.0,0.0,0.0,0.0,0.0,0.0,0.0,0.0,0.0,0.0,0.8648,0.8648,0.8648,0.8689,0.8791,0.8791,0.8838,0.8885,0.8885,0.8885,0.8885,0.8885,0.8885,0.8885,0.8885,0.8885,0.8885,0.8885,0.8885,0.8885,0.8885,0.8885,0.8898,0.9096,0.9207,0.9248,0.9496,0.9612,0.9632,0.9774,0.9822,0.9822,0.9822,0.9822,0.9822,0.9822,0.9822,0.9822,0.9822,0.9822,0.9822,0.9822,0.97,0.9457,0.8787,0.7922,0.663,0.449,0.2219,0.0556,0.037,0.0123,0.0,0.0,0.0,0.0,0.0,0.0,0.0,0.0,0.0,0.0,0.0,0.0,0.0,0.0,0.0,0.0,0.0,0.0,0.0,0.0,0.0,0.0,0.0,0.0,0.0,0.0,0.0,0.0,0.0,0.0,0.0,0.8377,0.0,0.0,0.0,0.0,0.0,0.0,0.0,0.0,0.0,0.0,0.0,0.0,0.0,0.0,0.0,0.0,0.0,0.0,0.0,0.0,0.0,0.0,0.0,0.0,0.0,0.0,0.0,0.0,0.0,0.8479,0.8479,0.8554,0.8703,0.8757,0.8832,0.8885,0.8885,0.8885,0.8885,0.8885,0.8885,0.8885,0.8885,0.8885,0.8885,0.8885,0.8885,0.8885,0.8885,0.8885,0.8892,0.9042,0.9083,0.9117,0.9422,0.953,0.9557,0.9754,0.9822,0.9822,0.9822,0.9822,0.9822,0.9822,0.9822,0.9822,0.9822,0.9822,0.9822,0.9822,0.9822,0.964,0.9092,0.8349,0.7429,0.6149,0.3571,0.1357,0.0925,0.037,0.0,0.0,0.0,0.0,0.0,0.0,0.0,0.0,0.0,0.0,0.0,0.0,0.0,0.0,0.0,0.0,0.0,0.0,0.0,0.0,0.0,0.0,0.0,0.0,0.0,0.0,0.0,0.0,0.0,0.0,0.0,0.0,0.0,0.0,0.0,0.0,0.0,0.0,0.0,0.0,0.0,0.0,0.0,0.0,0.0,0.0,0.0,0.0,0.0,0.0,0.0,0.0,0.0,0.0,0.0,0.0,0.0,0.0,0.0,0.8472,0.8472,0.8472,0.8472,0.8547,0.8696,0.879,0.8871,0.8878,0.8878,0.8878,0.8885,0.8885,0.8885,0.8885,0.8885,0.8885,0.8885,0.8885,0.8885,0.8885,0.8885,0.8885,0.8885,0.8885,0.8885,0.8919,0.9273,0.9381,0.9422,0.972,0.9822,0.9822,0.9822,0.9822,0.9822,0.9822,0.9822,0.9822,0.9822,0.9822,0.9822,0.9822,0.9822,0.97,0.9396,0.8848,0.8172,0.7194,0.4674,0.2401,0.1665,0.074,0.0,0.0,0.0,0.0,0.0,0.0,0.0,0.0,0.0,0.0,0.0,0.0,0.0,0.0,0.0,0.0,0.0,0.0,0.0,0.0,0.0,0.0,0.0,0.0,0.0,0.0,0.0,0.0,0.0,0.0,0.0,0.7885,0.0,0.0,0.0,0.0,0.0,0.0,0.0,0.0,0.0,0.0,0.0,0.0,0.0,0.0,0.0,0.0,0.0,0.0,0.0,0.0,0.0,0.0,0.0,0.0,0.0,0.0,0.0,0.816,0.816,0.816,0.8269,0.835,0.8391,0.8533,0.8662,0.8771,0.8771,0.8832,0.8885,0.8885,0.8885,0.8885,0.8885,0.8885,0.8885,0.8885,0.8885,0.8885,0.8885,0.8885,0.8885,0.8885,0.8885,0.8919,0.9273,0.9381,0.9422,0.972,0.9822,0.9822,0.9822,0.9822,0.9822,0.9822,0.9822,0.9822,0.9822,0.9822,0.9822,0.9822,0.9822,0.9761,0.97,0.9518,0.9214,0.8421,0.7123,0.5341,0.3016,0.1603,0.0617,0.0432,0.0185,0.0,0.0,0.0,0.0,0.0,0.0,0.0,0.0,0.0,0.0,0.0,0.0,0.0,0.0,0.0,0.0,0.0,0.0,0.0,0.0,0.0,0.0,0.0,0.0,0.0,0.0,0.0,0.0,0.7912,0.0,0.0,0.0,0.0,0.0,0.0,1.0675,0.0,0.0,0.0,0.0,0.0,0.0,0.0,0.0,0.0,0.0,0.0,0.0,0.0,0.0,0.0,0.0,0.0,0.8973,0.8528,0.8038,0.7988,0.7988,0.7988,0.8187,0.832,0.832,0.8411,0.8526,0.8615,0.8676,0.8757,0.8845,0.8851,0.8885,0.8885,0.8885,0.8885,0.8885,0.8885,0.8885,0.8885,0.8885,0.8885,0.8885,0.8885,0.8885,0.8912,0.9198,0.9344,0.9327,0.9632,0.9734,0.9741,0.9802,0.9822,0.9822,0.9822,0.9822,0.9822,0.9822,0.9822,0.9822,0.9822,0.9822,0.9822,0.9822,0.9822,0.964,0.9092,0.8355,0.7057,0.449,0.271,0.1481,0.0987,0.0432,0.0,0.0,0.0,0.0,0.0,0.0,0.0,0.0,0.0,0.0,0.0,0.0,0.0,0.0,0.0,0.0,0.0,0.0,0.0,0.0,0.0,0.0,0.0,0.0,0.0,0.0,0.0,0.0,0.8099,0.8059,0.0,0.0,0.0,0.0,0.9058,1.002,0.0,0.0,0.0,0.0,0.0,0.0,0.0,0.0,0.0,0.0,0.0,0.0,0.0,0.0,0.0,0.0,1.0178,0.9616,0.8992,0.8209,0.8131,0.8088,0.8038,0.8167,0.8248,0.8248,0.837,0.8438,0.8459,0.8594,0.8676,0.871,0.8797,0.8865,0.8885,0.8885,0.8885,0.8885,0.8885,0.8885,0.8885,0.8885,0.8885,0.8885,0.8885,0.8885,0.8898,0.9096,0.9207,0.9255,0.9503,0.9612,0.9632,0.9774,0.9822,0.9822,0.9822,0.9822,0.9822,0.9822,0.9822,0.9822,0.9822,0.9822,0.9822,0.9822,0.9822,0.97,0.9396,0.8909,0.7989,0.6145,0.4122,0.2525,0.1849,0.0864,0.0185,0.0185,0.0123,0.0123,0.0062,0.0,0.0,0.0,0.0,0.0,0.0,0.0,0.0,0.0,0.0,0.0,0.0,0.0,0.0,0.0,0.0,0.0,0.0,0.0,0.0,0.0,0.0,0.0,0.9339,0.8991,0.8631,0.8631,0.0,0.0,0.8549,0.9272,0.0,0.0,0.0,0.0,0.0,0.0,0.0,0.0,0.0,0.0,0.0,0.0,0.0,0.0,0.0,0.0,1.0725,1.0355,0.9878,0.9115,0.8799,0.8528,0.8336,0.8165,0.8085,0.8085,0.8062,0.8187,0.8361,0.8343,0.8472,0.871,0.8743,0.8818,0.8885,0.8885,0.8885,0.8885,0.8885,0.8885,0.8885,0.8885,0.8885,0.8885,0.8885,0.8885,0.8898,0.9096,0.9207,0.9255,0.9503,0.9612,0.9632,0.9774,0.9822,0.9822,0.9822,0.9822,0.9822,0.9822,0.9822,0.9822,0.9822,0.9822,0.9822,0.9822,0.9822,0.9761,0.97,0.964,0.9268,0.8299,0.59,0.3817,0.3141,0.2219,0.1541,0.1233,0.0987,0.0679,0.0432,0.0185,0.0,0.0,0.0,0.0,0.0,0.0,0.0,0.0,0.0,0.0,0.0,0.0,0.0,0.0,0.0,0.0,0.0,0.0,0.0,0.0,0.0,0.0,1.0157,0.9793,0.9392,0.9071,0.0,0.0,0.0,0.0,0.9471,0.0,0.0,0.0,0.0,0.0,0.0,0.0,0.0,0.0,0.0,0.0,0.0,0.0,0.0,0.0,1.197,1.1533,1.0942,1.0049,0.9608,0.9213,0.8825,0.8287,0.7988,0.7988,0.7988,0.8029,0.8153,0.8235,0.8343,0.8492,0.8642,0.875,0.8825,0.8851,0.8885,0.8885,0.8885,0.8885,0.8885,0.8885,0.8885,0.8885,0.8885,0.8885,0.8892,0.9022,0.9049,0.9089,0.9395,0.9496,0.953,0.9747,0.9822,0.9822,0.9822,0.9822,0.9822,0.9822,0.9822,0.9822,0.9822,0.9822,0.9822,0.9822,0.9822,0.9822,0.9822,0.9822,0.964,0.9153,0.7622,0.6084,0.5042,0.406,0.3262,0.2772,0.2156,0.1541,0.1049,0.0432,0.0,0.0,0.0,0.0,0.0,0.0,0.0,0.0,0.0,0.0,0.0,0.0,0.0,0.0,0.0,0.0,0.0,0.0,0.0,0.0,0.0,0.0,0.0,0.0,0.0,0.0,0.0,0.9071,0.0,0.0,0.0,0.9124,0.0,0.0,0.0,0.0,0.0,0.0,0.0,0.0,0.0,0.0,0.0,0.0,0.0,0.0,0.0,1.2451,1.1756,1.0913,1.038,0.9867,0.9453,0.8682,0.8252,0.8237,0.8187,0.8137,0.8088,0.816,0.8241,0.8327,0.854,0.8682,0.8716,0.8811,0.8885,0.8885,0.8885,0.8885,0.8885,0.8885,0.8885,0.8885,0.8885,0.8885,0.8885,0.8885,0.8885,0.8925,0.9279,0.9381,0.9429,0.9727,0.9822,0.9822,0.9822,0.9822,0.9822,0.9822,0.9822,0.9822,0.9822,0.9822,0.9822,0.9822,0.9822,0.9822,0.9822,0.9822,0.97,0.9457,0.9025,0.8233,0.6945,0.59,0.5042,0.4367,0.3446,0.2585,0.191,0.0864,0.0185,0.0123,0.0062,0.0,0.0,0.0,0.0,0.0,0.0,0.0,0.0,0.0,0.0,0.0,0.0,0.0,0.0,0.0,0.0,0.0,0.0,0.0,0.0,0.0,0.0,0.0,0.9604,0.0,0.0,0.0,0.8858,0.8858,0.0,0.0,0.0,0.0,0.0,0.0,0.0,0.0,0.0,0.0,0.0,0.0,0.0,0.0,0.0,1.2225,1.1805,1.1434,1.0755,1.0334,1.0266,0.9565,0.9114,0.908,0.8832,0.8577,0.8336,0.8158,0.8133,0.8327,0.8431,0.8581,0.8716,0.8811,0.8885,0.8885,0.8885,0.8885,0.8885,0.8885,0.8885,0.8885,0.8885,0.8885,0.8885,0.8885,0.8885,0.8925,0.9279,0.9381,0.9429,0.9727,0.9822,0.9822,0.9822,0.9822,0.9822,0.9822,0.9822,0.9822,0.9822,0.9822,0.9822,0.9822,0.9822,0.9822,0.9822,0.9822,0.9761,0.9761,0.97,0.9207,0.7928,0.7133,0.6455,0.5782,0.48,0.3879,0.2956,0.1666,0.0803,0.0494,0.0185,0.0,0.0,0.0,0.0,0.0,0.0,0.0,0.0,0.0,0.0,0.0,0.0,0.0,0.0,0.0,0.0,0.0,0.0,0.0,0.0,0.0,0.0,0.0,0.0,0.0,0.8911,0.0,0.9031,0.0,0.0,0.0,0.0,0.0,0.0,0.0,0.0,0.0,0.0,0.0,0.0,0.0,0.0,0.0,0.0,0.0,0.0,0.0,1.1485,1.1224,1.1451,1.0886,1.0521,1.0395,0.9805,0.9312,0.8874,0.8287,0.8022,0.814,0.837,0.8513,0.8587,0.8825,0.8885,0.8885,0.8885,0.8885,0.8885,0.8885,0.8885,0.8885,0.8885,0.8885,0.8885,0.8885,0.8885,0.8925,0.9279,0.9381,0.9429,0.9727,0.9822,0.9822,0.9822,0.9822,0.9822,0.9822,0.9822,0.9822,0.9822,0.9822,0.9822,0.9822,0.9822,0.9822,0.9822,0.9822,0.9822,0.9822,0.9822,0.964,0.9092,0.8781,0.8355,0.7683,0.6757,0.5712,0.4551,0.2895,0.1665,0.1111,0.0432,0.0,0.0,0.0,0.0,0.0,0.0,0.0,0.0,0.0,0.0,0.0,0.0,0.0,0.0,0.0,0.0,0.0,0.0,0.0,1.2824,0.0,0.0,0.0,0.0,0.0,0.0,0.0,0.0,0.0,0.0,0.0,0.0,0.0,0.0,0.0,0.0,0.0,0.0,0.0,0.0,0.0,0.0,0.0,0.0,0.0,0.0,0.0,0.0,1.1652,1.2137,1.1868,1.165,1.1511,1.08,1.0199,0.9665,0.8832,0.8386,0.8343,0.8552,0.8654,0.8598,0.8757,0.8844,0.8885,0.8885,0.8885,0.8885,0.8885,0.8885,0.8885,0.8885,0.8885,0.8885,0.8885,0.8885,0.8925,0.9279,0.9435,0.9537,0.9747,0.9822,0.9822,0.9822,0.9822,0.9822,0.9822,0.9822,0.9822,0.9822,0.9822,0.9822,0.9822,0.9822,0.9822,0.9822,0.9822,0.9822,0.9822,0.9822,0.9822,0.9822,0.9822,0.9579,0.9037,0.8227,0.7245,0.5965,0.4183,0.2772,0.2096,0.1171,0.0494,0.0432,0.0309,0.0185,0.0,0.0,0.0,0.0,0.0,0.0,0.0,0.0,0.0,0.0,0.0,0.0,0.0,0.0,0.0,0.0,0.0,0.0,1.0814,0.0,0.0,0.0,0.0,0.9217,0.0,0.0,0.0,0.0,0.0,0.0,0.0,0.0,0.0,0.0,0.0,0.0,0.0,0.0,0.0,0.0,0.0,0.0,0.0,1.108,0.0,1.207,1.2195,1.2281,1.2241,1.1791,1.1277,1.0757,0.9969,0.9426,0.9137,0.9105,0.9021,0.8867,0.8755,0.8798,0.8885,0.8885,0.8885,0.8885,0.8885,0.8885,0.8885,0.8885,0.8885,0.8885,0.8885,0.8885,0.8925,0.9279,0.9564,0.9808,0.9815,0.9822,0.9822,0.9822,0.9822,0.9822,0.9822,0.9822,0.9822,0.9822,0.9822,0.9822,0.9822,0.9822,0.9822,0.9822,0.9822,0.9822,0.9822,0.9822,0.9822,0.9822,0.9822,0.97,0.9335,0.8781,0.7989,0.7011,0.5352,0.4125,0.3512,0.2527,0.1788,0.148,0.1172,0.0679,0.0062,0.0,0.0,0.0,0.0,0.0,0.0,0.0,0.0,0.0,0.0,0.0,0.0,0.0,0.0,0.0,0.0,1.2328,1.1631,0.0,0.0,0.0,0.0,0.0,0.0,0.0,0.0,0.0,0.0,0.0,0.0,0.0,0.0,0.0,0.0,0.0,0.0,0.0,0.0,0.0,0.0,0.0,0.0,1.0764,0.0,1.2492,1.2946,1.3293,1.3558,1.3064,1.2661,1.2349,1.1521,1.0935,1.0493,1.0037,0.9603,0.9219,0.886,0.8737,0.8791,0.8838,0.8885,0.8885,0.8885,0.8885,0.8885,0.8885,0.8885,0.8885,0.8885,0.8885,0.8925,0.9279,0.9578,0.9822,0.9822,0.9822,0.9822,0.9822,0.9822,0.9822,0.9822,0.9822,0.9822,0.9822,0.9822,0.9822,0.9822,0.9822,0.9822,0.9822,0.9822,0.9822,0.9822,0.9822,0.9822,0.9822,0.9822,0.9761,0.964,0.9457,0.9031,0.8238,0.7123,0.6141,0.5471,0.449,0.3692,0.3139,0.2034,0.0925,0.0062,0.0,0.0,0.0,0.0,0.0,0.0,0.0,0.0,0.0,0.0,0.0,0.0,0.0,0.0,1.4295,1.3748,0.0,1.2492,1.2037,0.0,1.0621,0.0,0.0,0.0,0.0,0.0,0.0,0.0,0.0,0.0,0.0,0.0,0.0,0.0,0.0,0.0,0.0,0.0,0.0,0.0,0.9726,1.0238,1.0278,0.0,0.0,0.0,1.3568,1.4129,1.3826,1.3626,1.3511,1.2823,1.2242,1.1707,1.1055,1.0499,1.0033,0.9489,0.9226,0.9287,0.9223,0.9154,0.9051,0.894,0.8885,0.8885,0.8885,0.8885,0.8885,0.8885,0.8952,0.9123,0.9313,0.9578,0.9822,0.9822,0.9822,0.9822,0.9822,0.9822,0.9822,0.9822,0.9822,0.9822,0.9822,0.9822,0.9822,0.9822,0.9822,0.9822,0.9822,0.9822,0.9822,0.9822,0.9822,0.9822,0.9822,0.9822,0.9822,0.9822,0.9822,0.9579,0.9031,0.8288,0.7551,0.7006,0.6145,0.5226,0.4183,0.2895,0.1788,0.0802,0.074,0.074,0.074,0.074,0.074,0.074,0.074,0.074,0.074,0.074,0.074,0.0678,0.0538,0.0469]}]]